GFSSGP_con_mlcape_000.txt.gz
CAPE
0 0 0 0 0 0 0 0 0 0 0 0 0 0 0 0 0 0 0 0 0 0 0 0 221 193 206 190 57 0 0 0 0 0 0 0 0 0 0 6 16 41 46 9 8 9 5 38 60
0 0 0 0 0 0 0 0 0 0 0 0 0 0 0 0 0 0 0 0 0 0 0 0 343 269 188 241 120 41 0 0 0 0 0 0 0 0 2 2 6 17 39 27 9 9 5 24 70
0 0 0 0 0 0 0 0 0 0 0 0 0 0 0 0 0 0 0 0 0 0 0 0 45 347 331 408 332 155 43 46 39 3 0 0 0 2 1 1 3 10 18 24 17 13 11 1 71
0 0 0 0 0 0 0 0 0 0 0 0 0 0 0 0 0 0 0 0 0 0 0 0 212 634 554 450 392 312 203 88 67 52 12 12 16 9 6 1 0 0 14 19 64 22 15 4 65
0 0 0 0 0 0 0 0 0 0 0 0 0 0 0 0 0 0 0 0 0 0 0 0 141 700 785 551 405 317 101 55 33 24 24 35 36 49 8 4 1 1 1 21 13 103 34 128 203
0 0 0 0 0 0 0 0 0 0 0 0 0 0 0 0 0 0 0 0 0 0 0 0 5 319 441 267 91 32 27 25 7 4 16 60 69 57 50 79 15 5 2 11 10 85 88 245 399
0 0 0 0 0 0 0 0 0 0 0 0 0 0 0 0 0 0 0 0 0 0 0 0 0 0 0 0 0 6 15 29 38 44 32 61 69 73 82 70 70 35 3 20 25 89 90 213 393
0 0 0 0 0 0 0 0 0 0 0 0 0 0 0 0 0 0 0 0 0 0 0 0 0 0 0 0 0 0 0 0 4 45 26 59 72 68 99 91 81 50 39 73 51 125 203 174 384
0 0 0 0 0 0 0 0 0 0 0 0 0 0 0 0 0 0 0 0 0 0 0 0 0 0 0 0 0 0 0 0 3 1 14 18 6 7 20 62 70 78 78 131 132 263 391 301 331
0 0 0 0 0 0 0 0 0 0 0 0 0 0 0 0 0 0 0 0 0 0 0 0 0 0 0 0 0 0 0 0 0 0 0 5 1 0 14 28 66 61 96 195 188 387 512 479 301
0 0 0 0 0 0 0 0 0 0 0 0 0 0 0 0 0 0 0 0 0 0 0 0 0 0 0 0 0 0 0 0 1 2 0 12 27 5 13 16 28 31 90 111 312 460 448 396 340
0 0 0 0 0 0 0 0 0 0 0 0 0 0 0 0 0 0 0 0 0 0 0 0 0 0 0 0 0 0 0 1 1 1 0 5 2 1 0 0 10 19 10 42 106 57 227 356 358
0 0 0 0 0 0 0 0 0 0 0 0 0 0 0 0 0 0 0 0 0 0 0 0 0 0 0 0 0 0 0 0 1 0 0 0 0 0 0 0 0 0 15 50 61 84 105 179 322
0 0 0 0 0 0 0 0 0 0 0 0 0 0 0 0 0 0 0 0 0 0 0 0 0 0 0 0 0 0 0 0 0 0 0 0 0 0 1 14 15 15 44 55 41 102 106 210 378
0 0 0 0 0 0 0 0 0 0 0 0 0 0 0 0 0 0 0 0 0 0 0 0 0 0 0 0 0 0 0 0 0 0 0 0 0 0 4 15 7 7 25 29 24 73 111 153 238
0 0 0 0 0 0 0 0 0 0 0 0 0 0 0 0 0 0 0 0 0 0 0 0 0 0 0 0 0 0 0 0 0 0 0 0 0 15 5 1 0 5 17 27 76 127 107 195 456
0 0 0 0 0 0 0 0 0 0 0 0 0 0 0 0 0 0 0 0 0 0 0 0 0 0 0 0 0 0 0 0 8 19 20 55 112 106 38 53 50 49 69 110 79 134 97 220 428
0 0 0 0 0 0 0 0 0 0 0 0 0 0 0 0 0 0 0 0 0 0 0 0 0 0 0 0 0 0 0 0 0 0 20 51 70 77 92 109 151 138 118 97 99 167 192 378 546
0 0 0 0 0 0 0 0 0 0 0 0 0 0 0 0 0 0 0 0 0 0 0 0 0 0 0 0 0 0 0 1 0 1 23 20 36 31 83 13 9 98 124 166 166 204 289 398 516
0 0 0 0 0 0 0 0 0 0 0 0 0 0 0 0 0 0 0 0 0 0 0 0 0 0 0 0 0 0 1 1 0 1 26 32 26 19 86 72 80 178 158 223 206 236 189 341 323
0 0 0 0 0 0 0 0 0 0 0 0 0 0 0 0 0 0 0 0 0 0 0 0 0 0 0 0 0 0 8 16 0 0 6 54 34 9 58 82 132 173 185 209 164 207 261 262 188
0 0 0 0 0 0 0 0 0 0 0 0 0 0 0 0 0 0 0 0 0 0 0 0 0 0 0 0 0 5 6 6 0 1 13 12 31 67 48 19 55 83 73 104 72 107 108 107 16
0 0 0 0 0 0 0 0 0 0 0 0 0 0 0 0 0 0 0 0 0 0 0 0 0 0 0 0 0 0 0 12 8 1 2 21 32 55 54 48 28 52 32 32 91 16 39 63 33
0 0 0 0 0 0 0 0 0 0 0 0 0 0 0 0 0 0 0 0 0 0 0 0 0 0 0 0 0 0 0 0 0 19 7 0 7 14 58 54 54 60 30 29 16 1 3 10 10
0 0 0 0 0 0 0 0 0 0 0 0 0 0 0 0 0 0 0 0 0 0 0 0 0 0 0 0 0 0 0 0 0 4 10 15 38 38 37 43 48 51 32 42 30 9 5 5 5
0 0 0 0 0 0 0 0 0 0 0 0 0 0 0 0 0 0 0 0 0 0 0 0 0 0 0 0 0 0 0 0 0 0 27 26 24 31 33 24 13 25 63 32 36 36 25 5 1
0 0 0 0 0 0 0 0 0 0 0 0 0 0 0 0 0 0 0 0 0 0 0 0 0 0 0 0 0 0 0 0 0 0 0 0 0 7 10 11 18 14 67 42 28 30 23 12 0
0 0 0 0 0 0 0 0 0 0 0 0 0 0 0 0 0 0 0 0 0 0 0 0 0 0 0 0 0 0 0 0 0 0 0 0 0 0 0 0 0 0 29 38 33 18 3 3 0
0 0 0 0 0 0 0 0 0 0 22 21 0 0 0 0 0 0 0 0 0 0 0 0 0 0 0 0 0 0 0 0 0 0 0 0 0 0 0 0 0 0 0 0 0 0 0 0 0
0 0 0 0 0 0 0 0 0 46 52 64 0 0 0 0 0 0 0 0 0 0 0 0 0 0 0 0 0 0 0 0 0 0 0 0 0 0 0 0 0 0 0 0 0 0 0 0 0

GFSSGP_con_mlcape_003.txt.gz
CAPE
0 0 0 0 0 0 0 0 0 0 0 0 0 0 0 0 0 0 0 0 0 0 0 0 364 442 299 156 230 235 40 0 0 0 0 0 0 0 0 0 13 96 102 127 19 17 20 24 128
0 0 0 0 0 0 0 0 0 0 0 0 0 0 0 0 0 0 0 0 0 0 0 0 323 533 168 273 411 278 89 66 10 5 0 0 0 0 0 1 21 38 86 118 80 38 78 69 118
0 0 0 0 0 0 0 0 0 0 0 0 0 0 0 0 0 0 0 0 0 0 0 0 0 35 256 478 335 42 92 184 107 116 32 7 6 10 2 5 17 35 48 45 110 48 18 44 84
0 0 0 0 0 0 0 0 0 0 0 0 0 0 0 0 0 0 0 0 0 0 0 0 0 608 709 698 551 74 231 202 220 85 63 62 36 18 11 15 6 3 24 92 54 130 51 29 64
0 0 0 0 0 0 0 0 0 0 0 0 0 0 0 0 0 0 0 0 0 0 0 0 0 373 638 853 773 305 155 75 32 33 24 31 39 45 42 55 40 6 10 22 102 100 113 91 119
0 0 0 0 0 0 0 0 0 0 0 0 0 0 0 0 0 0 0 0 0 0 0 0 0 154 407 298 314 173 52 43 97 114 32 9 14 52 73 73 41 8 3 5 16 10 45 171 253
0 0 0 0 0 0 0 0 0 0 0 0 0 0 0 0 0 0 0 0 0 0 0 0 0 0 0 0 0 0 0 3 12 22 48 83 48 66 36 59 88 103 20 2 0 196 39 75 209
0 0 0 0 0 0 0 0 0 0 0 0 0 0 0 0 0 0 0 0 0 0 0 0 0 0 0 0 0 0 0 0 1 5 11 89 74 85 100 77 27 30 88 20 21 168 103 56 121
0 0 0 0 0 0 0 0 0 0 0 0 0 0 0 0 0 0 0 0 0 0 0 0 0 0 0 0 0 0 0 0 4 3 5 3 42 65 50 63 113 29 101 115 75 190 189 50 140
0 0 0 0 0 0 0 0 0 0 0 0 0 0 0 0 0 0 0 0 0 0 0 0 0 0 0 0 0 0 2 7 6 6 6 7 40 9 3 18 58 23 147 132 134 173 158 160 280
0 0 0 0 0 0 0 0 0 0 0 0 0 0 0 0 0 0 0 0 0 0 0 0 0 0 0 0 0 1 4 0 0 1 2 8 37 76 34 23 20 89 121 137 207 164 274 526 384
0 0 0 0 0 0 0 0 0 0 0 0 0 0 0 0 0 0 0 0 0 0 0 0 0 0 0 0 0 5 1 5 10 2 4 2 6 15 8 19 44 96 176 134 233 326 546 526 409
0 0 0 0 0 0 0 0 0 0 0 0 0 0 0 0 0 0 0 0 0 0 0 0 0 0 0 0 0 3 5 2 6 2 3 1 9 17 9 10 19 26 24 83 217 178 118 236 352
0 0 0 0 0 0 0 0 0 0 0 0 0 0 0 0 0 0 0 0 0 0 0 0 0 0 0 0 0 1 2 3 1 0 3 9 36 63 66 25 7 18 76 262 245 233 234 207 344
0 0 0 0 0 0 0 0 0 0 0 0 0 0 0 0 0 0 0 0 0 0 0 0 0 0 0 0 0 1 3 3 3 17 0 1 35 62 81 189 126 121 244 249 184 137 97 172 477
0 0 0 0 0 0 0 0 0 0 0 0 0 0 0 0 0 0 0 0 0 0 0 0 0 0 0 0 0 6 43 18 64 112 157 114 154 179 167 242 183 203 213 220 276 135 103 201 427
0 0 0 0 0 0 0 0 0 0 0 0 0 0 0 0 0 0 0 0 0 0 0 0 0 0 0 0 0 29 52 55 56 113 186 287 356 394 258 259 280 170 147 296 351 340 207 273 217
0 0 0 0 0 0 0 0 0 0 0 0 0 0 0 0 0 0 0 0 0 0 0 0 0 0 0 0 15 41 39 66 58 67 96 83 179 233 301 258 105 85 266 360 365 305 325 425 374
0 0 0 0 0 0 0 0 0 0 0 0 0 0 0 0 0 0 0 0 0 0 0 0 0 0 0 10 10 18 56 34 38 36 1 20 55 105 255 283 333 332 140 212 364 369 319 412 601
0 0 0 0 0 0 0 0 0 0 0 0 0 0 0 0 0 0 0 0 0 0 0 0 0 0 0 0 4 1 8 13 8 13 53 35 9 62 78 66 86 190 186 188 429 437 438 468 520
0 0 0 0 0 0 0 0 0 0 0 0 0 0 0 0 0 0 0 0 0 0 0 0 0 0 0 0 1 10 39 26 3 15 3 24 37 37 55 68 113 141 228 221 385 359 437 268 468
0 0 0 0 0 0 0 0 0 0 0 0 0 0 0 0 0 0 0 0 0 0 0 0 0 0 0 0 23 43 44 29 7 19 51 76 46 19 28 74 71 80 150 225 312 399 302 395 394
0 0 0 0 0 0 0 0 0 0 0 0 0 0 0 0 0 0 0 0 0 0 0 0 0 0 0 0 0 9 16 47 38 43 46 113 89 133 45 57 93 79 67 86 294 228 216 431 367
0 0 0 0 0 0 0 0 0 0 0 0 0 0 0 0 0 0 0 0 0 0 0 0 0 0 0 0 0 0 0 2 60 33 15 30 21 49 148 111 101 17 50 38 236 302 312 337 313
0 0 0 0 0 0 0 0 0 0 0 0 0 0 0 0 0 0 0 0 0 0 0 0 0 0 0 0 0 0 0 0 20 18 36 32 29 10 39 54 32 17 25 44 73 110 200 222 216
0 0 0 0 0 0 0 0 0 0 0 0 0 0 0 0 0 0 0 0 0 0 0 0 0 0 0 0 0 0 0 0 0 61 14 58 42 24 14 26 54 8 4 47 148 307 259 167 93
0 0 0 0 0 0 0 0 0 0 0 0 0 0 0 0 0 0 0 0 0 0 0 0 0 0 0 0 0 0 0 0 0 0 18 49 42 76 42 1 34 156 131 44 31 88 124 11 8
0 0 0 0 0 0 0 0 0 0 0 11 0 0 0 0 0 0 0 0 0 0 0 0 0 0 0 0 0 0 0 0 0 0 2 1 0 0 0 12 18 81 100 30 33 41 63 5 27
0 0 0 0 0 0 0 0 0 0 67 146 29 0 0 0 0 0 0 0 0 0 0 0 0 0 0 0 0 0 0 0 0 0 0 0 0 0 0 0 1 27 28 0 1 24 69 51 33
0 0 0 0 0 0 0 0 0 2 93 194 117 0 0 0 0 0 0 0 0 0 0 0 0 0 0 0 0 0 0 0 0 0 0 0 0 0 0 0 0 0 1 7 0 0 7 14 9

GFSSGP_con_mlcape_006.txt.gz
CAPE
0 0 0 0 0 0 0 0 0 0 0 0 0 0 0 0 0 0 0 0 0 0 0 0 137 390 407 586 541 212 196 314 30 0 0 0 0 0 0 0 0 12 93 181 129 12 85 66 70
0 0 0 0 0 0 2 0 0 0 0 0 0 0 0 0 0 0 0 0 0 0 0 0 69 312 550 346 230 85 263 254 142 29 5 10 2 0 0 0 1 21 72 149 171 129 6 154 83
0 0 0 0 0 0 0 0 0 0 0 0 0 0 0 0 0 0 0 0 0 0 0 0 0 200 505 534 70 137 51 0 121 158 125 100 56 44 0 0 1 22 55 129 163 180 96 93 115
0 0 0 0 2 0 0 0 0 0 0 0 0 0 0 0 0 0 0 0 0 0 0 0 0 1 686 527 311 339 220 128 133 86 75 65 70 75 59 2 2 11 54 113 206 97 143 45 140
0 0 0 0 0 0 0 0 0 0 0 0 0 0 0 0 0 0 0 0 0 0 0 0 0 0 422 420 380 453 241 189 49 71 59 46 53 38 53 56 27 32 16 43 92 251 127 141 146
0 0 0 0 13 1 0 0 0 0 0 0 0 0 0 0 0 0 0 0 0 0 0 0 0 0 5 137 244 101 64 23 20 29 27 18 36 17 27 54 75 67 54 15 0 91 157 69 190
0 0 0 0 0 0 0 0 0 0 0 0 0 0 0 0 0 0 0 0 0 0 0 0 0 0 0 0 0 0 0 0 0 0 0 2 6 36 71 70 93 72 39 9 1 0 190 65 61
0 0 0 0 1 2 0 0 0 0 0 0 0 0 0 0 0 0 0 0 0 0 0 0 0 0 0 0 0 0 0 0 0 2 11 35 35 0 64 74 77 70 131 87 15 0 159 105 74
0 0 0 0 1 7 4 0 0 0 0 0 0 0 0 0 0 0 0 0 0 0 0 0 0 0 0 0 0 0 0 0 1 2 8 6 15 19 96 87 81 105 60 59 71 44 169 198 50
0 0 0 0 0 0 0 0 0 0 0 0 0 0 0 0 0 0 0 0 0 0 0 0 0 0 0 0 3 11 13 3 2 6 6 10 6 77 18 21 29 86 99 67 77 95 224 179 112
0 0 0 0 0 0 0 0 0 0 0 0 0 0 0 0 0 0 0 0 0 0 0 0 0 0 0 0 7 10 12 12 9 2 10 3 8 142 99 19 9 9 35 57 73 18 68 95 279
0 0 0 0 0 0 0 0 0 0 0 0 0 0 0 0 0 0 0 0 0 0 0 0 0 0 0 6 14 14 19 15 6 28 6 96 94 97 105 65 17 44 90 75 167 71 118 169 376
0 0 0 0 0 0 0 0 0 0 0 0 0 0 0 0 0 0 0 0 0 0 0 0 0 0 6 9 17 13 16 14 11 42 27 214 128 160 42 24 28 54 142 160 210 96 132 286 258
0 0 0 0 0 0 0 0 0 0 0 0 0 0 0 0 0 0 0 0 0 0 0 0 0 10 18 17 13 30 63 64 39 17 42 242 246 171 128 33 43 81 108 172 173 141 117 416 151
0 0 0 0 0 0 0 0 0 0 0 0 0 0 0 0 0 0 0 0 0 0 0 0 0 16 20 45 51 50 99 123 107 90 128 152 258 260 227 131 46 58 143 284 265 265 288 264 186
0 0 0 0 0 0 0 0 0 0 0 0 0 0 0 0 0 0 0 0 0 0 0 0 0 13 18 51 82 82 105 196 235 234 223 231 308 385 388 346 318 341 444 351 237 269 244 191 137
0 0 0 0 0 0 0 0 0 0 0 0 0 0 0 0 0 0 0 0 0 0 0 0 0 3 20 19 58 62 118 184 190 181 157 194 345 434 402 484 406 387 362 360 341 211 197 160 141
0 0 0 0 0 0 0 0 0 0 0 0 0 0 0 0 0 0 0 0 0 0 0 0 0 0 5 29 36 48 75 192 133 74 5 121 217 303 495 491 417 372 260 323 362 360 239 209 236
0 0 0 0 0 0 0 0 0 0 0 0 0 0 0 0 0 0 0 0 0 0 0 0 0 0 0 10 60 43 63 27 87 12 15 5 86 211 396 413 425 301 258 305 393 391 296 274 240
0 0 0 0 0 0 0 0 0 0 0 0 0 0 0 0 0 0 0 0 0 0 0 0 0 0 0 12 77 72 69 37 0 6 8 8 3 168 248 323 335 259 289 377 374 362 294 339 494
0 0 0 0 0 0 0 0 0 0 0 0 0 0 0 0 0 0 0 0 0 0 0 0 0 0 0 230 172 236 208 37 116 22 24 25 37 49 163 142 158 276 269 354 484 445 456 456 551
0 0 0 0 0 0 0 0 0 0 0 0 0 0 0 0 0 0 0 0 0 0 0 0 0 0 20 83 39 124 206 79 80 161 135 43 67 40 86 172 225 346 333 572 589 604 521 376 441
0 0 0 0 0 0 0 0 0 0 0 0 0 0 0 0 0 0 0 0 0 0 0 0 0 0 142 57 12 20 139 283 189 171 134 115 222 136 126 139 237 328 412 531 547 582 539 578 332
0 0 0 0 0 0 0 0 0 0 0 0 0 17 3 0 0 0 0 0 0 0 0 0 0 0 17 84 37 23 8 44 26 78 65 58 143 214 170 115 92 348 497 521 482 540 701 674 604
0 0 0 0 0 0 0 0 0 0 0 0 0 0 3 0 0 0 0 0 0 0 0 0 0 0 0 0 5 0 21 59 48 71 39 52 14 113 95 88 142 255 401 505 525 515 729 419 103
0 0 0 0 0 0 0 0 0 0 0 9 57 113 13 0 0 0 0 0 0 0 0 0 0 0 0 0 0 0 0 0 16 167 40 0 28 11 44 53 120 199 290 369 581 526 580 231 56
0 0 0 0 0 0 0 0 0 0 0 31 81 40 0 0 0 0 0 0 0 0 0 0 0 0 0 0 0 0 0 0 25 257 175 117 57 37 62 63 39 240 310 181 457 543 510 317 62
0 0 0 0 0 0 0 0 0 11 1 251 168 51 0 0 0 0 0 0 0 0 0 0 0 0 0 0 0 0 0 0 0 52 29 47 39 6 10 86 239 188 283 382 418 384 448 181 108
0 0 0 0 0 0 1 0 0 0 40 156 409 125 0 0 0 0 0 0 0 0 0 0 0 0 0 0 0 0 0 0 0 0 18 26 0 23 26 12 1 6 61 97 338 217 48 60 9
0 0 0 0 0 0 0 0 0 6 95 370 561 166 0 0 0 0 0 0 0 0 0 0 0 0 0 0 0 0 0 0 0 0 5 26 63 30 54 37 10 0 0 7 47 216 108 158 85

GFSSGP_con_mlcape_009.txt.gz
CAPE
0 0 0 0 0 0 0 22 0 0 0 0 0 0 0 0 0 0 0 0 0 0 0 0 0 47 237 241 353 490 567 576 371 34 0 0 0 0 0 0 0 0 3 35 160 114 5 61 69
0 0 0 3 0 9 0 0 0 0 0 0 0 0 0 0 0 0 0 0 0 0 0 0 0 0 53 340 683 551 635 469 299 116 31 36 21 0 0 0 0 0 1 14 150 203 157 49 117
0 0 0 16 35 37 3 0 0 0 0 0 0 0 0 0 0 0 0 0 0 0 0 0 0 24 361 750 589 274 76 53 0 0 6 83 75 63 39 40 7 3 4 20 110 192 219 102 184
0 0 0 0 4 1 0 0 0 0 0 0 0 0 0 0 0 0 0 0 0 0 0 0 0 0 0 958 1177 551 122 21 0 0 0 42 1 48 65 71 77 21 9 44 142 219 175 165 106
0 0 0 37 49 34 0 1 0 0 0 0 0 0 0 0 0 0 0 0 0 0 0 0 0 0 0 427 692 400 243 85 86 59 61 128 129 99 37 29 73 67 34 5 70 200 291 175 200
0 0 0 25 30 2 8 0 0 0 0 0 0 0 0 0 0 0 0 0 0 0 0 0 0 0 0 0 0 0 0 0 0 0 5 34 5 0 1 1 61 120 64 19 27 46 98 217 110
0 0 3 23 32 29 8 0 0 0 0 0 0 0 0 0 0 0 0 0 0 0 0 0 0 0 0 0 0 0 0 0 0 0 0 0 1 18 34 6 143 135 131 64 5 0 5 159 97
0 0 0 1 22 34 2 0 0 0 0 0 0 0 0 0 0 0 0 0 0 0 0 0 0 0 0 0 0 0 0 0 0 0 0 5 15 47 88 101 127 163 148 69 4 8 0 81 76
0 0 0 1 3 19 1 1 1 0 0 0 0 0 0 0 0 0 0 0 0 0 0 0 0 0 0 0 0 0 5 3 0 0 1 10 11 36 83 266 165 238 162 150 99 90 0 124 135
0 0 0 0 0 0 0 0 5 6 1 0 0 0 0 0 0 0 0 0 0 0 0 0 0 0 0 0 1 9 21 9 7 5 5 7 10 15 152 111 185 265 266 190 62 43 86 114 129
0 0 0 0 0 0 0 0 3 0 0 1 0 0 0 0 0 0 0 0 0 0 0 0 0 0 0 0 1 5 31 17 9 9 7 5 5 39 165 183 109 200 226 118 32 31 17 1 63
0 0 0 0 0 0 0 0 0 0 0 0 0 0 0 0 0 0 0 0 0 0 0 0 0 0 7 1 1 24 25 28 26 17 48 10 80 116 116 230 215 136 230 199 142 86 3 3 157
0 0 0 0 0 0 0 0 0 0 0 0 0 0 0 0 0 0 0 0 0 0 0 0 0 9 17 5 5 20 11 9 46 21 31 33 139 216 89 115 92 85 129 219 165 176 51 191 209
0 0 0 0 0 0 0 0 0 0 0 0 0 0 0 0 0 0 0 0 0 0 0 0 0 12 4 9 47 30 34 63 57 51 10 12 133 218 208 252 105 149 46 151 304 281 126 122 494
0 0 0 0 0 0 0 0 0 0 0 0 0 0 0 0 0 0 0 0 0 0 0 0 0 0 2 17 46 44 37 61 111 108 107 119 163 362 390 215 176 285 333 264 419 295 183 347 485
0 0 0 0 0 0 0 0 1 0 0 0 0 0 0 0 0 0 0 0 0 0 0 0 0 0 6 40 37 84 65 172 174 129 73 165 174 246 464 253 253 116 246 251 323 180 127 306 271
0 0 0 2 0 0 0 0 0 0 0 0 0 0 0 0 0 0 0 0 0 0 0 0 1 0 15 41 96 133 265 291 220 43 24 41 272 216 357 606 426 426 387 409 339 275 253 231 221
0 4 8 0 35 2 0 0 0 2 0 0 0 0 0 0 0 0 0 0 0 0 0 0 0 20 23 49 50 250 316 210 211 49 1 3 125 218 332 568 591 489 482 490 410 276 335 229 154
0 3 12 25 30 4 16 0 0 4 0 0 0 0 0 0 0 0 0 0 0 0 0 3 0 6 0 26 148 64 130 24 35 53 7 33 68 129 245 643 500 501 488 559 517 222 215 185 201
0 0 0 0 10 19 10 0 0 0 0 0 0 0 0 0 0 0 0 0 0 0 0 0 0 14 52 231 351 277 150 98 25 103 65 68 87 139 256 407 283 315 490 523 651 484 252 219 243
0 0 0 0 12 24 3 0 0 0 0 0 0 0 0 0 0 0 0 0 0 0 0 0 2 137 387 498 418 524 521 274 350 224 128 155 110 157 255 336 212 241 308 445 574 648 449 421 570
0 0 0 0 1 2 1 0 0 0 0 0 0 0 0 15 0 0 0 0 0 0 0 0 40 243 414 234 110 368 434 359 315 357 230 152 153 184 238 228 280 269 257 354 526 584 458 360 407
0 0 0 0 0 0 0 0 0 0 2 0 0 0 9 27 0 1 0 0 0 0 0 0 55 209 483 214 144 179 326 256 347 170 104 143 183 162 204 246 281 349 360 573 700 680 668 402 299
0 0 0 0 0 0 0 0 0 3 0 0 0 3 65 36 0 0 0 0 0 0 0 0 8 11 331 269 69 268 229 134 96 9 20 51 130 157 237 274 358 503 705 710 631 812 582 546 673
0 0 0 0 0 0 0 0 0 0 0 0 0 26 105 37 0 0 0 0 0 0 0 0 0 0 0 66 13 81 104 163 164 120 12 37 77 41 202 331 400 416 588 595 683 657 612 763 530
0 0 0 0 7 30 5 0 5 0 0 0 0 129 233 55 0 0 0 0 0 0 0 0 0 0 0 0 5 17 4 154 114 0 0 10 39 169 211 244 352 440 525 557 627 621 599 437 65
0 0 0 0 0 1 26 15 1 0 0 2 46 228 255 59 0 0 0 0 0 0 0 0 0 0 0 0 0 0 2 87 490 394 36 48 245 140 210 230 338 374 436 485 689 545 470 455 292
0 0 0 0 0 5 28 14 21 0 10 131 231 310 189 6 0 0 0 0 0 0 0 0 0 0 0 0 0 0 0 21 63 26 58 165 50 263 167 262 120 273 420 559 757 609 213 10 67
0 0 0 0 0 6 29 29 4 0 6 63 336 335 73 0 0 0 0 0 0 0 0 0 0 0 0 0 0 0 0 0 0 26 89 36 129 64 182 155 221 198 240 483 441 268 201 84 31
0 0 0 0 0 0 22 92 0 0 0 61 298 324 15 0 0 0 0 0 0 0 0 0 0 0 0 0 0 0 0 0 0 0 72 135 143 83 16 81 185 136 207 183 292 275 74 16 22

GFSSGP_con_mlcape_012.txt.gz
CAPE
0 0 0 0 0 2 0 0 0 0 0 0 0 0 0 0 0 0 0 0 0 0 133 13 0 0 0 5 107 200 354 537 456 378 32 0 0 0 0 0 0 0 0 0 1 13 74 2 1
0 0 0 0 24 31 7 0 0 0 0 0 0 0 0 0 0 0 0 0 0 0 0 216 0 0 0 71 476 652 809 699 531 357 133 0 3 6 0 1 5 0 0 2 0 6 115 135 4
0 0 0 0 7 14 7 0 0 0 0 0 0 0 0 0 0 0 0 0 0 0 0 0 0 0 0 435 964 1160 1102 769 329 44 10 39 81 89 68 63 60 43 6 7 4 0 12 153 150
18 0 0 0 0 11 24 0 0 0 0 0 0 0 0 0 0 0 0 0 0 0 0 0 0 0 0 178 1054 1299 1057 473 2 0 0 5 51 61 57 50 72 73 53 15 7 21 19 152 180
4 0 0 12 4 0 0 20 0 0 0 0 0 0 0 0 0 0 0 0 0 0 0 0 0 0 0 0 177 456 165 29 0 0 0 35 51 68 82 80 88 57 80 76 4 15 163 242 190
0 0 0 2 24 2 0 0 0 0 0 0 0 0 0 0 0 0 0 0 0 0 0 0 0 0 0 0 0 0 0 0 0 0 0 0 0 7 0 0 0 1 40 179 80 1 38 124 215
3 16 14 16 9 4 0 1 0 0 0 0 0 0 0 0 0 0 0 0 0 0 0 0 0 0 0 0 0 0 0 0 0 0 0 0 0 0 0 3 45 93 178 276 193 1 30 1 162
0 0 0 0 14 23 17 2 0 0 0 0 0 0 0 0 0 0 0 0 0 0 0 0 0 0 0 0 0 0 0 0 0 0 0 0 0 0 0 0 92 181 360 357 258 95 45 0 72
0 0 0 7 9 4 0 0 0 0 0 0 0 0 0 0 0 0 0 0 0 0 0 0 0 0 0 0 0 1 0 1 0 1 0 1 4 4 7 27 222 322 368 360 280 84 86 16 69
0 0 0 9 0 0 0 0 0 0 0 0 0 0 0 0 0 0 0 0 0 0 0 0 0 0 0 0 0 0 16 18 6 0 0 0 0 2 9 37 150 370 427 430 348 235 191 70 0
0 0 0 0 0 0 0 0 0 0 0 0 0 0 0 0 0 0 0 0 0 0 0 0 0 0 0 0 0 0 16 13 0 0 0 0 0 0 22 39 204 206 436 364 343 151 61 51 0
1 0 4 1 0 0 0 0 0 0 0 0 0 0 0 0 0 0 0 0 0 0 0 0 0 0 21 42 0 0 18 0 0 0 7 0 0 31 56 54 144 117 303 246 219 140 65 30 0
0 1 1 0 0 0 0 0 0 0 0 0 0 0 0 0 0 0 0 0 0 0 0 0 0 22 125 63 0 14 1 0 4 4 31 42 8 7 17 45 42 61 119 218 140 188 147 15 13
0 6 0 0 0 0 0 0 0 0 0 0 0 0 0 0 0 0 0 0 0 0 0 0 13 41 14 0 6 58 33 3 13 32 21 15 9 9 53 57 24 50 20 250 187 265 190 117 262
0 0 0 0 0 0 0 0 0 0 0 0 0 0 0 0 0 0 0 0 0 0 0 0 9 0 0 31 68 23 72 11 9 63 20 52 52 26 288 119 63 4 9 78 113 137 202 236 294
0 0 0 0 0 0 3 0 0 0 0 0 0 0 0 0 0 0 0 0 0 0 0 0 6 0 6 21 26 29 123 135 88 103 24 15 25 121 146 154 93 23 81 2 172 182 172 277 237
0 0 0 0 0 0 3 0 0 0 1 0 0 0 0 0 0 0 0 0 2 0 0 0 3 42 63 40 31 67 269 129 191 141 0 6 16 186 173 93 273 83 10 103 192 262 167 259 193
0 0 0 0 0 5 2 2 2 5 4 17 27 0 2 0 0 0 0 0 1 0 0 15 4 32 93 63 61 180 163 231 194 22 9 0 0 134 215 167 119 240 68 86 128 172 227 250 205
0 0 0 18 9 11 3 20 22 23 0 10 1 8 5 0 0 0 0 3 0 0 0 124 20 35 64 158 46 157 8 16 17 33 36 3 27 52 135 203 59 305 120 154 169 145 140 209 175
0 0 0 2 13 6 7 13 6 0 0 0 0 0 0 0 0 0 0 17 0 0 0 44 32 68 279 346 333 414 305 238 73 133 61 36 51 87 209 130 140 246 270 209 134 140 80 139 138
0 0 0 7 14 18 15 4 0 0 10 7 12 0 0 12 3 4 19 47 0 0 0 41 23 260 539 493 240 313 498 137 210 128 95 72 82 87 200 331 132 121 451 444 202 223 135 103 46
0 0 1 16 8 7 10 0 0 0 0 0 0 0 0 47 31 17 30 67 4 0 0 8 164 400 549 258 301 116 72 168 128 24 84 68 146 130 135 236 179 214 306 259 257 162 128 69 200
0 0 12 20 1 3 0 0 0 0 0 7 0 0 0 51 51 26 69 78 0 0 0 21 201 411 513 397 372 264 147 80 46 1 72 41 22 160 214 202 237 217 176 156 250 217 152 27 95
0 3 12 5 1 0 0 0 0 0 1 0 0 0 3 51 64 60 69 43 0 0 0 60 162 204 394 443 190 95 106 105 60 0 22 28 108 102 213 207 337 359 145 472 598 390 251 185 225
0 8 1 1 0 0 0 0 0 0 0 0 0 19 77 74 67 55 34 23 0 0 0 36 70 39 51 227 156 183 72 39 20 0 0 72 89 139 156 249 332 574 528 538 575 472 268 188 367
0 0 0 0 0 0 3 0 1 0 0 0 0 40 157 97 73 40 35 4 0 0 0 2 12 0 4 4 107 78 88 106 0 0 5 90 45 128 201 296 237 334 616 526 487 238 287 614 450
0 0 0 0 0 0 0 11 4 0 0 0 0 154 318 141 56 41 27 0 0 0 0 0 0 0 0 0 43 8 145 117 189 79 96 126 158 124 161 237 325 380 403 327 291 227 273 247 178
0 0 0 0 0 0 0 14 33 0 0 0 115 246 355 141 42 20 1 0 0 0 0 0 0 0 0 0 1 0 89 104 60 186 276 44 151 128 3 131 235 392 344 261 490 343 327 223 18
0 0 0 0 0 0 1 5 35 0 0 131 205 365 272 73 4 1 0 0 0 0 0 0 0 0 0 0 0 0 4 23 69 141 99 85 102 197 161 119 156 368 437 341 400 244 195 125 20
0 0 0 0 0 0 10 17 0 0 0 0 310 285 105 0 1 0 0 0 0 0 0 0 0 0 0 0 0 0 2 1 57 75 136 134 4 79 146 202 183 232 208 452 84 35 43 1 0

GFSSGP_con_mlcape_015.txt.gz
CAPE
0 0 0 0 0 0 1 0 5 0 0 0 0 0 0 0 0 0 0 0 0 0 0 0 0 0 0 0 13 67 101 158 228 286 213 0 0 0 0 0 0 0 0 0 0 0 4 15 3
0 0 0 0 0 0 1 0 0 0 0 0 0 0 0 0 0 0 0 0 0 0 9 23 1 0 0 0 8 107 331 407 364 391 307 55 0 0 0 1 6 4 6 5 1 0 2 44 118
0 0 0 0 0 0 8 0 0 0 0 0 0 0 0 0 0 0 0 0 0 0 0 79 31 0 1 130 350 559 696 489 560 258 60 0 0 0 43 52 64 50 31 12 10 1 0 8 87
0 0 3 0 11 0 0 0 0 0 0 0 0 0 0 0 0 0 0 0 0 0 8 78 12 31 292 707 1053 963 866 719 501 135 27 0 0 3 57 39 3 41 51 37 20 3 2 8 108
0 0 0 0 1 0 0 0 0 0 0 0 0 0 0 0 0 0 0 0 0 0 0 0 0 0 0 0 0 114 270 110 53 30 18 0 0 8 46 67 58 25 9 40 64 49 1 136 167
0 0 0 0 0 2 0 0 0 0 0 0 0 0 0 0 0 0 0 0 0 0 0 0 0 0 0 0 0 0 0 0 0 0 0 0 0 0 1 4 5 3 0 1 41 144 16 126 133
0 0 0 0 0 0 0 0 0 0 0 0 0 0 0 0 0 0 0 0 0 0 0 0 0 0 0 0 0 0 0 0 0 0 0 0 0 0 0 2 7 12 13 2 37 274 46 100 76
0 0 0 0 0 0 2 0 0 0 0 0 0 0 0 0 0 0 0 0 0 0 0 0 0 0 0 0 0 0 0 0 0 0 0 0 0 0 0 0 0 8 20 90 350 352 134 105 55
1 0 0 0 0 0 0 0 0 0 0 0 0 0 0 0 0 0 0 0 0 0 0 0 0 0 0 0 0 0 0 0 0 0 0 0 0 0 0 0 10 89 247 247 445 497 293 247 75
8 0 0 0 0 0 0 0 0 0 0 0 0 0 0 0 0 0 0 0 0 0 0 0 0 0 0 0 0 0 0 3 0 0 0 0 0 0 0 0 3 91 249 465 549 530 279 252 43
0 0 0 0 0 0 0 0 0 0 0 0 0 0 0 0 0 0 0 0 0 0 0 0 0 0 0 0 0 0 0 0 0 0 0 0 0 0 0 0 0 17 79 280 497 407 475 390 69
9 0 0 0 0 0 0 0 0 0 0 0 0 0 0 0 0 0 0 0 0 0 0 0 0 0 6 25 5 0 0 0 0 0 0 0 0 0 0 0 0 0 30 189 293 303 300 101 39
2 0 0 0 0 0 0 0 0 0 0 0 0 0 0 0 0 0 0 0 0 0 0 0 0 17 80 56 2 0 0 0 0 0 0 7 0 3 0 0 0 0 11 92 213 265 188 21 8
0 0 0 1 1 0 0 0 0 0 0 0 0 0 0 0 0 0 0 0 0 0 0 0 9 45 24 1 0 0 0 0 0 0 0 6 9 4 0 0 1 0 0 64 125 181 178 108 22
0 0 0 0 0 0 0 0 0 0 0 0 0 0 0 0 0 0 0 0 0 0 0 0 0 4 0 1 0 0 0 0 0 3 13 37 27 21 0 7 15 0 0 3 147 94 140 169 97
0 0 0 0 0 0 0 0 0 0 0 0 0 0 0 0 0 0 0 0 0 0 0 2 9 0 1 0 0 0 0 16 19 10 20 23 33 19 25 57 67 12 0 1 129 120 129 185 112
0 0 0 0 0 0 0 0 0 0 0 0 0 0 0 0 0 0 0 0 0 0 0 0 6 0 42 3 0 0 64 54 20 0 0 0 0 0 46 62 42 57 0 0 18 11 85 160 125
0 0 0 0 0 0 0 0 0 0 0 0 0 0 4 0 0 0 0 0 0 0 0 0 0 0 20 1 54 25 65 4 4 14 0 0 0 0 60 100 62 42 1 0 0 50 104 149 110
0 0 0 0 0 0 0 0 0 0 0 0 22 11 0 0 0 0 0 0 0 0 0 5 61 0 19 135 56 184 51 1 12 31 11 2 0 0 16 105 83 74 8 3 49 70 97 86 67
0 0 0 0 0 2 0 0 1 17 1 20 0 0 0 0 0 0 0 0 0 0 0 57 16 26 163 323 126 284 46 68 30 31 50 28 14 3 6 112 80 37 15 85 99 102 98 42 134
0 0 0 0 0 0 0 0 0 0 3 0 0 0 0 0 0 0 0 0 0 0 0 7 19 98 393 151 187 69 1 19 22 8 21 28 51 35 80 74 44 49 29 51 120 72 55 66 104
0 0 0 0 0 0 0 0 0 0 0 0 0 0 0 0 0 0 6 0 0 0 0 14 29 236 375 140 210 141 3 0 10 0 19 29 60 64 70 51 73 43 38 51 78 81 55 40 142
0 0 0 0 0 0 0 0 0 0 0 0 0 0 0 0 0 0 16 3 0 0 0 0 61 282 295 232 194 20 0 21 0 0 0 5 5 90 113 173 105 107 97 93 121 52 45 38 59
0 0 0 0 1 0 0 0 0 0 0 0 0 0 0 0 0 1 16 0 0 0 0 8 75 256 288 127 136 33 0 0 0 0 1 21 58 100 177 141 191 143 100 73 99 42 10 8 8
0 0 0 0 0 0 0 0 0 0 0 0 0 0 0 0 0 2 19 4 0 0 0 4 29 10 56 60 44 10 0 0 0 0 0 12 42 80 126 127 206 219 93 124 71 21 12 19 23
0 0 0 0 0 0 0 0 0 0 0 0 0 7 12 0 0 1 5 0 0 0 0 0 2 0 8 54 16 17 0 5 0 0 54 12 42 93 145 198 156 171 233 237 103 78 84 79 121
0 0 0 0 0 0 0 0 1 0 0 0 0 36 2 0 0 0 0 0 0 0 0 0 0 0 0 4 0 9 38 33 41 55 47 58 72 119 171 154 176 196 209 188 178 115 84 112 150
0 0 4 0 0 0 0 0 0 0 0 0 7 44 13 0 0 0 0 0 0 0 0 0 0 0 0 0 0 0 34 43 128 78 44 62 18 43 136 241 245 285 205 223 160 94 67 96 64
0 0 3 0 0 0 0 0 0 0 0 0 49 93 59 0 0 0 0 0 0 0 0 0 0 0 0 0 0 0 0 28 66 43 21 50 74 63 114 152 137 148 184 179 135 71 31 22 0
0 0 0 0 0 0 0 0 0 0 1 15 138 112 55 0 0 0 0 0 0 0 0 0 0 0 0 0 0 0 0 14 32 44 14 11 44 100 114 182 153 127 76 57 65 45 31 15 3

GFSSGP_con_mlcape_018.txt.gz
CAPE
0 0 0 0 0 0 0 1 0 0 0 0 0 0 0 0 0 0 0 0 0 0 0 6 0 0 0 0 1 1 0 0 2 22 58 19 0 0 0 0 0 0 0 0 0 0 0 4 20
0 0 0 0 0 0 0 0 0 0 0 0 0 0 0 0 0 0 0 0 0 0 0 0 10 0 0 5 86 118 113 154 189 300 256 329 29 0 0 0 0 1 6 7 2 0 0 0 24
0 0 0 0 0 0 0 0 0 0 0 0 0 0 0 0 0 0 0 0 0 0 0 0 74 65 60 45 163 225 275 338 527 502 165 124 31 11 0 0 21 50 40 10 7 11 1 0 1
0 0 0 0 0 0 0 0 0 0 0 0 0 0 0 0 0 0 0 0 0 0 0 11 158 155 167 117 264 330 460 756 778 531 182 109 15 6 14 60 24 4 8 9 12 16 0 0 0
0 0 0 0 0 2 0 0 0 0 0 0 0 0 0 0 0 0 0 0 0 0 16 178 157 45 18 133 324 492 655 870 674 395 146 36 31 14 43 43 38 22 11 13 13 21 68 2 23
0 0 0 0 0 0 0 0 0 0 0 0 0 0 0 0 0 0 0 0 0 5 142 71 12 0 0 26 8 0 9 0 0 3 10 11 13 18 24 15 6 7 8 8 14 15 80 55 117
0 0 0 0 0 0 0 0 0 0 0 0 0 0 0 0 0 0 0 0 0 1 1 0 1 0 0 0 0 0 0 0 0 0 0 0 0 0 0 0 7 14 16 20 23 12 105 102 90
0 0 0 0 0 0 0 0 0 3 0 0 0 0 0 0 0 0 0 0 0 0 0 0 0 0 0 0 0 0 0 0 0 0 0 0 0 0 0 2 11 13 20 10 21 18 113 106 130
0 0 0 0 0 0 0 0 0 0 0 0 0 0 0 0 0 0 0 0 0 0 0 0 0 0 0 0 0 1 0 0 0 0 2 1 0 0 0 0 1 7 80 19 46 148 206 169 244
0 0 0 0 0 0 0 0 0 0 0 0 0 0 0 0 0 0 0 0 0 0 0 0 0 0 0 0 0 0 0 0 5 0 0 0 0 0 0 0 0 0 36 114 99 291 473 373 283
0 0 0 0 0 0 0 0 0 0 0 0 0 0 0 0 0 0 0 0 0 0 0 0 0 0 0 0 0 0 0 0 0 0 0 0 0 0 0 0 0 0 0 0 192 334 477 310 272
0 0 0 0 0 0 0 0 0 0 0 0 0 0 0 0 0 0 0 0 0 0 0 0 0 0 0 2 3 0 0 0 0 0 0 0 0 0 0 0 0 0 0 0 27 146 311 302 339
0 0 0 0 0 0 0 0 0 0 0 0 0 0 0 0 0 0 0 0 0 0 0 0 0 0 29 12 0 0 0 0 0 0 0 0 0 0 0 2 0 0 0 0 32 178 232 295 282
0 0 0 0 0 0 0 0 0 0 0 0 0 0 0 0 0 0 0 0 0 0 0 0 0 15 36 0 0 0 0 0 0 0 0 0 0 0 18 2 0 0 0 0 21 136 254 197 38
0 0 0 0 0 0 0 0 0 0 0 0 0 0 0 0 0 0 0 0 0 0 0 0 0 4 5 0 0 0 0 0 0 0 0 0 0 0 0 0 0 0 0 0 0 76 155 141 146
0 0 0 0 0 0 0 0 0 0 0 0 0 0 0 0 0 0 0 0 0 0 0 3 11 0 3 0 0 0 0 0 0 0 0 0 1 0 0 0 0 0 0 0 0 69 121 98 157
0 0 0 0 0 0 0 0 0 0 0 0 0 0 0 0 0 0 0 0 0 0 0 0 0 2 12 0 0 2 0 0 5 5 0 0 0 0 0 0 2 4 0 0 0 70 113 141 180
0 0 0 0 0 0 0 0 0 0 0 0 0 0 0 0 0 0 0 0 0 0 0 0 0 6 5 0 17 11 0 0 0 6 7 7 0 0 0 0 7 6 0 0 0 26 85 73 75
0 0 0 0 0 0 0 0 0 0 0 0 0 0 0 0 0 0 0 0 0 0 0 0 0 1 0 33 47 45 7 0 6 13 22 20 2 0 0 26 20 0 0 0 0 0 25 35 54
0 0 0 0 0 0 0 0 0 0 0 0 0 0 0 0 0 0 0 0 0 0 0 0 1 3 82 274 53 130 21 3 3 10 23 28 14 4 0 22 17 0 0 0 0 2 31 13 45
0 0 0 0 0 0 0 0 0 0 0 0 0 0 0 0 0 0 5 0 0 0 0 6 3 30 269 92 66 2 0 0 0 0 2 14 50 21 27 66 20 0 0 8 38 46 60 54 63
0 0 0 0 0 0 0 0 0 0 0 0 0 0 0 0 0 0 1 0 0 0 0 0 7 110 232 77 31 0 0 0 1 0 0 2 24 29 68 32 0 0 0 0 39 31 44 33 69
0 0 0 0 0 0 0 0 0 0 0 0 0 0 0 0 0 0 0 0 0 0 0 0 45 226 164 66 23 0 0 0 0 0 0 1 10 84 94 60 18 0 0 0 40 24 20 42 37
0 0 0 0 0 0 0 0 0 0 0 0 0 0 0 0 0 0 0 0 0 0 0 0 30 199 160 30 0 0 0 0 0 0 0 6 56 74 112 84 7 49 26 14 24 13 0 56 37
0 0 0 0 0 0 0 0 0 0 0 0 0 0 0 0 0 0 0 0 0 0 0 1 26 73 89 9 0 0 0 0 0 0 0 0 27 61 66 91 115 7 62 63 8 0 4 1 9
0 0 0 0 0 0 0 0 0 0 0 0 0 0 0 0 0 0 0 0 0 0 0 4 5 0 3 0 0 0 0 0 0 3 30 3 42 86 91 66 95 68 64 44 4 0 0 0 18
0 0 0 0 0 0 0 0 0 0 0 0 0 0 0 0 0 0 0 0 0 0 0 0 0 0 0 0 0 0 0 1 21 39 31 26 91 91 131 90 77 127 132 94 15 12 24 33 7
0 0 0 0 0 0 0 0 0 0 0 0 0 0 0 0 0 0 0 0 0 0 0 0 0 0 0 0 0 4 0 23 33 40 4 11 49 102 109 99 30 104 118 108 61 51 41 7 8
0 0 0 0 0 0 0 0 0 0 0 0 0 0 0 0 0 0 0 0 0 0 0 0 0 0 0 0 0 0 0 0 8 7 5 15 52 108 148 126 90 98 106 83 34 35 26 5 15
0 0 0 0 0 0 0 0 0 0 0 0 0 0 0 0 0 0 0 0 0 0 0 0 0 0 0 0 0 0 0 0 2 2 0 20 41 101 108 128 95 90 62 32 20 15 9 5 2

GFSSGP_con_mlcape_021.txt.gz
CAPE
0 0 0 0 0 0 0 0 0 0 0 0 0 0 0 0 0 0 0 21 0 0 0 29 10 0 0 0 0 0 0 0 0 0 0 0 0 0 0 0 0 0 0 0 0 0 0 0 2
0 0 0 0 0 0 0 0 0 0 0 0 0 0 0 0 0 0 0 9 2 0 0 0 0 0 0 0 0 0 0 1 2 1 23 46 63 10 0 0 1 4 4 7 4 0 1 0 0
0 0 0 0 0 0 0 0 0 0 0 0 0 0 0 0 0 0 0 0 0 0 0 0 9 0 0 48 45 46 59 92 208 308 329 144 178 54 0 0 0 7 24 15 10 13 4 2 0
0 0 0 0 0 0 0 0 0 0 0 0 0 0 0 0 0 0 0 0 0 0 0 0 25 46 141 160 87 114 206 264 410 518 599 239 154 97 57 58 45 61 45 19 16 13 26 5 0
0 0 0 0 0 0 0 0 0 0 0 0 0 0 0 0 0 0 0 0 0 0 1 19 133 221 264 212 104 136 186 146 630 748 626 379 211 101 42 37 49 77 50 17 21 21 29 68 37
0 0 0 0 0 0 0 0 0 0 0 0 0 0 0 0 0 0 0 0 0 0 9 56 324 320 324 295 329 455 319 457 928 615 276 153 72 66 57 44 28 19 25 26 39 44 47 62 59
0 0 0 0 0 0 0 0 0 0 0 0 0 0 0 0 0 0 0 0 0 0 20 128 421 423 356 299 498 367 400 409 56 27 0 0 1 2 0 0 2 7 21 32 57 35 36 35 61
0 0 0 0 0 0 0 0 0 0 0 0 0 0 0 0 0 0 0 0 0 0 77 197 197 295 258 292 313 94 71 11 11 0 0 0 0 10 13 5 5 9 4 10 22 23 9 63 71
0 0 0 0 0 0 0 0 0 0 0 0 0 0 0 0 0 0 0 0 0 0 14 21 2 25 12 10 22 96 92 73 5 0 0 0 0 0 0 0 0 2 20 63 49 24 54 87 100
0 0 0 0 0 0 0 0 0 0 0 0 0 0 0 0 0 0 0 0 0 0 0 0 0 0 0 0 0 0 7 17 22 21 0 0 0 0 0 0 0 2 6 27 90 75 123 160 131
0 0 0 0 0 0 0 0 0 0 0 0 0 0 0 0 0 0 0 0 0 0 0 0 0 0 0 0 0 0 4 0 0 0 0 0 0 0 0 0 0 0 0 0 0 7 141 173 136
0 0 0 0 0 0 0 0 0 0 0 0 0 0 0 0 0 0 0 0 0 0 0 0 0 0 0 0 0 0 0 0 0 0 0 0 0 0 0 0 0 0 0 0 0 0 54 183 182
0 0 0 0 0 0 0 0 0 0 0 0 0 0 0 0 0 0 0 0 0 0 0 0 0 0 0 0 0 0 0 0 0 0 0 0 0 0 0 0 0 0 0 0 0 0 6 96 130
0 0 0 0 0 0 0 0 0 0 0 0 0 0 0 0 0 0 0 0 0 0 0 0 0 0 0 0 0 2 0 0 0 0 0 0 0 0 0 1 2 0 0 0 0 0 35 117 80
0 0 0 0 0 0 0 0 0 0 0 0 0 0 0 0 0 0 0 0 0 0 0 0 0 0 12 0 0 0 0 0 0 0 0 0 0 0 0 0 0 0 0 0 0 0 25 69 132
0 0 0 0 0 0 0 0 0 0 0 0 0 0 0 0 0 0 0 0 0 0 0 0 2 8 0 0 1 0 0 0 0 0 0 0 0 0 0 0 0 0 0 0 0 0 12 113 110
0 0 0 0 0 0 0 0 0 0 0 0 0 0 0 0 0 0 0 0 0 0 0 0 0 0 0 0 0 0 0 0 0 0 0 0 0 0 0 0 0 0 0 0 0 0 29 67 114
0 0 0 0 0 0 0 0 0 0 0 0 0 0 0 0 0 0 0 0 0 0 0 0 0 0 0 0 0 0 0 0 0 0 0 1 4 0 0 0 0 0 0 0 0 0 31 97 127
0 0 0 0 0 0 0 0 0 0 0 0 0 0 0 0 0 0 0 0 0 0 0 0 0 0 0 3 28 37 54 0 0 0 0 15 14 0 0 0 0 0 0 0 0 0 40 60 67
0 0 0 0 0 0 0 0 0 0 0 0 0 0 0 0 0 0 0 0 0 1 0 0 0 0 18 161 12 71 13 0 0 0 0 5 21 6 2 0 9 0 0 0 0 0 15 23 35
0 0 0 0 0 0 0 0 0 0 0 0 0 0 0 0 0 0 0 0 0 0 0 0 0 4 185 32 6 3 0 0 0 0 0 0 18 27 17 0 0 1 0 0 0 0 4 25 7
0 0 0 0 0 0 0 0 0 0 0 0 0 0 0 0 0 0 0 0 0 0 0 0 0 69 107 52 9 0 0 0 0 0 0 0 12 33 21 47 16 0 0 0 0 0 19 26 18
0 0 0 0 0 0 0 0 0 0 0 0 0 0 0 0 0 0 0 0 0 0 0 0 4 137 71 59 4 0 0 0 0 0 0 0 1 27 49 0 0 0 0 7 0 0 1 9 25
0 0 0 0 0 0 0 0 0 0 0 0 0 0 0 0 0 0 0 0 0 0 0 0 30 92 65 37 0 0 0 0 0 0 0 0 5 21 29 23 1 0 3 0 0 0 1 5 25
0 0 0 0 0 0 0 0 0 0 0 0 0 0 0 0 0 0 0 0 0 0 0 0 10 73 59 10 0 0 0 0 0 0 7 0 13 11 14 33 4 6 8 0 0 0 0 8 3
0 0 0 0 0 0 0 0 0 0 0 0 0 0 0 0 0 0 0 0 0 0 0 0 2 2 11 0 0 0 0 0 0 18 23 6 25 14 0 48 46 7 15 10 0 0 0 4 5
0 0 0 0 0 0 0 0 0 0 0 0 0 0 0 0 0 0 0 0 0 0 0 0 0 0 0 0 0 0 0 0 33 24 7 27 57 62 20 4 47 59 75 1 0 0 0 0 0
0 0 0 0 0 0 0 0 0 0 0 0 0 0 0 0 0 0 0 0 0 0 0 0 0 0 0 0 0 0 0 10 17 1 13 7 36 44 44 13 17 75 58 4 0 0 0 0 3
0 0 0 0 0 0 0 0 0 0 0 0 0 0 0 0 0 0 0 0 0 0 0 0 0 0 0 0 0 0 0 0 0 0 1 2 43 51 34 15 1 24 43 19 5 0 3 8 0
0 0 0 0 0 0 0 0 0 0 0 0 0 0 0 0 0 0 0 0 0 0 0 0 0 0 0 0 0 0 0 0 0 0 0 2 24 41 52 30 20 18 16 18 7 0 0 0 0

GFSSGP_con_mlcape_024.txt.gz
CAPE
0 0 0 0 0 0 0 0 0 0 0 0 0 0 0 0 0 0 0 0 0 0 0 35 42 0 0 0 0 0 0 0 0 0 0 0 0 0 0 0 0 0 0 0 0 0 0 0 0
0 0 0 0 0 0 0 0 0 0 0 0 0 0 0 0 0 0 0 0 0 0 0 2 21 0 0 0 0 0 0 0 0 0 0 0 0 0 0 0 3 9 8 8 2 0 0 0 0
0 0 0 0 0 0 0 0 0 0 0 0 0 0 0 0 0 0 0 9 0 0 0 0 22 24 24 10 0 0 4 0 0 0 0 30 56 133 79 0 0 3 18 23 36 13 13 0 1
0 0 0 0 0 0 0 0 0 0 0 0 0 0 0 0 0 0 0 0 0 0 17 9 62 61 53 38 67 100 90 104 170 239 189 302 217 120 65 51 15 3 6 23 33 22 12 7 1
0 0 0 0 0 0 0 0 0 0 0 0 0 0 0 0 0 0 0 0 0 11 25 47 117 76 136 152 229 247 196 258 323 376 393 550 403 219 88 94 85 19 6 37 16 19 13 12 37
0 0 0 0 0 0 0 0 0 0 0 0 0 0 0 0 0 0 0 0 0 0 25 71 203 241 216 259 480 476 338 376 430 507 757 502 253 252 142 73 65 62 36 16 27 31 34 45 47
0 0 0 0 0 0 0 0 0 0 0 0 0 0 0 0 0 0 0 0 0 0 0 28 178 346 331 527 697 534 381 427 468 510 452 74 101 36 21 8 2 6 14 22 36 36 36 38 32
0 0 0 0 0 0 0 0 0 0 0 0 0 0 0 0 0 0 0 0 0 0 0 0 109 407 572 735 777 599 680 769 576 410 256 81 0 11 17 5 0 3 8 15 14 13 2 4 24
0 0 0 0 0 0 0 0 0 0 0 0 0 0 0 0 0 0 0 0 0 0 19 50 120 321 418 544 621 781 632 492 328 347 165 30 0 0 0 0 0 0 2 12 24 18 3 14 19
0 0 0 0 0 0 0 0 0 0 0 0 0 0 0 0 0 0 0 0 0 0 3 78 122 287 246 282 130 273 160 121 238 92 1 17 0 0 0 0 0 0 1 6 10 60 73 34 24
0 0 0 0 0 0 0 0 0 0 0 0 0 0 0 0 0 0 0 0 0 0 0 26 121 116 28 1 0 0 0 0 1 15 2 0 0 0 0 0 0 0 0 0 0 0 0 52 47
0 0 0 0 0 0 0 0 0 0 0 0 0 0 0 0 0 0 0 0 0 0 0 0 33 2 0 0 0 0 0 0 0 0 0 0 0 0 0 0 0 0 0 0 0 0 0 8 90
0 0 0 0 0 0 0 0 0 0 0 0 0 0 0 0 0 0 0 0 0 0 0 0 0 0 0 0 0 0 0 0 0 0 0 0 0 0 0 0 0 0 0 0 0 0 0 0 30
0 0 0 0 0 0 0 0 0 0 0 0 0 0 0 0 0 0 0 0 0 0 0 0 0 0 0 0 0 0 0 0 0 0 0 0 0 0 0 0 0 0 0 0 0 0 0 0 0
0 0 0 0 0 0 0 0 0 0 0 0 0 0 0 0 0 0 0 0 0 0 0 0 0 0 0 0 0 0 0 0 0 0 0 0 0 0 0 0 0 0 0 0 0 0 0 0 15
0 0 0 0 0 0 0 0 0 0 0 0 0 0 0 0 0 0 0 0 0 0 0 0 0 0 0 0 0 0 0 0 0 0 0 0 0 0 0 0 0 0 0 0 0 0 0 0 20
0 0 0 0 0 0 0 0 0 0 0 0 0 0 0 0 0 0 0 0 0 0 0 0 0 0 0 0 0 0 0 0 0 0 0 0 0 0 3 0 0 0 0 0 0 0 0 0 25
0 0 0 0 0 0 0 0 0 0 0 0 0 0 0 0 0 0 0 0 0 0 0 0 0 0 0 0 0 0 2 0 0 0 0 0 0 0 0 0 0 0 0 0 0 0 0 0 51
0 0 0 0 0 0 0 0 0 0 0 0 0 0 0 0 0 0 0 0 0 0 0 0 0 0 0 0 3 11 7 0 0 0 0 0 0 0 0 0 0 0 0 0 0 0 0 44 58
0 0 0 0 0 0 0 0 0 0 0 0 0 0 0 0 0 0 0 0 0 0 0 0 0 0 0 1 7 4 0 0 0 0 0 0 0 0 0 0 0 0 0 0 0 0 0 37 47
0 0 0 0 0 0 0 0 0 0 0 0 0 0 0 0 0 0 0 0 0 0 0 0 0 0 2 7 0 0 0 0 0 0 0 0 0 8 12 5 0 0 0 0 0 0 0 31 36
0 0 0 0 0 0 0 0 0 0 0 0 0 0 0 0 0 0 0 0 0 0 0 0 0 0 13 0 0 0 0 0 0 0 0 0 0 1 2 1 0 0 0 0 0 0 6 27 36
0 0 0 0 0 0 0 0 0 0 0 0 0 0 0 0 0 0 0 0 0 0 0 0 0 2 0 12 0 0 0 0 0 0 0 0 0 3 6 8 0 0 0 0 0 0 8 25 14
0 0 0 0 0 0 0 0 0 0 0 0 0 0 0 0 0 0 0 0 0 0 0 0 0 9 4 1 0 0 0 0 0 0 0 0 1 9 8 0 0 0 0 0 0 1 3 6 15
0 0 0 0 0 0 0 0 0 0 0 0 0 0 0 0 0 0 0 0 0 0 0 0 0 3 1 0 0 0 0 0 0 1 12 1 8 9 0 0 0 0 0 0 0 0 2 12 34
0 0 0 0 0 0 0 0 0 0 0 0 0 0 0 0 0 0 0 0 0 0 0 0 0 3 4 0 0 0 0 0 0 1 0 5 15 1 0 0 0 0 0 0 0 0 0 3 8
0 0 0 0 0 0 0 0 0 0 0 0 0 0 0 0 0 0 0 0 0 0 0 0 0 0 0 0 0 0 0 0 5 0 9 28 40 16 0 10 10 0 0 0 0 0 0 11 12
0 0 0 0 0 0 0 0 0 0 0 0 0 0 0 0 0 0 0 0 0 0 0 0 0 0 0 0 0 0 0 0 1 2 2 14 22 17 8 0 4 12 0 0 0 0 0 14 3
0 0 0 0 0 0 0 0 0 0 0 0 0 0 0 0 0 0 0 0 0 0 0 0 0 0 0 0 0 0 0 0 0 0 0 0 15 2 7 0 0 6 0 0 0 0 1 1 0
0 0 0 0 0 0 0 0 0 0 0 0 0 0 0 0 0 0 0 0 0 0 0 0 0 0 0 0 0 0 0 0 0 0 0 0 0 0 0 0 0 0 0 0 0 0 0 0 0

GFSSGP_con_mlcape_027.txt.gz
CAPE
0 0 0 0 0 0 0 0 0 0 0 0 0 0 0 0 0 0 0 0 0 0 0 37 45 0 0 0 0 0 0 0 0 0 0 0 0 0 0 0 0 0 0 0 0 0 0 0 0
0 0 0 0 0 0 0 0 0 0 0 0 0 0 0 0 0 0 0 0 0 0 0 7 33 0 0 0 0 0 0 0 0 0 0 0 0 0 0 0 1 1 0 0 0 0 1 1 1
0 0 0 0 0 0 0 0 0 0 0 0 0 0 0 0 0 0 0 0 0 0 2 118 40 0 0 1 28 28 4 0 0 0 0 0 0 0 4 23 12 0 2 0 0 0 12 9 4
0 0 0 0 0 0 0 0 0 0 0 0 0 0 0 0 0 0 0 12 0 0 41 131 39 12 27 13 33 37 20 0 0 72 90 62 88 179 261 227 114 64 25 12 1 95 5 0 4
0 0 0 0 0 0 0 0 0 0 0 0 0 0 0 0 0 0 0 50 0 0 12 181 90 112 125 69 110 108 59 112 196 229 311 297 398 492 316 261 153 143 97 47 10 55 15 0 7
0 0 0 0 0 0 0 0 0 0 0 0 0 0 0 0 0 0 0 26 57 33 20 213 246 280 251 179 273 333 296 330 365 369 529 552 661 598 379 264 173 127 126 94 52 40 29 28 15
0 0 0 0 0 0 0 0 0 0 0 0 0 0 0 0 0 0 0 30 35 149 76 251 396 463 395 341 452 505 491 505 581 599 705 881 505 321 305 86 22 6 2 4 11 37 79 62 59
0 0 0 0 0 0 0 0 0 0 0 0 0 0 0 0 0 0 0 22 15 114 189 249 420 711 716 660 696 603 676 629 632 727 909 929 413 243 34 16 0 1 0 3 2 8 29 33 36
0 0 0 0 0 0 0 0 0 0 0 0 0 0 0 0 0 0 0 6 10 68 126 214 298 559 750 734 857 962 866 830 843 1000 928 461 105 34 24 28 4 3 0 0 1 3 7 35 35
0 0 0 0 0 0 0 0 0 0 0 0 0 0 0 0 0 0 0 0 0 17 50 131 225 392 639 756 973 989 845 618 769 599 422 315 145 78 8 4 0 0 0 1 4 2 38 26 88
0 0 0 0 0 0 0 0 0 0 0 0 0 0 2 1 0 0 0 0 0 8 55 76 209 438 564 614 691 599 492 476 414 432 449 236 93 92 85 65 6 0 0 3 3 3 2 0 44
0 0 0 0 0 0 0 0 0 0 0 0 0 0 0 0 0 0 0 0 0 0 8 64 209 327 494 436 229 42 2 18 49 109 165 187 138 71 46 4 0 0 0 0 0 1 6 34 91
0 0 0 0 0 0 0 0 0 0 0 0 0 0 0 0 0 0 0 0 0 0 0 11 118 259 329 148 35 0 6 4 22 9 6 11 9 53 43 3 0 0 1 0 0 0 1 14 107
0 0 0 0 0 0 0 0 0 0 0 0 0 0 0 0 0 0 0 0 0 0 0 0 26 172 130 29 8 12 6 2 1 4 6 9 2 2 0 2 10 21 40 34 6 2 5 40 57
0 0 0 0 0 0 0 0 0 0 0 0 0 0 0 0 0 0 0 0 0 0 0 0 4 32 14 12 18 33 0 4 12 44 67 13 32 6 17 52 55 37 38 47 51 27 17 44 85
0 0 0 0 0 0 0 0 0 0 0 0 0 0 0 0 0 0 0 0 0 0 0 0 0 0 3 16 36 11 6 22 15 44 136 99 107 75 47 69 65 62 46 37 63 50 6 13 59
0 0 0 0 0 0 0 0 0 0 0 0 0 0 0 0 0 0 0 0 0 0 0 0 0 0 0 54 12 9 23 33 96 123 122 155 161 77 68 87 33 61 53 60 78 62 13 48 100
0 0 0 0 0 0 0 0 0 0 0 0 0 0 0 0 0 0 0 0 0 0 0 0 0 0 28 35 4 10 10 80 108 150 201 133 102 93 97 29 58 43 72 80 85 85 32 124 162
0 0 0 0 0 0 0 0 0 0 0 0 0 0 0 0 0 0 0 0 0 0 0 0 0 6 4 0 0 8 130 238 222 139 101 100 162 170 87 45 27 25 31 112 137 91 47 108 203
0 0 0 0 0 0 0 0 0 0 0 0 0 0 0 0 0 0 0 0 0 0 0 0 2 0 0 0 19 160 201 169 51 61 99 126 179 212 115 38 0 43 102 116 90 72 66 176 314
0 0 0 0 0 0 0 0 0 0 0 0 0 0 0 0 0 0 0 0 0 0 0 0 0 0 0 10 89 58 16 0 0 48 35 55 15 140 107 30 5 39 183 155 82 77 174 249 286
0 0 0 0 0 0 0 0 0 0 0 0 0 0 0 0 0 0 0 0 0 0 0 0 0 0 13 71 35 37 0 0 0 0 0 21 21 83 155 142 163 188 209 134 38 132 248 202 302
0 0 0 0 0 0 0 0 0 0 0 0 0 0 0 0 0 0 0 0 0 0 0 0 0 3 38 47 52 0 0 0 0 0 2 55 104 87 113 200 202 252 231 120 34 89 142 141 182
0 0 0 0 0 0 0 0 0 0 0 0 0 0 0 0 0 0 0 0 0 0 0 0 0 37 43 65 0 0 0 0 0 11 133 79 92 101 223 97 186 165 135 77 39 88 31 33 95
0 0 0 0 0 0 0 0 0 0 0 0 0 0 0 0 0 0 0 0 0 0 0 0 2 42 42 51 0 0 0 0 0 41 69 88 101 121 196 196 106 91 171 145 110 128 180 196 139
0 0 0 0 0 0 0 0 0 0 0 0 0 0 0 0 0 0 0 0 0 0 0 0 5 51 48 23 0 0 0 0 27 41 79 108 128 217 233 177 168 174 103 50 131 192 207 180 151
0 0 0 0 0 0 0 0 0 0 0 0 0 0 0 0 0 0 0 0 0 0 0 0 3 69 97 14 0 0 0 27 48 42 86 217 208 216 235 260 218 224 139 49 100 119 136 198 96
0 0 0 0 0 0 0 0 0 0 0 0 0 0 0 0 0 0 0 0 0 0 0 0 15 17 60 14 0 0 0 19 3 43 35 178 237 289 195 293 268 231 129 63 92 83 121 142 244
0 0 0 0 0 0 0 0 0 0 0 0 0 0 0 0 0 0 0 0 0 0 0 0 0 0 1 2 0 0 19 0 0 42 26 151 272 243 207 196 151 181 73 61 88 78 40 41 22
0 0 0 0 0 0 0 0 0 0 0 0 0 0 0 0 0 0 0 0 0 0 0 0 0 0 0 0 0 0 0 0 0 26 43 220 196 188 172 123 145 7 5 12 14 0 3 3 1

GFSSGP_con_mlcape_030.txt.gz
CAPE
0 0 0 0 0 0 0 5 0 0 0 0 0 0 0 0 0 0 0 37 56 0 34 87 12 0 0 0 0 0 0 0 0 0 0 0 0 0 0 0 0 0 0 0 0 0 0 0 0
0 0 0 0 0 0 1 49 0 0 0 0 0 0 0 0 0 0 0 33 35 0 40 103 70 0 0 0 0 0 0 0 0 0 0 0 0 0 0 0 0 0 0 0 0 0 2 2 0
0 0 0 0 21 3 42 1 5 0 0 0 0 0 0 0 0 0 11 53 47 0 48 166 120 13 0 0 0 0 0 0 0 0 0 0 0 0 0 8 16 5 1 0 0 0 1 50 46
0 0 0 0 0 0 35 3 0 0 0 0 0 0 0 0 0 0 12 65 24 2 46 182 173 18 2 0 0 9 22 16 15 19 19 39 41 42 117 133 213 186 18 1 0 0 7 149 0
0 0 0 0 0 0 0 0 0 0 0 0 0 0 0 0 0 0 14 71 4 21 32 257 255 84 68 12 0 25 68 114 91 55 115 212 231 289 425 515 400 291 189 174 86 7 22 51 27
0 0 0 0 0 0 0 0 0 0 0 0 0 0 0 0 0 0 0 111 27 29 77 275 603 268 171 140 60 66 100 155 147 127 255 318 455 668 691 630 395 294 243 205 203 126 93 41 51
0 0 0 0 0 0 0 0 0 0 0 0 0 0 0 0 0 0 0 42 134 78 110 303 637 552 430 430 361 246 231 244 251 356 413 508 638 939 711 384 292 125 64 77 86 121 113 79 105
0 0 0 0 0 0 0 0 0 0 0 0 0 0 0 16 0 0 0 0 113 132 156 182 512 580 622 671 859 559 440 449 546 624 744 761 933 819 411 227 19 11 27 9 20 40 50 50 60
0 0 0 0 0 0 0 0 0 0 0 0 0 0 0 0 0 8 21 28 25 60 172 155 330 422 581 572 708 943 941 985 986 881 812 739 387 172 201 117 38 71 17 6 1 3 10 24 0
0 0 0 0 0 0 0 0 0 0 0 0 0 0 0 1 22 37 44 26 36 82 103 162 310 456 598 439 563 1174 713 723 600 617 752 706 377 267 193 99 54 71 9 0 0 0 6 18 77
0 0 0 0 0 0 0 0 0 0 0 0 0 0 1 0 0 10 52 55 10 40 73 121 378 535 680 546 661 903 816 653 671 820 722 468 344 241 276 251 166 248 86 21 13 18 8 12 35
0 0 0 0 0 0 0 0 0 0 0 0 0 0 0 0 0 0 0 40 29 4 57 151 266 658 878 605 675 705 532 449 401 329 452 535 457 370 335 251 166 140 29 21 22 10 33 29 29
0 0 0 0 0 0 0 0 0 0 0 0 0 0 0 0 0 0 0 0 30 4 44 132 331 716 976 946 714 567 290 156 187 186 290 471 324 319 357 332 255 152 23 9 26 19 21 32 35
0 0 0 0 0 0 0 0 0 0 0 0 0 0 0 0 0 0 0 0 7 36 26 96 347 745 975 1044 677 431 306 186 267 111 258 477 403 348 392 329 295 155 43 59 61 34 34 35 31
0 0 0 0 0 0 0 0 0 0 0 0 0 0 0 0 0 0 0 0 6 43 24 74 286 695 955 836 593 325 236 254 135 187 512 535 562 423 431 310 291 222 177 200 189 38 56 65 61
0 0 0 0 0 0 0 0 0 0 0 0 0 0 0 0 0 0 0 0 0 21 31 55 108 503 776 561 405 223 229 222 162 330 464 613 637 668 510 318 242 178 222 308 254 47 49 23 67
0 0 0 0 0 0 0 0 0 0 0 0 0 0 0 0 0 0 0 0 0 4 17 4 33 339 534 417 298 311 333 233 231 413 485 484 628 567 449 309 215 370 200 180 128 73 68 79 93
0 0 0 0 3 0 0 0 0 0 0 0 0 0 0 0 0 0 0 0 0 0 0 0 3 193 336 354 314 266 209 177 338 488 449 518 664 537 371 389 395 257 147 167 137 87 156 103 118
0 0 0 0 0 0 0 0 0 0 0 0 0 0 0 0 0 0 0 0 0 0 0 0 46 264 226 231 152 142 75 172 438 478 568 532 540 407 320 414 329 208 174 141 89 168 177 156 226
0 0 0 0 0 0 0 0 0 0 0 0 0 0 0 0 0 0 0 0 0 0 0 37 142 310 208 177 129 95 204 379 409 445 480 493 518 346 423 339 269 171 66 121 159 194 181 135 367
0 0 0 0 0 0 0 0 0 0 0 0 0 0 0 0 0 0 0 0 0 0 38 78 220 275 196 222 237 486 458 324 249 322 350 489 426 321 410 296 254 9 103 178 259 280 175 251 425
0 0 0 0 0 0 0 0 0 0 0 0 0 0 0 0 0 0 0 0 0 15 33 141 199 259 273 258 225 255 102 54 145 73 209 273 306 311 335 349 201 167 216 280 306 274 274 409 414
0 0 0 0 0 0 0 0 0 0 0 0 0 0 0 0 0 0 0 0 0 4 46 138 197 117 270 349 291 236 91 130 112 61 272 483 465 329 282 304 338 262 363 404 256 204 360 453 581
0 0 0 0 0 0 0 0 0 0 0 0 0 0 0 0 0 0 0 0 0 6 37 110 100 261 324 442 422 230 291 164 195 271 354 366 428 366 349 328 352 409 409 291 267 333 422 456 586
0 0 0 0 0 0 0 0 0 0 0 0 0 0 0 0 0 0 0 0 0 0 29 60 157 250 351 374 308 231 287 320 377 295 294 372 394 389 326 379 367 427 445 311 258 325 353 94 503
0 0 0 0 0 0 0 0 0 0 0 0 0 0 0 0 6 8 8 13 5 4 21 33 157 153 234 244 266 244 362 259 224 296 362 282 431 356 413 446 425 466 452 458 493 549 604 634 505
0 0 0 0 0 0 0 0 0 0 0 0 0 0 0 1 2 20 26 18 0 14 47 111 91 63 119 178 210 315 311 345 254 399 470 523 458 281 405 430 414 421 386 404 515 488 545 597 406
0 0 0 0 0 0 0 0 0 0 0 0 0 0 0 24 15 14 13 12 10 36 104 92 6 68 143 194 124 193 301 248 163 361 304 409 469 237 342 377 439 383 375 374 452 464 553 524 373
0 0 0 0 0 0 0 0 0 0 0 0 0 0 16 20 18 6 0 15 28 57 86 0 23 98 163 137 86 145 270 158 148 275 198 430 439 313 178 285 326 306 368 367 387 365 384 383 507
0 0 0 0 0 0 0 0 0 0 0 0 1 82 50 16 11 0 0 8 27 65 8 0 16 11 58 32 10 81 210 86 181 228 283 351 377 259 95 175 243 199 264 352 334 152 157 232 281

GFSSGP_con_mlcape_033.txt.gz
CAPE
0 0 0 0 0 0 0 0 28 8 4 0 0 0 0 0 0 0 4 17 0 0 297 1 4 0 0 0 0 0 0 0 0 0 0 0 0 0 0 0 0 0 0 0 0 0 0 0 0
0 0 0 0 0 0 0 4 31 29 19 0 0 0 1 0 0 0 0 7 0 0 334 26 34 1 0 0 0 0 0 0 0 0 0 0 0 0 0 0 0 0 0 0 0 0 0 3 4
0 0 0 0 0 0 25 52 23 11 0 0 0 0 0 0 0 0 19 37 0 0 306 139 82 12 0 0 0 0 0 0 0 0 0 0 0 5 5 10 23 35 0 0 1 2 3 1 35
0 0 0 0 0 33 2 52 67 6 26 0 0 0 0 0 0 0 5 32 0 0 108 328 190 26 0 0 0 0 0 0 0 0 0 2 17 16 13 26 46 103 156 66 11 22 3 1 150
0 0 0 0 0 0 7 0 35 10 16 5 0 0 2 0 0 0 0 26 9 15 27 363 262 37 13 7 0 0 0 0 0 0 30 80 150 161 216 318 402 422 296 230 211 177 142 67 135
0 0 0 0 0 1 12 2 1 3 0 4 0 0 0 0 0 0 0 30 18 3 16 101 397 203 73 57 66 16 13 30 62 90 76 212 235 383 559 715 702 530 308 342 194 212 160 162 134
0 0 0 0 0 0 6 3 0 4 14 13 1 0 0 33 0 0 0 11 55 11 44 36 1026 569 257 220 217 148 58 78 154 145 167 290 333 570 803 969 689 390 252 103 65 88 112 130 109
0 0 0 0 0 0 0 0 0 6 13 13 1 0 1 55 4 10 7 11 26 80 53 77 304 1005 711 416 763 492 185 163 226 233 295 442 615 616 626 532 328 102 84 77 42 20 41 76 84
0 0 0 0 0 0 0 1 5 6 0 0 0 0 0 0 0 0 15 18 35 51 86 115 107 332 568 366 650 1009 766 456 498 476 556 673 357 325 597 688 414 284 185 82 45 22 4 0 16
0 0 0 0 0 0 7 3 2 3 3 0 0 0 5 7 9 1 0 0 13 86 94 107 169 238 417 351 499 1202 612 483 474 516 507 955 1015 523 413 392 231 165 127 67 26 1 0 0 0
0 0 0 2 2 2 3 18 5 3 5 10 1 0 2 0 0 0 0 0 0 9 68 94 301 373 524 489 450 950 951 639 771 772 979 1009 689 289 419 509 515 320 408 381 183 71 76 14 2
0 0 0 0 12 7 11 16 25 7 7 2 0 0 0 0 0 0 0 0 0 0 95 55 188 601 820 638 469 672 928 827 702 728 1019 977 607 538 662 528 424 466 339 370 124 14 27 23 17
0 0 0 0 0 4 10 2 1 2 0 0 0 0 0 0 0 0 0 0 0 0 0 27 175 772 1109 1164 608 735 848 618 595 485 474 617 475 557 642 590 605 444 466 276 103 19 61 25 21
0 0 0 0 0 1 5 0 0 0 0 0 0 0 0 0 0 0 0 0 0 0 2 40 217 869 1180 1333 1350 1058 1040 524 364 307 318 439 664 645 635 617 569 471 480 350 235 5 21 26 25
0 3 5 1 4 3 0 0 0 0 0 0 0 0 0 0 0 0 0 0 0 0 0 65 297 962 1339 1515 1483 1172 727 461 293 369 307 439 792 793 767 509 564 531 489 458 442 294 163 51 50
0 0 0 0 0 0 9 0 0 0 0 0 0 0 0 0 0 0 0 0 0 0 0 198 153 760 1296 1522 1497 985 461 475 261 285 333 697 889 880 715 670 614 502 540 514 380 149 165 79 31
0 0 0 0 0 7 21 0 0 0 0 0 0 0 0 0 0 0 0 0 0 0 57 261 344 538 1143 1485 1203 786 549 445 345 346 389 557 809 747 801 789 601 523 574 383 297 112 323 49 70
0 0 0 0 0 4 9 0 1 0 0 0 0 0 0 0 0 0 0 0 12 23 204 406 390 479 1134 1138 844 462 443 475 295 355 489 616 736 718 824 799 662 599 549 400 133 102 209 114 161
0 0 0 0 0 0 0 1 30 0 0 0 0 0 0 0 0 0 0 54 0 101 305 325 285 567 938 689 440 347 334 386 278 432 547 752 742 719 750 845 611 591 440 350 228 292 183 163 367
0 0 0 0 0 3 8 0 2 0 0 0 0 0 0 0 0 0 51 110 58 202 250 255 287 574 617 476 371 242 303 209 478 466 660 746 604 581 793 667 570 579 401 259 151 189 266 190 328
0 0 0 0 0 0 1 0 0 0 0 0 0 0 0 0 0 0 82 183 208 252 305 320 458 616 479 392 344 459 556 588 399 297 457 653 572 632 635 654 645 501 413 126 183 231 231 250 289
0 0 0 0 0 0 0 0 0 0 0 0 0 1 0 0 0 0 273 311 308 321 348 462 573 533 358 433 400 429 216 160 270 370 124 565 440 436 454 454 522 313 155 255 366 369 341 317 378
0 0 0 0 0 0 0 0 0 0 0 0 0 0 0 0 0 2 254 342 340 314 362 533 543 420 491 387 333 449 207 50 144 119 366 600 742 717 505 418 355 397 403 479 532 432 319 388 544
0 0 0 0 0 0 0 0 0 0 0 0 0 4 0 0 0 63 270 362 290 294 420 467 469 419 448 335 451 505 287 290 226 348 493 770 904 821 557 248 337 436 547 545 379 332 371 588 633
0 0 0 0 0 0 0 0 0 0 0 0 0 0 0 0 74 231 328 274 302 331 380 411 371 511 435 466 346 325 399 403 373 460 556 675 778 701 382 285 505 681 646 392 288 181 425 634 596
0 0 0 0 0 0 0 0 0 0 0 0 0 0 0 94 166 283 271 319 284 357 322 274 467 427 421 322 263 268 288 219 412 539 696 603 700 516 413 441 458 617 400 240 266 386 664 645 613
0 0 0 0 0 0 0 13 0 0 0 0 0 0 0 140 293 312 306 284 306 294 275 389 369 354 277 208 210 195 227 403 480 496 814 724 595 440 347 402 514 414 305 538 749 812 682 221 260
0 0 0 0 0 0 4 14 21 0 0 0 0 0 0 156 329 294 312 308 267 292 296 366 306 272 165 149 144 143 327 301 225 590 615 645 455 167 246 428 485 302 360 345 550 708 656 517 47
0 0 0 0 0 0 1 31 5 0 0 0 0 0 0 228 304 306 300 298 300 315 334 285 115 118 140 142 88 131 183 147 207 400 415 544 440 74 208 334 359 316 337 401 712 601 500 287 317
0 0 0 0 0 0 7 19 0 0 0 2 4 4 6 303 280 301 265 288 318 328 307 74 76 84 95 66 44 47 160 81 293 198 434 471 375 79 45 190 114 113 258 426 441 374 364 402 381

GFSSGP_con_mlcape_036.txt.gz
CAPE
0 0 0 0 0 0 0 0 0 66 6 0 0 0 0 0 0 0 0 0 25 187 2 0 0 0 0 0 0 0 0 0 0 0 0 0 0 0 0 0 0 0 0 0 0 0 0 0 0
0 0 0 0 0 0 0 0 16 0 0 0 0 0 0 1 0 0 0 0 15 272 57 0 0 0 0 0 0 0 0 0 0 0 0 0 0 0 0 0 0 0 0 0 0 0 0 2 1
0 0 0 0 0 0 0 3 26 0 0 0 0 0 0 0 0 0 33 1 18 446 166 31 0 0 0 0 0 0 0 0 0 0 0 0 0 0 0 0 0 0 0 20 14 13 3 1 8
0 0 0 0 0 19 39 18 56 1 1 0 0 0 0 0 0 0 0 0 0 147 369 152 0 0 0 0 0 0 0 0 0 0 0 0 0 0 0 0 0 9 21 69 109 81 63 14 15
0 0 0 0 0 0 0 6 26 5 0 0 3 0 0 0 0 0 0 0 0 0 228 327 129 0 6 11 0 0 0 0 0 14 20 12 0 7 54 99 176 248 307 203 173 186 216 119 121
0 0 0 0 0 0 0 1 0 6 0 0 2 0 1 1 0 0 0 19 1 0 16 483 220 39 21 29 32 7 14 0 6 26 35 24 45 152 253 336 524 626 436 273 333 190 200 203 192
0 0 0 0 0 0 0 7 0 0 0 10 6 0 0 1 17 14 2 11 24 13 0 567 392 277 44 91 139 72 56 41 32 49 67 70 178 299 397 442 703 772 380 343 141 81 97 138 216
0 0 0 0 0 0 0 0 0 0 0 0 0 0 0 18 11 8 0 19 48 74 42 294 588 489 396 246 303 359 180 113 84 107 122 166 268 346 279 165 605 480 283 184 78 54 32 59 143
0 0 0 0 0 0 0 0 0 0 0 0 0 0 0 0 0 0 0 0 0 35 134 160 612 1129 782 511 628 675 422 251 260 261 263 350 348 279 436 608 744 624 349 252 225 66 8 0 3
0 0 0 0 0 0 0 0 0 0 0 0 1 0 0 1 0 0 0 0 0 0 9 179 194 691 1101 683 490 781 624 637 567 461 435 397 482 607 696 372 945 569 413 295 177 114 72 4 0
0 0 0 0 0 0 0 0 0 0 1 2 11 17 1 0 0 0 0 0 0 0 0 8 237 244 723 580 500 1010 949 726 617 476 578 930 1064 1219 683 366 442 514 377 257 375 285 110 83 40
0 0 0 0 0 1 0 0 0 0 0 6 10 9 3 0 0 0 0 0 0 0 0 0 353 371 493 581 635 1243 1281 1016 746 736 973 1046 1255 860 440 479 631 486 486 569 437 238 195 157 138
0 0 0 0 0 0 1 0 0 0 0 0 0 0 0 1 0 0 0 0 0 0 0 0 453 339 618 712 691 953 1272 1210 1011 1143 1215 1273 1053 675 737 930 794 712 555 478 431 263 119 41 17
0 0 0 0 0 0 0 0 0 0 0 0 0 0 0 8 2 0 0 0 0 0 0 0 692 496 763 667 966 921 1028 1221 1108 950 931 889 745 596 717 896 767 665 639 476 351 283 112 60 13
0 0 0 0 0 0 6 0 0 0 0 0 0 0 1 2 0 0 0 0 0 0 0 90 387 922 1016 1257 1004 1839 1252 1112 772 488 564 670 641 713 973 930 837 626 487 459 326 196 72 56 5
0 0 0 0 0 0 11 0 0 0 0 0 0 0 6 10 0 0 0 0 0 0 0 159 88 1276 1376 1704 1465 1177 1270 1002 694 429 526 444 816 899 1057 976 710 591 639 508 332 266 235 44 53
0 0 0 0 0 0 2 0 0 0 0 0 0 0 0 0 0 0 0 0 0 1 3 100 300 1410 1628 1879 1895 1554 1287 685 481 508 458 708 821 994 981 728 760 779 588 284 325 189 101 2 75
0 0 0 0 0 0 1 1 0 2 8 5 6 0 0 0 0 0 0 0 12 88 142 442 622 1345 1598 1774 1725 1614 928 709 644 468 478 569 839 912 694 687 860 733 560 379 230 163 45 55 16
0 0 0 0 0 0 1 0 0 0 7 0 0 0 0 0 0 0 0 24 103 121 353 798 742 845 1513 1713 1496 1115 787 575 509 437 477 636 714 770 638 813 847 603 478 255 317 206 44 120 127
0 0 0 0 0 0 1 0 0 1 0 0 0 0 0 0 16 33 12 154 198 293 510 685 638 945 1448 1395 1090 694 505 517 489 418 608 649 757 710 687 818 761 532 419 207 226 158 96 123 159
0 0 0 0 0 0 0 0 0 0 0 3 0 0 0 0 0 0 24 260 344 437 525 566 715 1321 1141 930 713 764 464 644 582 529 467 778 643 605 865 764 612 505 396 135 124 159 122 187 141
0 0 0 0 0 0 0 0 0 0 0 0 0 0 0 0 0 1 32 427 472 507 557 622 905 1012 850 827 627 469 535 416 340 351 588 770 752 590 510 516 450 378 234 173 104 185 154 212 72
0 0 0 0 0 0 0 0 0 0 0 0 0 0 0 0 1 1 347 633 559 610 656 785 988 784 805 482 492 709 545 441 318 215 368 483 697 580 611 507 424 379 230 260 221 421 111 191 178
0 0 0 0 0 0 0 0 0 0 0 0 0 0 0 5 0 10 604 596 596 623 749 940 861 919 667 488 806 573 422 431 422 403 584 531 878 801 566 471 361 379 452 305 490 390 284 246 312
0 0 0 0 0 0 0 0 0 0 0 0 0 0 0 2 10 392 589 625 612 677 871 902 820 822 682 625 625 467 558 472 403 408 378 578 633 623 238 360 312 500 383 402 370 223 185 375 409
0 0 0 0 0 0 0 0 0 0 0 0 0 0 0 0 360 569 641 640 609 769 778 743 745 789 671 640 436 389 441 419 520 552 579 367 347 411 381 364 303 470 444 308 153 97 303 237 339
0 0 0 0 0 0 0 0 0 0 0 0 0 0 0 173 450 595 572 608 671 730 720 630 759 692 647 486 386 311 341 480 553 445 860 361 607 524 232 299 292 327 140 177 191 222 285 212 188
0 0 0 0 0 0 0 0 0 7 12 0 0 0 0 322 513 514 593 633 711 674 665 752 713 654 474 343 290 303 94 181 229 125 680 563 53 202 137 345 401 264 194 233 149 175 383 8 69
0 0 0 0 0 0 0 0 0 20 0 0 0 0 0 407 543 546 539 684 648 583 638 712 581 427 265 288 242 124 172 184 244 129 485 456 74 72 242 400 399 245 217 360 309 200 302 54 51
0 0 0 0 0 0 0 0 0 0 0 0 0 0 101 417 520 536 545 574 578 553 619 572 350 188 209 210 181 183 102 234 237 207 403 518 261 77 71 141 53 196 268 325 313 375 165 248 133

GFSSGP_con_mlcape_039.txt.gz
CAPE
0 0 0 0 0 0 0 0 0 0 0 0 0 0 0 0 0 0 0 25 0 0 0 0 0 0 0 0 0 0 0 0 0 0 0 0 0 0 0 0 0 0 0 0 0 0 0 0 0
0 0 0 0 0 0 0 0 14 0 2 0 0 0 0 0 0 0 0 11 0 0 0 0 0 0 0 0 0 0 0 0 0 0 0 0 0 0 0 0 0 0 0 0 0 0 0 0 0
0 0 0 0 0 0 0 10 5 1 0 0 0 0 0 0 0 0 0 112 17 0 0 0 0 0 0 0 0 0 0 0 0 0 0 0 0 0 0 0 0 0 0 0 3 2 0 0 0
0 0 0 0 0 0 0 0 27 0 0 0 0 0 0 0 0 3 10 52 30 0 0 0 0 0 0 0 0 0 0 0 0 0 0 0 0 0 0 0 0 0 25 36 59 64 71 54 7
0 0 0 0 0 0 0 0 9 5 2 1 8 0 0 0 0 3 0 41 0 75 0 0 0 0 0 0 0 0 0 0 0 0 0 0 0 0 2 33 44 107 168 225 175 168 204 236 184
0 0 0 0 0 0 0 0 28 14 22 0 0 0 0 0 0 0 0 0 14 12 14 0 0 0 0 8 4 0 0 0 0 1 0 0 0 4 49 117 183 323 441 385 274 263 201 192 170
0 0 0 0 0 0 0 0 0 0 0 0 0 0 0 0 0 0 13 0 0 17 0 94 14 0 0 3 22 2 1 18 13 23 27 39 39 67 146 189 249 421 711 559 349 252 112 106 148
0 0 0 0 0 0 0 0 0 0 0 0 0 0 0 0 0 7 0 0 0 49 77 88 110 11 0 27 59 40 22 44 57 82 85 84 112 166 255 224 224 373 716 509 307 91 45 38 62
0 0 0 0 0 0 0 0 0 0 0 0 0 0 0 0 12 11 1 0 13 21 137 130 161 143 2 15 90 113 86 68 110 169 202 201 234 229 200 214 289 436 655 411 231 149 145 27 31
1 0 0 0 0 0 0 0 0 0 0 0 0 0 0 0 0 0 0 0 0 0 114 209 189 152 123 110 108 232 310 294 342 305 238 372 225 155 147 397 635 848 829 637 323 362 219 122 2
0 0 0 0 0 0 0 0 0 0 0 0 0 0 0 0 0 0 0 0 0 0 0 258 326 271 261 263 265 307 254 335 412 265 218 329 197 167 452 509 592 786 986 704 448 385 335 122 4
0 0 0 0 0 0 0 0 0 0 0 0 0 0 0 0 0 0 0 0 0 0 0 0 276 503 465 445 350 484 312 331 281 233 222 247 300 481 677 614 462 554 604 341 198 300 200 96 35
0 0 0 0 0 0 0 0 0 0 0 0 0 0 0 0 0 0 0 0 0 0 0 0 4 289 654 400 440 639 609 593 479 441 369 375 625 713 729 522 282 445 384 290 316 366 228 41 30
0 0 0 0 0 0 0 0 0 0 0 0 0 0 0 0 0 0 0 0 0 0 0 0 1 105 479 434 460 654 806 802 677 689 626 706 783 883 710 516 677 600 429 397 333 269 130 13 6
0 0 0 0 0 0 0 0 0 0 0 0 0 0 0 0 0 0 0 0 0 0 0 0 57 258 419 455 500 722 872 972 941 797 893 1038 1071 790 548 540 600 605 469 416 235 79 46 5 7
0 0 0 0 0 0 0 0 0 0 0 0 0 0 0 0 0 0 0 0 0 0 0 0 238 426 600 538 1200 977 1010 1039 883 738 874 903 686 456 419 518 554 512 448 430 302 196 95 30 17
0 0 0 0 0 0 0 0 0 0 0 0 0 0 0 0 0 0 0 0 0 0 0 6 400 427 747 947 959 1298 1156 821 475 261 269 433 353 434 524 638 629 559 473 408 294 120 66 26 4
0 0 0 0 0 0 0 0 0 0 0 0 0 0 0 0 0 0 0 0 1 25 77 131 555 796 1256 1398 1326 1128 1017 718 413 332 248 297 383 483 611 651 586 585 588 457 259 102 95 37 1
0 0 0 0 0 0 0 0 0 0 0 0 0 0 0 0 0 0 0 0 16 107 137 484 725 1157 1417 1429 1381 1166 926 527 388 294 205 396 500 653 773 590 496 555 501 327 166 104 88 21 26
0 0 0 0 0 0 0 0 0 0 0 0 0 0 0 0 0 0 0 16 17 133 297 541 1005 1347 1445 1413 1253 1135 869 492 320 262 264 313 538 557 568 524 567 479 377 244 174 102 54 9 66
0 0 0 0 0 0 0 0 0 0 0 0 0 0 0 0 0 0 0 16 100 205 363 474 743 1367 1412 1327 1033 793 561 400 309 347 322 503 536 581 545 566 531 250 302 183 143 120 35 12 32
0 0 0 0 0 0 0 0 0 0 0 0 0 0 0 0 0 0 0 51 215 325 426 525 947 1124 1041 965 724 558 405 453 342 295 342 547 540 477 501 564 468 319 252 160 86 142 49 30 35
0 0 0 0 0 0 0 0 0 0 0 0 0 0 0 0 0 0 0 198 384 424 524 764 989 955 856 548 515 379 240 224 151 177 221 323 466 465 491 427 359 287 289 159 147 90 111 109 51
0 0 0 0 0 0 0 0 0 0 0 0 0 0 0 0 0 1 243 424 472 583 686 767 728 666 742 624 394 296 199 257 172 155 236 254 390 253 360 438 376 309 313 206 149 166 153 65 86
0 0 0 0 0 0 0 0 0 0 0 0 0 0 0 0 0 183 312 465 559 668 761 727 564 756 460 670 482 372 280 178 173 224 166 246 303 243 313 273 272 222 271 231 206 104 123 97 160
0 0 0 0 0 0 0 0 0 0 0 0 0 0 0 0 44 292 461 510 618 775 813 612 793 607 419 507 306 260 232 5 98 337 244 278 146 96 61 166 51 199 126 250 85 56 15 164 208
0 0 0 0 0 0 0 0 0 0 0 0 0 0 0 53 241 378 467 546 702 803 722 686 710 569 516 396 241 169 178 359 227 149 396 238 232 309 167 123 67 113 148 42 4 13 55 97 96
0 0 0 0 0 0 0 0 0 0 0 0 0 0 12 263 402 449 446 629 723 712 692 675 672 555 540 298 179 121 108 106 108 37 146 134 173 174 83 77 121 126 220 111 46 26 35 13 44
0 0 0 0 0 0 0 0 0 0 2 0 0 0 226 367 408 397 489 647 665 635 619 695 634 554 391 193 120 95 46 56 45 107 315 34 4 4 54 162 127 21 7 100 71 43 21 0 2
0 0 0 0 0 0 0 0 0 0 0 0 0 0 346 386 427 393 534 618 581 594 642 643 579 335 223 139 87 28 96 157 80 209 221 1 28 13 53 39 86 112 136 134 59 41 31 17 8

GFSSGP_con_mlcape_042.txt.gz
CAPE
0 0 0 0 0 0 0 0 0 0 0 0 0 0 0 0 0 0 0 2 11 0 0 0 0 0 0 0 0 0 0 0 0 0 0 0 0 0 0 0 0 0 0 0 0 0 0 0 0
0 0 0 0 0 0 0 0 0 0 0 0 0 0 0 0 0 0 0 34 0 0 0 0 0 0 0 0 0 0 0 0 0 0 0 0 0 0 0 0 0 0 0 0 0 0 0 0 0
0 0 0 0 0 0 0 0 7 7 12 0 0 0 0 0 0 0 0 32 0 0 0 0 0 0 0 0 0 0 0 0 0 0 0 0 0 0 0 0 0 0 0 0 0 0 0 0 0
0 0 0 0 0 0 0 0 0 15 0 0 4 0 0 0 0 0 27 0 0 0 0 0 0 0 0 0 0 0 0 0 0 0 0 0 0 0 0 0 0 0 0 33 75 96 86 81 66
0 0 0 0 0 0 0 0 0 0 0 0 0 0 0 0 0 27 35 1 0 0 0 0 0 0 0 0 0 0 0 0 0 0 0 0 0 0 0 9 33 64 95 127 167 158 227 258 284
0 0 0 0 0 0 0 0 0 7 0 0 0 1 0 0 10 38 76 7 0 0 0 0 0 0 0 0 0 0 0 0 0 0 0 0 0 8 29 36 52 102 203 317 326 290 265 272 199
0 0 0 0 0 0 0 0 0 0 2 0 0 0 0 0 0 31 53 22 0 0 0 0 0 0 0 0 0 0 0 0 0 2 16 19 39 55 61 76 98 156 311 541 478 400 346 211 131
0 0 0 0 0 0 0 0 0 0 0 0 0 0 0 0 0 0 1 11 21 3 0 0 0 0 0 0 0 0 0 0 0 15 55 73 88 86 89 110 161 185 369 608 545 420 291 108 93
0 0 0 0 0 0 0 0 0 0 0 0 0 0 0 0 0 0 0 0 10 40 51 100 5 0 0 0 4 1 0 0 5 41 76 109 184 137 169 218 208 357 390 558 540 418 290 199 177
0 0 0 0 0 0 0 0 0 0 0 0 0 0 0 0 0 1 0 0 0 15 89 165 127 27 0 0 0 22 13 16 43 72 95 182 157 131 167 262 374 507 545 659 681 469 382 415 174
0 0 0 0 0 0 0 0 0 0 0 0 0 0 0 0 0 0 0 0 0 0 2 159 162 134 58 0 4 111 85 42 74 115 88 223 168 147 167 153 294 632 917 900 891 637 488 299 150
0 0 0 0 0 0 0 0 0 0 0 0 0 0 0 0 0 0 0 0 0 0 0 36 198 205 171 63 41 67 89 83 92 166 156 109 105 78 65 98 372 526 767 800 683 503 271 231 189
0 0 0 0 0 0 0 0 0 0 0 0 0 0 0 0 0 0 0 0 0 0 0 0 86 159 203 143 152 162 172 92 104 252 198 127 70 52 52 267 539 484 530 576 552 306 183 190 94
0 0 0 0 0 0 0 0 0 0 0 0 0 0 0 0 0 0 0 0 0 0 0 0 4 56 259 232 220 263 300 224 155 197 164 158 107 94 215 623 455 290 318 403 338 224 211 260 82
0 0 0 0 0 0 0 0 0 0 0 0 0 0 0 0 0 0 0 0 0 0 0 0 0 39 215 276 275 396 457 449 342 263 281 303 310 202 476 625 468 407 440 334 293 291 155 160 26
0 0 0 0 0 0 0 0 0 0 0 0 0 0 0 0 0 0 0 0 0 0 0 0 0 6 140 287 286 544 626 636 560 506 549 704 582 473 673 658 409 428 371 328 266 121 108 77 17
0 0 0 0 0 0 0 0 0 0 0 0 0 0 0 0 0 0 0 0 0 0 0 0 10 35 122 279 398 587 673 735 612 631 818 834 755 707 796 482 358 375 375 318 269 238 160 90 41
0 0 0 0 0 0 0 0 0 0 0 0 0 0 0 0 0 0 0 0 0 0 0 0 38 197 391 542 764 702 683 683 663 783 830 790 813 785 333 339 441 371 380 364 308 243 124 80 23
0 0 0 0 0 0 0 0 0 0 0 0 0 0 0 0 0 0 0 0 0 0 15 9 130 484 652 742 1011 848 746 372 250 196 260 295 396 220 286 365 457 386 427 431 218 145 107 51 55
0 0 0 0 0 0 0 0 0 0 0 0 0 0 0 0 0 0 0 0 0 3 64 151 391 686 968 1017 904 761 595 358 284 163 155 156 269 334 383 511 570 456 449 278 137 114 71 56 33
0 0 0 0 0 0 0 0 0 0 0 0 0 0 0 0 0 0 0 0 5 43 111 343 698 933 1190 1295 1086 783 544 403 395 279 156 190 372 443 550 476 350 290 304 180 137 129 53 38 1
0 0 0 0 0 0 0 0 0 0 0 0 0 0 0 0 0 0 0 0 10 112 369 735 908 1275 1339 1205 1098 1006 842 695 433 266 235 273 420 452 476 368 272 192 208 215 139 116 57 11 2
0 0 0 0 0 0 0 0 0 0 0 0 0 0 0 0 0 0 0 0 64 291 397 736 1044 1282 1183 1033 850 682 460 342 253 249 325 420 359 390 448 365 244 237 239 163 128 71 59 16 0
0 0 0 0 0 0 0 0 0 0 0 0 0 0 0 0 0 0 0 38 219 417 516 680 871 966 913 682 491 362 387 207 172 204 191 216 241 260 270 325 177 178 161 134 61 71 38 30 11
0 0 0 0 0 0 0 0 0 0 0 0 0 0 0 0 0 0 0 78 334 501 612 747 813 706 525 420 284 225 138 133 132 138 137 187 159 75 98 171 148 54 56 110 82 30 50 28 10
0 0 0 0 0 0 0 0 0 0 0 0 0 0 0 0 0 0 39 271 438 541 569 642 609 548 529 302 222 157 102 75 106 38 77 96 56 8 13 34 14 2 24 7 0 0 1 7 28
0 0 0 0 0 0 0 0 0 0 0 0 0 0 0 0 0 43 214 383 518 571 542 493 497 454 322 236 190 128 76 6 79 80 98 85 20 0 18 0 0 0 2 2 0 0 0 54 52
0 0 0 0 0 0 0 0 0 0 0 0 0 0 0 0 83 189 301 475 561 552 456 516 431 376 254 187 85 13 26 165 111 67 47 11 28 12 0 1 0 2 0 0 0 0 26 34 29
0 0 0 0 0 0 0 0 0 0 0 0 0 0 0 38 146 235 402 503 532 469 502 502 350 316 213 91 20 15 10 17 0 11 50 15 8 0 0 1 4 1 12 0 5 0 0 1 12
0 0 0 0 0 0 0 0 0 0 0 0 0 0 25 145 240 363 425 496 488 435 488 414 302 335 161 49 17 35 0 0 9 68 75 0 0 0 13 56 1 0 1 58 0 4 0 0 7

GFSSGP_con_mlcape_045.txt.gz
CAPE
0 0 0 0 0 0 0 0 0 0 0 0 0 0 0 0 0 0 0 0 0 0 0 0 0 0 0 0 0 0 0 0 0 0 0 0 0 0 0 0 0 0 0 0 0 0 0 0 0
0 0 0 0 0 0 0 0 0 0 0 0 0 0 0 0 0 0 0 0 10 0 0 0 0 0 0 0 0 0 0 0 0 0 0 0 0 0 0 0 0 0 0 0 0 0 0 0 0
0 0 0 0 0 0 0 0 0 0 0 0 0 0 0 0 0 0 0 0 0 0 0 0 0 0 0 0 0 0 0 0 0 0 0 0 0 0 0 0 0 0 0 0 0 0 0 0 0
0 0 0 0 0 0 0 0 0 0 0 0 0 0 0 0 0 0 0 0 0 0 0 0 0 0 0 0 0 0 0 0 0 0 0 0 0 0 0 0 0 0 0 22 70 100 87 82 75
0 0 0 0 0 0 0 0 0 0 0 0 0 0 0 0 0 0 0 0 0 0 0 0 0 0 0 0 0 0 0 0 0 0 0 0 0 0 0 2 12 18 32 87 171 219 273 368 329
0 0 0 0 0 0 0 0 0 0 0 0 0 0 0 0 0 1 4 0 0 0 0 0 0 0 0 0 0 0 0 0 0 0 0 0 10 5 15 42 74 120 160 222 274 343 319 292 312
0 0 0 0 0 0 0 0 0 0 0 0 0 0 0 0 0 21 7 0 0 0 0 0 0 0 0 0 0 0 0 0 0 0 0 0 18 35 45 81 97 135 204 383 524 485 414 379 344
0 0 0 0 0 0 0 0 0 0 0 0 0 0 0 0 3 29 40 23 0 0 0 0 0 0 0 0 0 0 0 0 0 0 0 12 38 56 75 106 115 158 307 448 712 673 422 417 272
0 0 0 0 0 0 0 0 0 0 0 0 0 0 0 0 0 0 2 5 17 4 0 0 0 0 0 0 1 0 0 0 0 0 17 28 68 96 96 175 150 260 372 520 684 715 433 452 303
0 0 0 0 0 0 0 0 0 0 0 0 0 0 0 0 0 0 0 2 0 9 14 1 0 0 0 0 0 47 0 12 13 21 25 77 70 50 85 121 288 309 362 563 684 791 570 547 299
0 0 0 0 0 0 0 0 0 0 0 0 0 0 0 0 0 0 0 0 0 1 54 103 45 9 0 0 0 6 21 17 20 0 11 127 81 83 195 148 227 420 610 758 862 945 673 425 284
0 0 0 0 0 0 0 0 0 0 0 0 0 0 0 0 0 0 0 0 0 0 0 35 87 57 26 0 0 1 55 22 4 3 26 10 31 27 43 65 58 86 394 690 761 710 597 400 250
0 0 0 0 0 0 0 0 0 0 0 0 0 0 0 0 0 0 0 0 0 0 0 0 39 71 109 45 18 22 44 43 23 53 93 56 23 9 23 37 31 51 285 622 708 659 594 330 143
0 0 0 0 0 0 0 0 0 0 0 0 0 0 0 0 0 0 0 0 0 0 0 0 1 36 140 175 153 140 139 156 109 118 144 163 59 4 0 1 3 64 444 462 469 539 473 206 130
0 0 0 0 0 0 0 0 0 0 0 0 0 0 0 0 0 0 0 0 0 0 0 0 0 31 106 156 214 233 230 236 215 213 244 218 148 8 0 0 0 310 353 241 354 409 299 175 151
0 0 0 0 0 0 0 0 0 0 0 0 0 0 0 0 0 0 0 0 0 0 0 0 0 1 54 129 215 248 319 318 303 286 309 276 221 132 68 26 56 431 280 292 351 256 163 212 169
0 0 0 0 0 0 0 0 0 0 0 0 0 0 0 0 0 0 0 0 0 0 0 0 0 0 31 119 241 319 408 458 445 391 395 324 301 286 146 121 298 288 277 309 296 273 108 120 65
0 0 0 0 0 0 0 0 0 0 0 0 0 0 0 0 0 0 0 0 0 0 0 0 0 0 7 100 281 385 507 546 556 602 595 602 608 582 348 345 431 258 275 299 231 258 147 128 75
0 0 0 0 0 0 0 0 0 0 0 0 0 0 0 0 0 0 0 0 0 0 0 0 0 8 54 151 294 415 554 597 620 673 758 757 804 676 545 598 397 244 319 264 202 217 186 106 65
0 0 0 0 0 0 0 0 0 0 0 0 0 0 0 0 0 0 0 0 0 0 0 0 0 46 192 378 391 500 490 498 664 677 857 893 789 697 771 299 188 294 360 325 244 136 75 59 46
0 0 0 0 0 0 0 0 0 0 0 0 0 0 0 0 0 0 0 0 0 0 0 3 46 209 522 650 633 496 319 284 285 242 396 297 341 702 205 174 302 347 319 239 134 82 43 40 9
0 0 0 0 0 0 0 0 0 0 0 0 0 0 0 0 0 0 0 0 0 0 0 220 367 668 776 753 768 693 608 572 253 154 117 136 167 262 261 336 278 208 180 170 136 93 72 5 18
0 0 0 0 0 0 0 0 0 0 0 0 0 0 0 0 0 0 0 0 0 0 81 442 745 912 914 930 876 742 646 389 200 152 145 142 232 346 386 372 215 155 76 95 120 51 30 13 0
0 0 0 0 0 0 0 0 0 0 0 0 0 0 0 0 0 0 0 0 0 16 417 665 845 922 971 950 829 760 674 476 289 201 204 211 222 227 273 266 157 50 32 16 8 7 5 0 0
0 0 0 0 0 0 0 0 0 0 0 0 0 0 0 0 0 0 0 0 0 114 496 653 863 896 791 717 571 412 250 228 249 210 222 253 178 112 127 91 87 3 0 2 0 0 0 0 0
0 0 0 0 0 0 0 0 0 0 0 0 0 0 0 0 0 0 0 0 11 284 444 570 811 738 555 304 142 87 95 94 86 80 79 66 31 3 0 23 19 0 0 0 0 0 0 0 0
0 0 0 0 0 0 0 0 0 0 0 0 0 0 0 0 0 0 0 11 161 358 438 531 554 364 209 104 10 7 18 47 46 27 38 15 3 0 0 0 0 0 0 0 0 0 0 0 1
0 0 0 0 0 0 0 0 0 0 0 0 0 0 0 0 0 0 0 130 282 372 437 413 352 216 98 47 21 11 0 8 22 21 21 3 0 0 0 0 0 0 0 0 0 0 0 11 16
0 0 0 0 0 0 0 0 0 0 0 0 0 0 0 0 0 0 100 297 290 317 331 296 213 135 68 24 0 0 35 24 6 0 1 0 0 0 0 0 0 0 0 0 0 0 0 0 4
0 0 0 0 0 0 0 0 0 0 0 0 0 0 0 0 0 108 294 346 338 319 266 237 134 115 47 0 0 0 9 0 0 3 0 0 0 0 0 0 0 0 0 0 2 0 0 0 11

GFSSGP_con_mlcape_048.txt.gz
CAPE
0 0 0 0 0 0 0 0 0 0 0 0 0 0 0 0 0 0 0 0 0 0 0 0 0 0 0 0 0 0 0 0 0 0 0 0 0 0 0 0 0 0 0 0 0 0 0 0 0
0 0 0 0 0 0 0 0 0 0 0 0 0 0 0 0 0 0 0 0 0 0 0 0 0 0 0 0 0 0 0 0 0 0 0 0 0 0 0 0 0 0 0 0 0 0 0 0 0
0 0 0 0 0 0 0 0 0 0 0 0 0 0 0 0 0 0 0 0 0 0 0 0 0 0 0 0 0 0 0 0 0 0 0 0 0 0 0 0 0 0 0 0 0 0 0 0 0
0 0 0 0 0 0 0 0 0 0 0 0 0 0 0 0 0 0 0 0 0 0 0 0 0 0 0 0 0 0 0 0 0 0 0 0 0 0 0 0 0 0 9 12 43 70 73 82 62
0 0 0 0 0 0 0 0 0 0 0 0 0 0 0 0 0 0 0 0 0 0 0 0 0 0 0 0 0 0 0 0 0 0 0 0 0 0 0 0 2 21 48 72 114 218 254 317 305
0 0 0 0 0 0 0 0 0 0 0 0 0 0 0 0 0 0 0 0 0 0 0 0 0 0 0 0 0 0 0 0 0 0 0 0 0 0 4 19 57 82 108 147 270 299 350 368 306
0 0 0 0 0 0 0 0 0 0 0 0 0 0 0 0 0 0 0 0 0 0 0 0 0 0 0 0 0 0 0 0 0 0 0 3 8 9 15 40 79 147 248 277 381 467 469 384 300
0 0 0 0 0 0 0 0 0 0 0 0 0 0 0 0 0 0 0 0 0 0 0 0 0 0 0 0 0 0 0 0 0 0 0 9 8 8 32 49 84 154 245 340 528 688 615 527 342
0 0 0 0 0 0 0 0 0 0 0 0 0 0 0 0 0 0 0 0 0 0 0 0 0 0 0 0 16 29 8 1 0 0 2 16 15 15 38 80 74 142 203 392 618 800 744 582 467
0 0 0 0 0 0 0 0 0 0 0 0 0 0 0 0 0 0 0 0 0 1 4 0 0 0 0 0 0 71 73 92 43 10 76 48 6 0 22 88 129 119 299 401 593 822 902 665 399
0 0 0 0 0 0 0 0 0 0 0 0 0 0 0 0 0 0 0 0 0 0 10 12 0 0 0 0 0 0 87 73 79 56 44 92 26 0 134 90 231 271 381 402 673 858 957 640 357
0 0 0 0 0 0 0 0 0 0 0 0 0 0 0 0 0 0 0 0 0 0 0 12 60 27 1 0 0 0 18 67 64 59 84 14 14 0 0 30 20 67 252 332 536 621 736 725 421
0 0 0 0 0 0 0 0 0 0 0 0 0 0 0 0 0 0 0 0 0 0 0 0 9 35 55 24 0 0 2 41 35 58 80 47 17 0 0 9 1 5 49 108 439 588 646 636 462
0 0 0 0 0 0 0 0 0 0 0 0 0 0 0 0 0 0 0 0 0 0 0 0 0 0 20 24 34 46 18 43 26 39 59 76 59 1 0 0 0 0 0 14 343 566 646 594 463
0 0 0 0 0 0 0 0 0 0 0 0 0 0 0 0 0 0 0 0 0 0 0 0 0 0 0 11 43 48 46 53 64 76 110 122 102 34 0 0 0 0 0 1 366 427 415 454 374
0 0 0 0 0 0 0 0 0 0 0 0 0 0 0 0 0 0 0 0 0 0 0 0 0 0 0 1 59 96 89 130 137 162 211 234 171 107 13 0 0 0 0 36 341 245 356 396 188
0 0 0 0 0 0 0 0 0 0 0 0 0 0 0 0 0 0 0 0 0 0 0 0 0 0 0 3 61 128 166 217 227 245 293 328 308 178 72 10 0 0 8 343 248 249 350 222 55
0 0 0 0 0 0 0 0 0 0 0 0 0 0 0 0 0 0 0 0 0 0 0 0 0 0 0 0 76 159 243 300 310 320 354 391 401 324 181 137 71 13 176 290 226 289 184 237 124
0 0 0 0 0 0 0 0 0 0 0 0 0 0 0 0 0 0 0 0 0 0 0 0 0 0 0 0 28 79 219 310 400 439 487 510 473 350 292 279 214 204 462 333 224 239 275 170 65
0 0 0 0 0 0 0 0 0 0 0 0 0 0 0 0 0 0 0 0 0 0 0 0 0 0 0 0 16 127 211 303 470 517 637 635 580 512 580 459 384 431 381 203 219 192 138 87 44
0 0 0 0 0 0 0 0 0 0 0 0 0 0 0 0 0 0 0 0 0 0 0 0 0 0 0 4 64 112 199 299 453 511 627 704 703 704 629 523 534 346 203 256 93 82 57 66 10
0 0 0 0 0 0 0 0 0 0 0 0 0 0 0 0 0 0 0 0 0 0 0 0 0 0 8 115 222 327 463 556 496 620 658 701 671 585 570 470 177 94 155 126 70 43 44 13 32
0 0 0 0 0 0 0 0 0 0 0 0 0 0 0 0 0 0 0 0 0 0 0 0 18 151 250 322 416 430 494 352 261 207 290 133 93 152 491 261 187 246 92 21 10 1 0 0 0
0 0 0 0 0 0 0 0 0 0 0 0 0 0 0 0 0 0 0 0 0 0 0 44 327 438 491 495 450 523 474 315 235 146 125 74 81 154 219 245 268 147 6 0 0 0 0 0 0
0 0 0 0 0 0 0 0 0 0 0 0 0 0 0 0 0 0 0 0 0 0 19 284 540 543 588 596 466 409 352 341 303 122 54 66 98 130 179 154 101 23 0 0 0 0 0 0 0
0 0 0 0 0 0 0 0 0 0 0 0 0 0 0 0 0 0 0 0 0 0 178 521 609 579 606 525 404 295 241 105 55 50 74 105 96 56 23 13 4 0 0 0 0 0 0 0 0
0 0 0 0 0 0 0 0 0 0 0 0 0 0 0 0 0 0 0 0 0 26 303 572 590 477 428 268 133 66 36 55 52 19 12 2 0 0 0 0 0 0 0 0 0 0 0 0 0
0 0 0 0 0 0 0 0 0 0 0 0 0 0 0 0 0 0 0 0 9 112 321 453 426 327 116 22 12 8 0 5 6 6 6 0 0 0 0 0 0 0 0 0 0 0 0 0 0
0 0 0 0 0 0 0 0 0 0 0 0 0 0 0 0 0 0 0 16 101 191 256 334 253 77 1 0 0 0 0 1 4 0 0 0 0 0 0 0 0 0 0 0 0 0 0 0 12
0 0 0 0 0 0 0 0 0 0 0 0 0 0 0 0 0 4 65 142 226 253 264 193 42 5 0 0 0 0 0 0 0 0 0 0 0 0 0 0 0 0 0 0 0 0 0 0 19

GFSSGP_con_mlcape_051.txt.gz
CAPE
0 0 0 0 0 0 0 0 0 0 0 0 0 0 0 0 0 0 0 0 0 0 18 0 0 0 0 0 0 0 0 0 0 0 0 0 0 0 0 0 0 0 0 0 0 0 0 0 0
0 0 0 0 0 0 0 0 0 0 0 0 0 0 0 0 0 0 0 0 0 0 0 0 0 0 0 0 0 0 0 0 0 0 0 0 0 0 0 0 0 0 0 0 0 0 0 0 0
0 0 0 0 0 0 0 0 0 0 0 0 0 0 0 0 0 0 0 0 0 0 0 0 0 0 0 0 0 0 0 0 0 0 0 0 0 0 0 0 0 0 0 0 0 0 0 0 0
0 0 0 0 0 0 0 0 0 0 0 0 0 0 0 0 0 0 0 0 0 0 0 0 0 0 0 0 0 0 0 0 0 0 0 0 0 0 0 0 0 0 0 8 22 32 33 44 44
0 0 0 0 0 0 0 0 0 0 0 0 0 0 0 0 0 0 0 0 0 0 0 0 0 0 0 0 0 0 0 0 0 0 0 0 0 0 0 0 0 11 29 53 71 114 163 173 195
0 0 0 0 0 0 0 0 0 0 0 0 0 0 0 0 0 0 0 0 0 0 0 0 5 0 0 0 0 0 0 0 0 0 0 0 0 0 0 0 19 38 69 107 155 268 282 281 253
0 0 0 0 0 0 0 0 0 0 0 0 0 0 0 0 0 0 0 0 2 7 0 0 35 14 0 0 0 0 0 0 0 0 0 0 0 0 0 0 23 51 87 138 269 318 348 447 310
0 0 0 0 0 0 0 0 0 0 0 0 0 0 0 0 0 20 9 0 0 0 0 0 0 110 2 0 8 7 0 0 0 0 0 2 0 5 0 1 45 88 176 301 372 416 485 435 339
0 0 0 0 0 0 0 0 0 0 0 0 0 0 0 0 0 45 28 35 19 0 0 0 0 1 0 0 45 131 117 30 10 6 1 11 9 94 79 60 73 147 252 363 440 596 762 668 502
0 0 0 0 0 0 0 0 0 0 0 0 0 0 0 0 0 0 20 6 9 34 3 0 0 0 1 12 51 190 297 234 158 91 107 121 116 153 79 136 101 188 297 326 561 745 915 858 579
0 0 0 0 0 0 0 0 0 0 0 0 0 0 0 0 0 0 0 0 0 52 52 7 0 0 0 12 49 62 186 290 312 240 264 284 204 169 143 151 242 237 345 322 473 708 912 869 761
0 0 0 0 0 0 0 0 0 0 0 0 0 0 0 0 0 0 0 0 0 0 0 35 45 10 10 20 23 41 53 181 192 232 331 244 242 156 88 149 148 370 282 397 577 761 980 1149 1065
0 0 0 0 0 0 0 0 0 0 0 0 0 0 0 0 0 0 0 0 0 0 0 0 0 0 8 29 22 35 41 83 138 158 299 281 125 179 116 150 138 191 276 429 531 772 1031 1103 1132
0 0 0 0 0 0 0 0 0 0 0 0 0 0 0 0 0 0 0 0 0 0 0 0 0 0 0 0 10 47 51 57 108 139 196 353 173 229 161 157 141 146 187 207 323 492 1002 1083 892
0 0 0 0 0 0 0 0 0 0 0 0 0 0 0 0 0 0 0 0 0 0 0 0 0 0 0 0 3 49 72 60 107 171 210 340 300 274 273 161 184 211 242 221 273 191 911 1194 1182
0 0 0 0 0 0 0 0 0 0 0 0 0 0 0 0 0 0 0 0 0 0 0 0 0 0 0 0 0 39 66 95 157 204 241 359 408 354 328 232 156 202 216 139 89 242 1008 969 965
0 0 0 0 0 0 0 0 0 0 0 0 0 0 0 0 0 0 0 0 0 0 0 0 0 0 0 0 9 67 109 138 241 300 345 459 458 420 412 341 270 150 118 76 144 335 901 675 741
0 0 0 0 0 0 0 0 0 0 0 0 0 0 0 0 0 0 0 0 0 0 0 0 0 0 0 0 11 122 182 306 399 436 499 579 600 558 535 463 344 180 24 49 231 742 712 875 939
0 0 0 0 0 0 0 0 0 0 0 0 0 0 0 0 0 0 0 0 0 0 0 0 0 0 0 0 0 95 166 343 473 574 622 690 735 674 619 584 524 347 185 139 691 648 614 585 212
0 0 0 0 0 0 0 0 0 0 0 0 0 0 0 0 0 0 0 0 0 0 0 0 0 0 0 0 26 215 322 223 503 695 772 786 747 752 739 662 504 395 321 834 917 580 541 512 333
0 0 0 0 0 0 0 0 0 0 0 0 0 0 0 0 0 0 0 0 0 0 0 0 0 0 0 0 9 113 244 365 515 710 824 849 850 845 742 740 542 517 864 910 720 600 502 309 24
0 0 0 0 0 0 0 0 0 0 0 0 0 0 0 0 0 0 0 0 0 0 0 0 0 0 0 0 0 57 218 337 721 784 963 1001 971 969 981 1013 789 859 990 838 569 402 212 95 56
0 0 0 0 0 0 0 0 0 0 0 0 0 0 0 0 0 0 0 0 0 0 0 0 0 0 13 15 113 291 534 656 731 877 1021 1063 1097 1091 947 892 850 826 608 716 648 364 24 21 248
0 0 0 0 0 0 0 0 0 0 0 0 0 0 0 0 0 0 0 0 0 0 0 0 2 175 275 342 460 598 675 657 822 887 877 663 492 545 791 778 620 716 767 535 416 408 271 66 146
0 0 0 0 0 0 0 0 0 0 0 0 0 0 0 0 0 0 0 0 0 0 0 0 297 412 526 569 603 692 682 713 688 575 548 414 401 427 510 634 688 740 557 332 321 189 128 73 69
0 0 0 0 0 0 0 0 0 0 0 0 0 0 0 0 0 0 0 0 0 0 0 245 589 684 712 656 590 524 541 538 536 503 409 390 451 518 593 631 596 444 286 141 125 164 139 123 122
0 0 0 0 0 0 0 0 0 0 0 0 0 0 0 0 0 0 0 0 0 0 50 556 776 841 788 674 537 498 444 400 301 271 361 387 377 321 323 339 292 241 170 152 176 156 139 95 134
0 0 0 0 0 0 0 0 0 0 0 0 0 0 0 0 0 0 0 0 0 49 520 829 872 846 661 539 430 261 201 213 200 225 189 182 189 141 164 131 152 101 101 131 126 20 30 38 88
1 0 0 0 0 0 0 0 0 0 0 0 0 0 0 0 0 0 0 0 77 429 774 862 733 548 405 298 184 166 143 112 129 155 129 128 93 31 18 6 17 11 81 171 87 35 35 33 205
0 0 0 0 0 0 0 0 0 0 0 0 0 0 0 0 0 0 63 81 287 640 771 735 500 346 196 114 120 114 88 88 85 80 101 106 32 19 0 0 4 74 106 120 117 84 49 82 82

GFSSGP_con_mlcape_054.txt.gz
CAPE
0 0 0 0 0 0 0 0 0 0 0 0 0 2 0 0 0 0 0 15 0 4 102 0 0 0 0 0 0 0 0 0 0 0 37 62 46 16 7 0 0 0 0 0 0 0 0 0 0
0 0 0 0 0 0 0 0 0 0 0 0 0 0 0 0 0 0 0 7 15 55 192 0 0 0 0 0 0 0 0 0 0 0 0 0 0 0 0 0 0 0 0 0 0 0 0 0 0
0 0 0 0 0 0 0 0 0 0 0 0 0 0 0 38 0 0 0 0 24 155 285 36 0 0 0 0 0 0 0 0 0 0 0 0 0 0 0 0 0 0 0 0 0 0 0 2 4
0 0 0 0 0 0 0 0 0 0 0 0 0 0 0 0 0 0 0 0 39 105 165 156 0 0 0 0 0 0 0 0 0 0 0 0 0 0 0 0 0 0 0 0 0 21 32 45 60
0 0 0 0 0 0 0 0 0 0 0 0 0 0 0 0 1 0 0 0 1 49 66 207 78 0 0 0 0 0 0 0 0 0 0 0 0 0 0 0 0 7 17 28 44 77 86 117 150
0 0 0 0 0 0 0 0 0 0 0 0 0 0 0 1 7 0 0 0 0 55 120 82 194 22 0 0 0 0 0 0 0 0 0 0 0 0 0 0 0 22 55 99 147 192 270 288 325
0 0 0 0 0 0 0 0 0 0 0 0 0 0 0 0 0 1 0 66 65 108 221 221 285 145 70 0 0 0 0 0 0 0 0 0 0 0 0 0 6 32 111 163 218 316 385 380 329
0 0 0 0 0 0 0 0 0 0 0 0 0 0 0 0 118 52 26 90 174 218 174 305 340 222 68 0 0 7 30 0 0 0 0 0 2 10 3 4 16 70 138 169 251 429 464 550 526
0 0 0 0 0 0 0 0 0 0 0 0 0 0 0 0 154 99 79 53 50 75 216 261 203 251 166 0 5 87 249 81 41 38 15 9 0 10 11 13 40 76 178 266 375 499 578 626 561
0 0 0 0 0 0 0 0 0 0 0 0 0 0 0 0 30 86 117 25 57 63 119 241 285 181 252 58 10 239 51 93 75 11 17 12 0 1 16 41 79 122 310 443 545 630 810 819 687
0 0 0 0 0 0 0 0 0 0 0 0 0 0 0 0 0 0 0 1 18 41 131 296 328 242 208 188 55 101 163 142 172 100 67 81 9 25 83 69 196 160 368 278 341 561 787 791 769
0 0 0 0 0 0 0 0 0 0 0 0 0 0 0 0 0 0 0 0 0 0 0 74 551 364 206 155 162 134 141 180 269 313 294 184 169 101 155 85 121 182 138 204 305 482 769 887 909
0 0 0 0 0 0 0 0 0 0 0 0 0 0 0 0 0 0 0 0 0 0 0 0 315 838 513 357 235 325 329 220 296 382 449 381 230 229 214 121 53 130 157 227 346 430 757 874 950
0 0 0 0 0 0 0 0 0 0 0 0 0 0 0 0 0 0 0 0 0 0 0 45 111 298 654 348 463 479 578 356 364 389 374 712 407 384 224 180 158 86 133 149 287 375 562 819 1004
0 0 0 0 0 0 0 0 0 0 0 0 0 0 0 0 0 0 0 0 0 0 0 0 3 10 11 89 440 637 492 571 402 449 517 561 825 456 378 253 241 143 129 174 263 323 459 667 1081
0 0 0 0 0 0 0 0 0 0 0 0 0 0 0 0 0 0 0 0 0 0 0 0 0 0 0 0 154 471 463 451 494 450 635 750 996 816 620 503 364 276 213 287 242 234 157 158 1071
0 0 0 0 0 0 0 0 0 0 0 0 0 0 0 0 0 0 0 0 0 0 0 0 0 0 0 0 71 295 524 557 494 589 753 896 1003 991 806 839 632 561 329 276 176 129 50 250 1039
0 0 0 0 0 0 0 0 0 0 0 0 0 0 0 0 0 0 0 0 0 0 0 0 0 0 1 0 177 259 559 688 624 758 869 1011 1113 1044 1061 1007 946 780 579 232 157 76 166 1033 842
0 0 0 0 0 0 0 0 0 0 0 0 0 0 0 0 0 0 0 0 0 0 0 0 0 30 2 15 121 442 618 787 838 963 1078 1218 1280 1221 1148 1202 1089 880 498 347 267 508 711 825 1049
0 0 0 0 0 0 0 0 0 0 0 0 0 0 0 0 0 0 0 0 0 0 0 0 0 0 0 6 263 619 854 1018 1127 1169 1321 1410 1429 1414 1284 1291 1101 1019 837 560 711 1049 938 982 985
0 0 0 0 0 0 0 0 0 0 0 0 0 0 0 0 0 0 0 0 0 0 0 0 0 0 0 3 654 1044 1162 1034 1099 1239 1457 1494 1497 1532 1419 1337 1341 1359 1063 1025 1294 1285 973 852 734
0 0 1 3 4 0 0 0 0 0 0 0 0 0 0 0 0 0 0 0 0 0 0 0 0 0 2 323 457 878 837 891 1052 1345 1521 1554 1593 1564 1470 1523 1471 1340 1174 1177 1179 1027 798 880 572
0 0 6 11 11 7 0 0 0 0 0 0 0 0 0 0 0 0 0 0 0 0 0 0 0 0 261 605 494 905 789 1241 1501 1493 1830 1737 1713 1655 1688 1874 1744 1642 1370 1196 927 906 663 623 496
10 4 22 32 20 15 0 0 0 0 0 0 0 0 0 0 0 0 0 0 0 0 0 0 5 354 988 997 884 1160 1238 1460 1556 1795 1890 1821 1853 1889 1757 1657 1570 1453 1192 1168 989 942 796 512 356
32 22 31 49 36 3 0 0 0 0 0 0 0 0 0 0 0 0 0 0 0 0 0 0 290 1090 1310 1270 1357 1640 1792 1818 2033 1945 1661 1485 1288 1209 1405 1507 1384 1263 1203 1075 797 713 585 511 360
73 49 42 46 1 0 0 0 0 0 0 0 0 0 0 0 0 0 0 0 0 0 0 0 567 1435 1478 1514 1686 1822 1846 1710 1678 1393 1268 1051 702 754 1365 1342 1343 1223 1120 906 708 477 362 326 361
2 22 40 9 2 6 0 0 0 0 0 0 0 0 0 0 0 0 17 36 0 0 2 397 1218 1580 1553 1589 1559 1548 1409 1319 1215 1278 1014 777 802 1066 1285 1263 1042 928 713 579 488 231 333 301 388
1 31 27 21 1 20 5 0 0 0 0 0 0 0 0 0 0 5 215 136 17 6 441 1092 1585 1643 1623 1508 1436 1373 1321 1209 1143 1008 758 855 881 637 874 821 739 532 354 315 296 229 302 286 309
2 10 10 13 2 1 0 0 0 0 0 0 0 0 0 0 0 3 288 115 372 535 1076 1555 1621 1619 1516 1433 1201 1027 796 831 846 856 804 805 747 623 540 451 332 204 177 211 311 371 309 258 256
4 24 38 29 22 1 0 6 0 0 0 0 0 0 0 0 0 0 365 206 758 1007 1406 1589 1485 1375 1224 887 732 715 716 716 717 621 601 561 422 327 212 91 59 35 179 384 438 324 184 243 255

GFSSGP_con_mlcape_057.txt.gz
CAPE
0 0 0 0 0 0 0 0 0 0 0 0 0 0 3 3 90 98 23 0 0 1 517 0 0 0 0 0 0 0 0 3 340 861 1056 1130 1012 713 202 49 14 0 0 0 0 0 0 0 0
0 0 0 0 0 0 0 0 0 0 0 0 0 4 73 84 59 0 8 0 0 109 342 11 0 0 0 0 0 0 0 0 36 307 571 713 522 161 43 0 0 0 0 0 0 0 0 0 0
0 0 0 0 0 0 0 0 0 0 0 0 0 0 28 66 52 0 0 0 1 168 275 70 0 0 0 0 0 0 0 0 0 5 65 82 52 15 0 0 0 0 0 4 0 0 0 0 0
0 0 0 0 0 0 0 0 0 0 0 0 0 0 0 25 84 0 0 0 10 120 200 147 11 0 0 0 0 0 0 0 0 0 0 0 0 0 0 0 0 0 0 0 0 3 7 28 52
0 0 0 0 0 0 0 0 0 0 1 0 1 5 0 0 63 0 0 0 1 20 188 454 128 6 0 0 0 0 0 0 0 0 0 0 0 0 0 0 0 0 1 1 3 23 42 77 125
0 0 0 0 0 0 0 0 0 0 0 0 0 22 106 12 40 8 0 0 0 8 114 842 378 2 7 0 0 0 0 0 0 0 0 0 0 0 0 0 0 4 29 45 76 116 142 176 231
0 0 0 0 0 0 0 0 0 0 0 0 0 30 109 17 58 0 0 0 0 11 119 717 979 131 43 0 0 0 0 0 0 0 0 0 0 0 0 0 0 13 50 80 147 244 344 393 417
0 0 0 0 0 0 0 0 0 0 0 0 1 0 108 48 3 16 0 0 0 21 108 172 1050 250 60 61 1 0 0 0 0 0 0 0 0 0 0 3 2 8 43 138 250 400 555 552 553
0 0 0 0 0 0 0 0 0 0 0 0 0 4 4 16 87 0 0 0 1 15 71 252 422 429 138 9 122 36 27 6 0 9 13 0 0 0 0 0 0 5 95 201 303 463 673 691 753
0 0 0 0 0 0 0 0 0 0 0 0 0 0 0 81 32 0 0 0 14 25 50 163 290 391 453 145 56 357 53 62 40 4 0 0 0 0 0 0 0 96 90 237 369 577 770 815 557
0 0 0 0 0 0 0 0 0 0 0 0 0 0 0 5 30 23 6 15 23 48 51 75 719 609 509 398 184 230 483 254 198 117 73 60 0 0 0 10 76 85 227 136 326 481 630 634 709
0 0 0 0 0 0 0 0 0 0 0 0 3 15 2 0 0 2 25 44 116 137 135 164 533 1275 1008 593 472 395 381 490 459 413 363 106 134 32 34 50 66 244 183 197 271 371 594 745 898
0 0 0 0 0 0 0 0 0 0 0 0 0 10 1 0 0 0 0 0 1 1 2 2 49 1610 1513 1157 557 582 559 468 466 646 936 482 188 168 95 168 133 186 336 319 385 330 619 916 917
0 0 0 0 0 0 0 0 0 0 0 0 0 0 0 0 0 0 0 0 0 0 0 0 132 1671 1946 1724 1396 915 1191 564 672 580 889 1099 749 613 278 423 343 231 240 316 329 477 496 717 796
0 0 0 0 0 0 0 0 0 0 0 0 0 0 0 0 0 0 0 0 0 0 0 0 93 337 1106 1241 1564 1557 987 969 726 689 1074 1381 1361 1048 878 602 521 411 287 440 429 565 603 644 778
0 0 0 0 0 0 0 0 0 0 0 0 0 0 0 0 0 0 0 0 0 0 0 0 3 0 13 238 456 665 533 922 850 752 804 1193 1634 1459 1259 766 702 649 516 367 328 355 376 460 487
0 0 0 0 0 0 0 0 0 0 0 0 0 0 0 0 0 0 0 0 0 1 4 0 2 0 19 116 205 323 638 883 779 810 742 1220 1263 1522 1464 983 943 1029 666 506 443 498 393 355 230
0 0 0 0 0 0 0 0 0 0 0 0 0 2 0 0 0 0 0 0 0 0 0 14 6 0 146 206 290 180 349 785 901 791 876 1215 1485 1476 1593 1260 1383 1202 894 732 627 627 415 305 235
0 0 0 0 0 0 0 0 0 0 0 0 0 0 4 12 0 0 0 0 0 0 0 0 0 272 247 177 61 59 511 744 1018 953 1109 1378 1611 1534 1712 1412 1507 1474 1220 1118 915 549 439 334 1216
0 0 0 0 0 0 0 0 0 0 0 0 0 0 0 0 0 5 0 0 0 0 0 0 101 233 491 370 196 208 499 713 1182 1162 1473 1527 1653 1662 1667 1631 1628 1418 1258 1049 780 693 790 1032 1111
0 0 0 0 0 0 0 0 0 0 0 0 0 0 0 0 0 0 0 0 0 0 0 0 28 127 387 333 209 776 1274 1444 1506 1502 1730 1743 1756 1817 1634 1672 1762 1564 1416 1305 1116 1164 1349 1031 1003
0 0 0 0 0 0 0 0 0 0 0 0 0 0 0 0 0 0 0 0 0 0 0 0 0 58 152 482 83 596 1079 1387 1384 1564 1722 1828 1849 1711 1648 1744 1700 1833 1516 1454 1541 1472 1170 1107 966
6 0 0 0 0 0 0 0 0 0 0 0 0 0 0 0 0 0 0 0 0 0 0 0 0 3 48 313 298 644 1265 1083 1373 1450 2084 1873 1857 1742 1751 1697 1813 1666 1509 1641 1388 1177 1209 816 941
0 1 4 0 0 8 0 0 0 0 0 0 0 0 0 0 0 0 0 0 0 0 0 0 0 0 17 723 1198 1442 1481 1566 1665 1904 2097 2018 1698 1750 1783 1866 1929 1887 1485 1533 1210 1182 1165 1062 618
1 37 35 29 10 0 14 8 2 14 10 1 2 0 0 0 0 0 0 0 0 0 0 0 0 0 703 1331 1546 1528 1839 2225 2339 2396 2090 1978 1944 1951 1835 1898 1777 1624 1408 1290 1249 1136 1017 833 704
3 25 45 28 31 29 45 11 1 0 0 0 0 0 0 0 0 0 0 0 0 0 0 0 0 419 1449 1592 1669 1744 2229 2137 2324 2358 2058 1800 1648 1657 1794 1641 1378 1102 1215 1181 1076 795 675 648 596
62 16 3 4 0 0 2 2 7 0 0 0 0 0 0 0 0 0 0 5 29 0 0 0 3 746 1635 1955 2083 2397 2445 2427 2106 2109 1813 1299 1053 1395 1304 1080 977 1107 997 870 744 525 579 399 595
102 15 21 4 6 0 0 0 6 6 9 0 0 0 0 0 0 1 136 471 434 0 0 72 437 1505 1897 2150 2274 2297 2125 1852 1865 1739 1223 927 910 796 839 745 983 748 591 532 387 309 346 418 435
43 84 43 33 4 0 1 8 10 26 1 0 0 0 0 0 0 6 489 605 529 101 334 893 1549 1860 2007 2035 1994 1951 1789 1738 1460 1057 1001 992 861 673 515 577 528 516 372 299 343 369 296 123 239
16 95 92 74 21 0 0 0 0 37 19 0 1 0 0 0 0 0 690 433 914 739 1135 1620 1778 1850 1896 1864 1797 1605 1292 1068 1035 912 795 772 621 418 363 444 391 213 101 180 319 323 244 216 298

GFSSGP_con_mlcape_060.txt.gz
CAPE
0 0 0 0 0 0 0 0 0 0 0 0 0 0 1 7 121 133 0 0 396 4 0 0 0 0 0 0 0 0 0 130 659 1012 1127 959 807 756 569 173 38 0 0 0 0 0 0 0 0
0 0 0 0 0 0 0 0 0 0 0 0 0 0 27 128 10 0 0 0 600 35 0 0 0 0 0 0 0 0 0 5 437 975 1037 986 860 698 270 69 0 0 0 0 0 0 0 0 0
0 0 0 0 0 0 0 0 0 0 0 0 0 3 28 159 2 6 0 0 636 204 0 0 0 0 0 0 0 0 0 0 88 606 809 765 624 376 97 18 0 0 0 0 0 0 0 0 0
0 0 0 0 0 0 0 0 0 0 0 0 2 23 16 107 53 17 0 0 417 256 8 27 0 0 0 0 0 0 0 0 0 70 341 446 268 116 46 5 0 0 0 0 0 0 0 0 17
0 0 0 0 0 0 0 0 0 0 14 0 0 14 31 34 96 2 0 0 138 310 202 263 0 0 0 0 0 0 0 0 0 0 0 40 22 14 0 0 0 0 0 0 0 0 0 15 78
0 0 0 0 0 0 0 0 0 0 0 0 19 27 70 32 83 0 0 0 27 196 309 410 107 0 0 0 0 0 0 0 0 0 0 0 0 0 0 0 0 0 0 0 0 3 27 77 161
0 0 0 0 0 0 0 0 0 0 0 0 0 53 116 64 49 0 0 0 22 234 773 680 326 31 0 0 0 0 0 0 0 0 0 0 0 0 0 0 0 0 0 4 14 88 150 192 265
0 0 0 0 0 0 0 0 0 0 0 0 0 22 64 151 45 0 0 0 10 131 1064 1046 785 347 2 0 0 0 0 0 0 0 0 0 0 0 0 0 0 0 0 30 72 176 299 374 429
0 0 0 0 0 0 0 0 0 0 0 0 0 25 52 103 16 1 0 0 0 24 343 1234 1249 532 41 0 79 22 0 0 0 0 0 0 0 0 0 0 0 0 3 71 136 262 426 587 615
0 0 0 0 0 0 0 0 0 0 0 0 0 26 0 92 94 113 6 0 0 7 122 243 1116 635 120 38 92 114 0 17 0 3 42 16 0 0 0 0 0 25 17 83 194 326 524 763 632
0 0 0 0 0 0 0 0 0 0 0 0 0 1 5 1 149 109 53 19 13 37 23 232 678 904 533 260 238 352 139 81 62 20 29 109 3 0 0 0 9 20 104 88 242 417 603 624 625
0 0 0 0 0 0 0 0 0 0 0 0 0 0 4 0 130 85 61 13 35 46 23 278 685 1031 948 793 432 673 726 539 300 214 92 81 65 0 0 0 39 14 91 130 105 247 441 458 704
0 0 0 0 0 0 0 0 0 0 0 0 0 0 35 36 33 73 108 82 109 98 10 85 954 1043 976 894 1093 556 620 761 756 558 432 245 244 66 35 22 4 144 107 360 186 322 426 574 683
0 0 0 0 0 0 0 0 0 0 0 0 0 0 0 5 8 36 34 97 21 8 35 23 1320 1575 1594 1256 939 1387 1372 762 1012 953 1000 656 289 411 135 108 254 58 321 359 452 294 485 808 973
0 0 0 0 0 0 0 0 0 0 0 0 0 0 0 0 81 27 16 24 49 17 1 25 824 1788 1817 881 808 963 798 1195 1019 1129 1242 1225 807 351 651 436 138 563 286 709 496 566 520 721 903
0 0 0 0 0 0 0 0 0 0 0 0 0 0 0 0 0 11 1 113 43 8 0 28 47 1137 1142 1227 1689 2116 2030 1589 1181 1265 1296 1778 1409 1229 833 929 862 514 792 438 591 669 822 778 691
0 0 0 0 0 0 0 0 0 0 0 0 0 0 0 0 0 0 0 50 5 6 12 69 122 305 769 825 586 502 745 797 1404 1316 1153 1553 2067 1628 1645 1383 1121 1109 762 820 690 483 492 557 694
0 0 0 0 0 0 0 0 0 0 0 0 0 0 0 0 0 7 10 26 48 10 3 87 188 248 211 86 569 733 624 635 1065 1275 1342 1186 1627 2047 1520 1700 1271 1315 1225 903 803 699 603 698 591
0 0 0 0 0 0 0 0 0 0 0 0 0 0 0 0 33 2 16 10 19 31 4 171 65 157 108 211 228 202 118 209 971 1224 1164 1239 1800 1677 1949 1464 1768 1440 1328 1110 1073 880 806 828 482
0 0 0 0 0 0 0 0 0 0 0 0 0 0 0 0 0 60 46 76 148 46 20 10 102 29 13 478 293 630 624 576 827 1265 1289 1588 1850 1783 1805 1814 1673 1582 1524 1405 1274 1023 716 532 479
0 0 0 0 0 0 0 0 0 0 0 0 0 0 0 0 8 5 16 37 38 18 20 3 22 13 178 633 816 263 505 773 1613 1471 1656 1704 1891 1932 1914 1702 1874 1682 1319 1580 1247 984 631 921 1105
0 0 0 0 0 0 0 0 0 0 0 0 0 0 0 0 0 10 21 18 39 21 1 0 0 0 57 295 162 436 482 210 1074 1657 1837 1865 1911 1985 1863 1766 1664 1925 1417 1576 1215 1015 998 1093 805
1 0 0 0 0 0 0 0 0 0 0 0 0 0 6 0 0 0 12 13 0 0 0 0 0 25 102 351 536 247 776 1115 1769 1696 2064 2088 1927 2079 1803 1522 1882 1650 1412 1756 1364 1506 1084 969 847
12 1 0 3 0 1 0 0 0 0 0 0 0 0 0 5 0 0 0 0 0 0 0 0 0 3 37 414 455 459 778 968 1594 1651 2325 2135 1958 1623 1441 1495 1722 1772 1540 1707 1378 1247 1033 943 759
48 15 10 12 9 4 0 0 0 0 0 0 0 7 5 1 0 0 0 0 0 0 0 0 0 0 143 491 612 764 1489 1075 2651 2243 2200 2025 1615 1445 1645 1480 1720 1773 1606 1532 1295 1085 1023 808 806
52 59 9 0 1 11 30 17 0 0 0 0 0 24 40 8 0 0 0 0 0 0 0 0 0 1 66 141 816 1699 2197 1647 3228 2347 2261 2011 1572 1481 1572 1810 1905 1906 1480 1221 1120 877 700 803 585
113 14 54 0 2 14 0 1 11 3 0 0 0 2 0 1 0 0 0 0 0 0 3 0 0 0 6 1173 1959 2001 2000 2510 2750 2235 2556 2212 1879 2111 1874 1888 1549 1173 1143 1118 856 605 545 654 607
96 76 45 1 0 1 0 4 0 51 0 0 0 1 3 20 0 0 1 52 237 301 252 7 0 34 1605 1910 2180 2296 2694 2564 2634 2595 2235 1700 1729 1807 1628 1435 1061 824 646 712 496 442 624 425 481
144 87 72 28 4 19 0 0 17 18 5 8 0 8 27 0 0 0 85 534 859 745 557 38 0 1544 1976 2290 2619 2604 2789 2488 2180 1910 1498 1362 1295 1158 1009 941 585 451 448 430 362 418 340 249 284
4 123 47 0 0 5 0 0 0 0 0 0 3 32 8 0 0 0 945 1080 739 561 410 343 1106 1937 2345 2490 2538 2495 2158 2016 1713 1356 1293 1029 908 613 597 609 146 260 379 302 268 388 382 84 106

GFSSGP_con_mlcape_063.txt.gz
CAPE
0 0 0 0 0 0 0 0 0 0 0 0 0 16 16 97 42 0 0 11 0 0 0 0 0 0 0 0 0 0 0 200 473 624 645 542 500 445 252 85 42 0 0 0 0 0 0 0 0
0 0 0 0 0 0 0 0 0 0 0 0 3 0 20 69 14 0 11 41 0 0 0 0 0 0 0 0 0 0 0 75 479 585 613 587 500 424 183 62 19 0 0 0 0 0 0 0 0
0 0 0 0 0 0 0 0 0 0 0 9 6 0 18 78 0 0 148 2 0 0 0 0 0 0 0 0 0 0 0 1 232 473 490 479 524 358 119 50 4 0 0 0 0 0 0 0 0
0 0 0 0 0 0 0 0 0 0 0 58 36 10 34 58 0 2 390 29 0 0 0 0 0 0 0 0 0 0 0 0 22 179 251 390 375 193 65 21 0 0 0 0 0 0 0 0 0
0 0 0 0 0 0 0 0 0 0 0 73 6 0 95 60 0 206 312 100 0 0 0 0 0 0 0 0 0 0 0 0 0 11 100 166 167 103 29 0 0 0 0 0 8 0 0 0 22
0 0 0 0 0 0 0 0 0 0 0 0 1 1 76 84 0 59 152 70 0 0 7 0 0 0 0 0 0 0 0 0 0 0 0 19 52 20 0 0 0 0 0 2 13 7 0 5 60
0 0 0 0 0 0 0 0 0 0 0 0 0 0 76 40 0 11 68 86 63 53 48 0 0 0 0 0 0 0 0 0 0 0 0 0 0 0 0 0 0 0 0 4 13 19 29 79 110
0 0 0 0 0 0 0 0 0 0 0 0 0 0 124 49 0 0 35 31 276 340 215 117 0 0 0 0 0 0 0 0 0 0 0 0 0 0 0 0 0 0 0 6 16 54 129 184 209
0 0 0 0 0 0 0 0 0 0 0 0 0 14 157 89 0 0 3 87 337 483 406 312 121 0 0 0 0 0 0 0 0 0 0 0 0 0 0 0 0 0 0 9 38 117 214 316 412
0 0 0 0 0 0 0 0 0 0 0 0 0 9 93 35 37 1 0 1 208 497 619 502 363 134 0 0 0 0 0 0 0 0 0 0 0 0 0 0 0 0 0 14 67 180 272 500 489
0 0 0 0 0 0 0 0 0 0 0 0 0 0 26 110 60 36 0 0 26 337 716 655 463 215 1 0 0 0 0 0 0 0 0 0 0 0 0 0 0 0 14 14 67 214 375 412 457
0 0 0 0 0 0 0 0 0 0 0 0 0 0 0 5 46 65 3 0 0 75 263 835 653 332 72 5 56 35 71 21 0 0 0 0 0 0 0 0 0 0 1 6 14 37 114 220 313
0 0 0 0 0 0 0 0 0 0 0 0 0 0 0 0 0 80 92 10 25 60 95 495 611 543 378 280 292 294 210 168 150 156 71 0 9 0 0 0 0 0 0 19 12 18 45 138 98
0 0 0 0 0 0 0 0 0 0 0 0 0 0 0 0 2 31 50 44 113 63 170 279 264 373 470 697 508 529 451 478 434 365 272 174 112 60 2 0 0 0 4 41 51 24 98 207 287
0 0 0 0 0 0 0 0 0 0 0 0 0 3 1 0 0 15 3 10 80 38 24 161 72 242 576 975 1107 1110 1101 873 697 614 562 435 212 198 103 41 0 0 8 41 146 146 70 289 452
0 0 0 0 0 0 0 0 0 0 0 0 0 0 15 10 0 0 9 9 9 6 64 150 481 764 735 809 781 859 953 858 1061 1083 998 786 496 268 278 164 90 1 79 98 205 318 337 248 407
0 0 0 0 0 0 0 0 0 0 0 0 0 0 0 4 3 0 0 0 15 44 3 548 1078 1086 1179 1358 646 318 385 475 445 761 974 1156 932 563 383 477 355 218 117 369 322 377 474 485 417
0 0 0 0 0 0 0 0 0 0 0 0 0 0 0 0 0 1 0 0 15 96 23 62 698 1395 1658 1125 749 765 1037 856 819 1008 1205 1327 1365 1163 740 643 813 747 538 379 473 532 397 307 359
0 0 0 0 0 0 0 0 0 0 0 0 0 0 0 0 0 0 0 0 0 74 53 0 73 339 323 481 549 748 463 402 531 689 840 1187 1513 1567 1388 1316 1062 1058 1056 873 577 640 527 483 422
0 0 0 0 0 0 0 0 0 0 0 0 0 0 0 0 0 0 0 0 1 61 74 4 1 54 89 35 0 0 7 67 71 113 852 1045 1405 1631 1624 1404 1330 1458 1120 1011 954 781 689 539 459
0 0 0 0 0 0 0 0 0 0 0 0 0 0 0 0 0 0 0 0 0 76 86 12 29 12 13 14 32 38 335 388 690 816 875 1258 1477 1616 1693 1478 1295 1359 1403 1199 1046 940 759 567 465
0 0 0 0 0 0 0 0 0 0 0 0 0 0 0 0 0 0 0 0 109 146 155 40 38 39 0 2 0 0 4 0 63 575 1271 1574 1612 1566 1514 1616 1520 1384 1506 1276 1241 1021 728 560 692
0 0 0 0 0 0 0 0 0 0 0 0 0 0 0 0 0 0 0 0 13 94 23 7 0 1 0 0 0 0 62 103 262 828 1499 1514 1573 1623 1667 1587 1479 1454 1489 1276 1280 1008 754 592 594
0 10 3 1 0 0 0 0 0 0 0 0 0 0 0 0 0 0 0 0 1 164 14 0 1 0 0 0 0 0 0 10 526 1356 1687 1608 1584 1668 1732 1590 1462 1361 1672 1208 1359 1067 919 930 723
0 0 0 0 0 0 0 19 0 0 0 0 0 0 0 0 0 0 0 0 0 36 0 0 0 0 0 0 0 0 0 9 577 1423 1870 1795 1706 1599 1619 1375 1205 1499 1406 1301 1244 1104 841 667 634
0 34 2 2 0 0 0 0 0 0 0 0 0 0 0 0 0 0 0 0 0 0 0 0 0 0 0 0 0 28 169 430 587 1753 1784 1759 1640 1486 1291 1162 1226 1412 1389 1173 929 791 775 690 633
0 0 40 18 0 0 0 0 0 1 4 12 0 0 0 0 2 0 0 0 0 0 0 0 0 0 0 0 34 389 455 513 746 1797 1890 1727 1524 1310 1241 1264 1347 1483 1230 968 788 585 433 415 362
12 3 9 2 0 0 0 0 0 40 2 0 0 0 0 0 8 94 17 34 56 129 134 137 15 0 0 67 465 589 747 1187 2184 2084 1954 1703 1477 1374 1374 1417 1438 1286 903 707 466 187 406 437 329
12 0 0 0 2 0 0 0 109 0 0 0 0 0 0 0 29 10 100 446 501 430 208 365 111 2 85 338 739 1382 1701 1892 2541 2168 2170 1826 1684 1578 1515 1500 996 705 437 395 195 245 309 252 229
0 0 0 0 0 0 0 0 0 0 0 0 0 0 0 0 1 257 763 963 646 378 364 304 132 65 638 1608 1829 1786 2001 2427 2146 1783 1578 1723 1799 1544 1246 895 563 109 191 268 137 82 158 27 9

GFSSGP_con_mlcape_066.txt.gz
CAPE
0 0 0 0 0 0 0 0 0 0 0 0 0 0 25 110 69 13 0 0 0 0 0 0 0 0 0 0 0 0 16 92 142 235 230 140 111 65 29 3 15 0 0 0 0 0 0 0 0
0 0 0 0 0 0 0 0 0 0 0 0 0 6 111 122 63 47 5 0 0 0 0 0 0 0 0 0 0 0 3 52 110 253 295 247 218 130 70 17 4 0 0 0 0 0 0 0 0
0 0 0 0 0 0 0 0 0 0 0 0 0 0 54 71 74 65 14 0 0 0 0 0 0 0 0 0 0 0 0 19 123 257 341 293 276 156 63 14 0 0 0 0 0 0 0 0 0
0 0 0 0 0 0 0 0 0 0 0 0 0 6 67 45 80 65 39 0 0 0 0 0 0 0 0 0 0 0 0 2 115 273 373 304 308 140 53 15 0 0 0 0 0 0 0 0 0
0 0 0 0 0 0 0 0 0 0 0 0 0 0 76 36 58 83 29 0 0 0 0 0 0 0 0 0 0 0 0 0 19 122 163 204 196 85 54 8 0 0 0 0 0 0 0 0 1
0 0 0 0 0 0 0 0 0 0 0 0 0 0 24 25 75 51 0 0 0 0 0 0 33 1 0 0 0 0 0 0 0 20 42 73 64 46 44 12 0 0 0 0 17 19 11 8 16
0 0 0 0 0 0 0 0 0 0 0 0 0 0 3 6 177 79 0 0 0 0 0 0 15 23 0 0 0 0 0 0 0 0 0 0 8 39 21 1 0 0 0 0 23 45 34 22 41
0 0 0 0 0 0 0 0 0 0 0 0 0 0 21 10 278 210 12 0 0 0 0 0 2 0 0 0 0 0 0 0 0 0 0 0 0 0 0 0 0 0 0 0 12 41 47 52 100
0 0 0 0 0 0 0 0 0 0 0 0 0 0 5 0 35 52 39 0 0 0 0 0 0 0 0 0 0 0 0 0 0 0 0 0 0 0 0 0 0 0 0 0 6 39 59 140 178
0 0 0 0 0 0 0 0 0 0 0 0 0 0 0 3 23 55 20 4 0 0 0 0 0 0 0 0 0 0 0 0 0 0 0 0 0 0 0 0 0 0 0 0 1 50 123 227 218
0 0 0 0 0 0 0 0 0 0 0 0 0 0 0 0 4 27 40 68 29 23 109 99 0 0 0 0 0 0 0 0 0 0 0 0 0 0 0 0 0 0 0 0 0 62 176 184 197
0 0 0 0 0 0 0 0 0 0 0 0 0 0 0 0 0 0 2 83 342 413 258 209 91 0 0 0 0 0 0 0 0 0 0 0 0 0 0 0 0 0 0 0 0 0 27 93 141
0 0 0 0 0 0 0 0 0 0 0 0 0 0 0 0 0 0 0 0 74 493 686 491 334 140 6 0 0 0 0 0 0 0 0 0 0 0 0 0 0 0 0 0 0 0 12 33 40
0 0 0 0 0 0 0 0 0 0 0 0 0 0 0 0 0 0 0 17 0 128 491 691 544 267 40 2 0 0 0 0 9 17 0 0 0 0 0 0 0 0 0 0 0 2 18 29 41
0 0 0 0 0 0 0 0 0 0 0 0 0 0 0 0 0 0 0 0 0 27 310 570 645 460 194 85 185 142 170 209 201 160 138 149 94 119 28 0 0 0 0 0 2 12 28 48 69
0 0 0 0 0 0 0 0 0 0 0 0 0 0 0 0 0 0 0 0 3 29 181 274 548 565 489 440 445 401 408 412 409 361 359 315 280 229 147 79 18 2 0 0 9 39 58 53 128
0 0 0 0 0 0 0 0 0 0 0 0 0 0 0 0 0 0 0 0 0 25 88 243 310 610 466 412 665 776 822 825 733 637 646 631 559 382 311 249 148 25 12 0 2 53 116 204 211
0 0 0 0 0 0 0 0 0 0 0 0 0 0 0 0 0 0 0 0 0 0 55 200 386 267 358 440 617 818 972 1077 1022 853 789 821 835 676 514 437 269 179 37 30 33 102 170 288 324
0 0 0 0 0 0 0 0 0 0 0 0 0 0 0 0 0 0 0 0 0 0 0 87 457 420 525 527 604 760 646 187 392 757 903 1065 1162 1020 686 574 640 427 362 192 156 164 256 277 216
0 0 0 0 0 0 0 0 0 0 0 0 0 0 0 0 0 0 0 0 0 0 0 8 542 543 716 746 819 766 272 258 362 392 444 543 897 1099 1106 862 842 789 724 630 547 444 426 378 217
0 0 0 0 0 0 0 0 0 0 0 0 0 0 0 0 0 0 0 0 0 0 0 2 291 696 887 740 533 356 305 198 123 74 124 238 774 1353 1320 1253 1167 1043 891 970 846 737 656 584 322
0 0 0 0 0 0 0 0 0 0 0 0 0 0 0 0 0 0 0 0 0 0 0 9 30 339 539 366 248 66 1 0 0 0 113 626 968 1331 1355 1327 1334 1349 1255 1177 946 832 675 542 577
0 0 0 0 0 0 0 0 0 0 0 0 0 0 0 0 0 0 0 0 0 0 0 10 54 94 151 142 82 21 0 0 0 0 15 207 1072 1401 1507 1488 1332 1257 1203 1182 1105 901 768 621 617
0 0 0 0 0 0 0 0 0 0 0 0 0 0 0 0 0 0 0 0 0 0 0 1 15 76 57 54 5 0 0 0 0 87 74 534 1375 1484 1522 1418 1363 1393 1211 1309 1120 979 883 665 449
0 0 0 0 0 0 0 0 0 0 0 0 0 0 0 0 0 0 0 0 0 0 0 0 0 76 6 0 2 0 0 0 0 34 94 764 1430 1410 1404 1397 1345 1267 1240 1357 1085 1098 865 600 581
0 0 0 0 0 0 0 0 0 0 0 0 0 0 0 0 0 0 0 0 0 0 0 0 0 18 0 0 0 0 0 0 0 23 290 1017 1492 1440 1434 1427 1360 1155 1256 1104 1035 1042 816 650 430
0 0 0 5 0 0 0 0 0 0 0 0 0 0 0 0 0 0 0 0 0 0 0 0 0 0 0 0 0 0 0 0 0 87 509 1141 1490 1460 1476 1406 955 1113 1067 962 884 798 643 508 386
0 0 0 5 0 0 0 0 0 0 0 0 0 0 0 0 0 0 0 0 0 0 0 0 0 0 0 0 0 0 4 45 61 278 554 1229 1455 1482 1403 1133 1022 1121 1011 772 611 477 327 157 120
0 3 29 1 2 1 0 0 12 0 0 0 0 0 0 0 0 0 0 0 0 0 0 0 0 0 0 0 0 67 76 344 650 766 735 1181 1428 1370 1133 1076 1098 1085 885 580 373 68 130 147 61
0 7 7 0 0 0 0 0 0 0 0 0 0 0 0 0 0 0 0 0 717 625 515 436 148 18 0 15 46 306 863 1043 1018 1046 1302 1463 1470 1242 1161 1165 1080 905 638 328 105 44 58 87 30

GFSSGP_con_mlcape_069.txt.gz
CAPE
0 0 0 0 0 0 0 0 0 0 0 0 0 0 0 0 8 21 0 0 0 0 6 112 0 23 38 68 24 12 7 14 47 65 88 57 39 30 14 24 25 3 0 0 0 0 0 0 0
0 0 0 0 0 0 0 0 0 0 0 0 0 0 0 3 7 0 1 0 0 0 20 17 3 0 42 93 20 5 22 56 85 69 87 109 76 50 4 10 12 1 0 0 0 0 0 0 0
0 0 0 0 0 0 0 0 0 0 0 0 0 0 0 34 1 19 13 0 0 0 5 0 2 0 81 56 21 0 12 24 75 89 114 124 94 44 20 0 0 0 0 0 0 0 0 0 0
0 0 0 0 0 0 0 0 0 0 0 0 0 0 0 3 65 52 3 0 0 0 0 0 0 0 78 29 31 0 0 22 42 80 86 132 126 35 14 0 0 0 0 0 0 0 0 0 0
0 0 0 0 0 0 0 0 0 0 0 0 0 0 0 0 73 82 0 0 0 0 0 0 0 0 23 9 42 0 0 17 28 43 67 139 204 118 23 0 0 0 0 0 4 4 1 0 0
0 0 0 0 0 0 0 0 0 0 0 0 0 0 0 6 67 43 0 0 0 0 0 0 0 0 0 0 51 1 0 6 11 15 64 110 184 135 48 15 0 0 0 0 12 26 18 8 2
0 0 0 0 0 0 0 0 0 0 0 0 0 0 0 83 109 15 0 0 0 0 0 0 0 0 0 10 36 0 0 0 0 0 3 41 92 83 57 18 0 0 0 0 5 49 46 25 22
0 0 0 0 0 0 0 0 0 0 0 0 0 0 0 0 160 0 0 0 0 0 0 0 0 0 0 3 30 5 0 0 0 0 0 0 27 61 47 28 6 0 0 0 0 27 57 51 60
0 0 0 0 0 0 0 0 0 0 0 0 0 0 0 153 170 5 0 0 0 0 0 0 0 0 0 0 0 13 29 0 0 0 0 1 54 65 32 9 0 0 0 0 0 0 44 74 101
0 0 0 0 0 0 0 0 0 0 0 0 0 0 0 133 267 34 0 0 0 0 0 0 0 0 0 0 0 0 0 9 0 0 0 0 0 0 0 0 0 0 0 0 0 0 23 99 104
0 0 0 0 0 0 0 0 0 0 0 0 0 0 0 0 54 156 0 0 0 0 0 0 0 0 0 0 0 0 0 0 0 0 0 0 0 0 0 0 0 0 0 0 0 0 40 37 94
0 0 0 0 0 0 0 0 0 0 0 0 0 0 0 0 0 0 17 43 5 0 0 0 0 0 0 0 0 0 0 0 0 0 0 0 0 0 0 0 0 0 0 0 0 0 1 16 64
0 0 0 0 0 0 0 0 0 0 0 0 0 0 0 0 0 0 0 0 0 149 100 0 0 0 0 0 0 0 0 0 0 0 0 0 0 0 0 0 0 0 0 0 0 0 0 1 20
0 0 0 0 0 0 0 0 0 0 0 0 0 0 0 0 0 0 0 0 0 0 245 365 13 0 0 0 0 0 0 0 0 0 0 0 0 0 0 0 0 0 0 0 0 0 0 0 11
0 0 0 0 0 0 0 0 0 0 0 0 0 0 0 0 0 0 0 0 0 1 254 621 468 184 4 0 0 0 0 0 0 0 0 0 0 0 0 0 0 0 0 0 0 0 0 0 12
0 0 0 0 0 0 0 0 0 0 0 0 0 0 0 0 0 0 0 0 0 0 18 442 786 482 222 61 16 0 0 0 0 0 0 36 43 49 14 4 2 0 0 0 0 0 0 1 16
0 0 0 0 0 0 0 0 0 0 0 0 0 0 0 0 0 0 0 0 0 0 0 119 624 643 441 286 168 80 65 71 114 137 218 261 245 237 243 164 95 0 0 0 0 0 0 8 21
0 0 0 0 0 0 0 0 0 0 0 0 0 0 0 0 0 0 0 0 0 0 0 20 284 605 683 530 414 347 364 392 396 419 469 468 469 427 387 345 199 25 13 8 9 11 0 15 54
0 0 0 0 0 0 0 0 0 0 0 0 0 0 0 0 0 0 0 0 0 0 0 0 13 214 654 625 597 526 445 569 680 726 729 814 833 623 436 448 266 156 181 227 69 28 48 58 102
0 0 0 0 0 0 0 0 0 0 0 0 0 0 0 0 0 0 0 0 0 0 0 0 0 50 315 597 696 457 501 490 804 787 930 924 555 601 629 550 534 403 426 204 119 111 121 102 119
0 0 0 0 0 0 0 0 0 0 0 0 0 0 0 0 0 0 0 0 0 0 0 0 0 0 36 271 491 380 401 387 440 531 339 376 643 773 822 561 615 758 662 552 315 239 272 328 104
0 0 0 0 0 0 0 0 0 0 0 0 0 0 0 0 0 0 0 0 0 0 0 0 0 0 15 230 483 522 277 241 389 268 141 349 224 385 609 799 881 877 802 814 735 572 485 424 492
0 0 0 0 0 0 0 0 0 0 0 0 0 0 0 0 0 0 0 0 0 0 0 0 0 0 0 137 360 555 281 338 185 284 201 130 292 717 903 992 1023 1052 1010 971 871 753 590 452 446
0 0 0 0 0 0 0 0 0 0 0 0 0 0 0 0 0 0 0 0 0 0 0 0 0 0 0 78 139 321 352 286 192 95 32 56 198 530 1060 1094 1115 1220 1237 1125 1019 926 640 572 457
0 0 0 0 0 0 0 0 0 0 0 0 0 0 0 0 0 0 0 0 0 0 0 0 0 0 0 0 18 194 302 245 208 24 5 37 134 424 1079 1265 1275 1196 1127 1056 981 937 733 610 449
0 0 0 0 0 0 0 0 0 0 0 0 0 0 0 0 0 0 0 0 0 0 0 0 0 0 0 0 0 67 168 134 35 0 0 31 83 314 1112 1214 1182 1248 1159 1027 1051 885 742 552 365
0 0 0 0 0 0 0 0 0 0 0 0 0 0 0 0 0 0 0 0 0 0 0 0 0 0 0 0 6 5 110 64 0 0 9 102 252 718 1074 1095 1216 1190 1126 1017 1050 802 720 444 360
0 0 0 0 0 0 0 0 0 0 0 0 0 0 0 0 0 0 0 0 0 0 0 0 0 0 0 0 0 22 113 10 0 0 33 136 383 951 1091 1126 1162 1159 908 984 803 706 502 374 230
0 0 0 0 2 1 0 0 0 0 0 0 0 0 0 0 0 0 0 0 0 0 0 0 0 0 0 0 0 30 43 35 4 5 72 275 646 914 1166 1189 1098 829 812 774 669 496 306 229 26
0 0 0 0 0 1 0 0 0 0 0 0 0 0 0 0 0 0 0 0 0 0 0 0 0 0 0 0 0 73 83 67 30 73 233 494 661 1027 1266 1175 840 794 803 673 507 233 19 0 15

GFSSGP_con_mlcape_072.txt.gz
CAPE
0 0 0 0 0 0 0 0 0 0 0 0 0 0 0 0 0 0 0 0 0 0 34 269 595 249 271 190 133 51 13 2 0 0 0 6 56 54 24 25 36 36 18 0 0 0 0 0 0
0 0 0 0 0 0 0 0 0 0 0 0 0 0 0 0 0 0 0 0 0 0 18 249 560 209 174 187 162 88 31 16 9 0 2 1 0 0 0 22 29 26 0 0 0 0 0 0 0
0 0 0 0 0 0 0 0 0 0 0 0 0 0 0 10 20 0 0 0 0 0 21 185 564 165 127 164 150 129 60 28 14 18 32 17 14 0 0 5 3 0 0 0 0 0 0 0 0
0 0 0 0 0 0 0 0 0 0 0 0 0 0 0 0 23 14 0 0 0 0 0 81 474 278 118 147 147 139 59 14 4 16 26 15 0 0 0 0 0 0 0 0 0 0 0 0 0
0 0 0 0 0 0 0 0 0 0 0 0 0 0 0 0 49 15 0 0 0 0 0 92 289 339 147 204 242 192 107 16 12 34 50 39 1 0 0 0 0 0 0 0 0 0 0 0 0
0 0 0 0 0 0 0 0 0 0 0 0 0 0 0 0 54 11 0 0 0 0 0 124 519 342 183 180 306 290 207 107 47 54 73 72 38 6 7 0 0 0 0 0 0 0 0 0 0
0 0 0 0 0 0 0 0 0 0 0 0 0 0 0 0 28 0 0 0 0 0 0 69 350 601 191 164 188 277 304 242 89 96 86 76 59 71 55 10 0 0 0 0 0 0 0 0 0
0 0 0 0 0 0 0 0 0 0 0 0 0 0 0 1 6 0 0 0 0 0 0 0 93 202 161 253 172 178 339 334 188 121 133 110 101 135 133 56 12 0 0 0 0 0 0 0 2
0 0 0 0 0 0 0 0 0 0 0 0 0 0 0 101 23 1 0 0 0 0 0 0 9 64 27 25 147 169 279 380 380 297 268 290 294 295 216 127 49 4 0 0 0 0 0 0 8
0 0 0 0 0 0 0 0 0 0 0 0 0 0 0 5 161 62 0 0 0 0 0 15 28 2 0 11 11 57 122 243 306 271 295 455 298 217 164 196 147 62 7 0 0 0 0 2 3
0 0 0 0 0 0 0 0 0 0 0 0 0 0 0 0 0 48 32 0 0 0 0 35 80 9 0 0 0 0 0 7 51 79 67 199 90 133 225 77 111 38 59 1 0 0 0 0 0
0 0 0 0 0 0 0 0 0 0 0 0 0 0 0 0 0 0 8 7 0 0 0 0 47 18 0 0 0 0 0 0 0 0 0 0 0 0 0 0 0 0 0 0 0 0 0 0 0
0 0 0 0 0 0 0 0 0 0 0 0 0 0 0 0 0 0 0 0 34 0 0 0 2 5 0 0 0 0 0 0 0 0 0 0 0 0 0 0 0 0 0 0 0 0 0 0 0
0 0 0 0 0 0 0 0 0 0 0 0 0 0 0 0 0 0 0 0 0 0 22 19 0 0 0 0 0 0 0 0 0 0 0 0 0 0 0 0 0 0 0 0 0 0 0 0 0
0 0 0 0 0 0 0 0 0 0 0 0 0 0 0 0 0 0 0 0 0 0 0 56 108 10 0 0 0 0 0 0 0 0 0 0 0 0 0 0 0 0 0 0 0 0 0 0 0
0 0 0 0 0 0 0 0 0 0 0 0 0 0 0 0 0 0 0 0 0 0 0 13 179 196 13 0 0 0 0 0 0 0 0 0 0 0 0 0 0 0 0 0 0 0 0 0 0
0 0 0 0 0 0 0 0 0 0 0 0 0 0 0 0 0 0 0 0 0 0 0 0 41 146 330 93 2 0 0 0 0 0 0 0 0 0 0 0 4 0 0 3 5 0 0 0 0
0 0 0 0 0 0 0 0 0 0 0 0 0 0 0 0 0 0 0 0 0 0 0 0 1 399 420 363 99 21 0 0 1 0 0 0 0 41 71 100 131 60 61 61 20 0 0 0 0
0 0 0 0 0 0 0 0 0 0 0 0 0 0 0 0 0 0 0 0 0 0 0 0 0 2 459 401 335 250 195 149 82 59 56 75 156 237 217 262 257 179 208 196 84 13 0 0 0
0 0 0 0 0 0 0 0 0 0 0 0 0 0 0 0 0 0 0 0 0 0 0 0 0 0 0 177 413 423 410 339 283 304 322 376 387 394 379 399 283 245 228 190 218 106 20 41 1
0 0 0 0 0 0 0 0 0 0 0 0 0 0 0 0 0 0 0 0 0 0 0 0 0 0 0 0 285 338 334 330 405 376 532 586 608 596 662 344 349 299 270 340 327 154 166 354 62
0 0 0 0 0 0 0 0 0 0 0 0 0 0 0 0 0 0 0 0 0 0 0 0 0 0 0 0 1 182 371 330 553 510 530 622 761 901 619 469 416 367 358 532 435 194 254 267 356
0 0 0 0 0 0 0 0 0 0 0 0 0 0 0 0 0 0 0 0 0 0 0 0 0 0 0 0 0 2 63 257 328 378 435 396 443 421 595 433 357 370 587 685 627 409 353 362 348
0 0 0 0 0 0 0 0 0 0 0 0 0 0 0 0 0 0 0 0 0 0 0 0 0 0 0 0 0 0 46 118 155 262 436 418 320 285 316 454 503 642 755 807 785 680 646 500 412
0 0 0 0 0 0 0 0 0 0 0 0 0 0 0 0 0 0 0 0 0 0 0 0 0 0 0 0 0 0 37 197 155 257 344 339 214 153 210 503 650 863 904 944 830 866 829 551 464
0 0 0 0 0 0 0 0 0 0 0 0 0 0 0 0 0 0 0 0 0 0 0 0 0 0 0 0 0 0 0 112 240 254 234 244 171 67 244 435 791 914 1002 982 936 863 823 575 468
0 0 0 0 0 0 0 0 0 0 0 0 0 0 0 0 0 0 0 0 0 0 0 0 0 0 0 0 0 0 0 2 109 246 241 311 170 80 260 517 920 1020 945 919 801 867 800 663 409
0 0 0 0 0 0 0 0 0 0 0 0 0 0 0 0 0 0 0 0 0 0 0 0 0 0 0 0 0 0 0 0 2 136 227 309 117 162 236 713 1070 990 1003 875 787 802 651 536 322
0 0 0 0 0 0 0 0 0 0 0 0 0 0 0 0 0 0 0 0 0 0 0 0 0 0 0 0 0 0 0 0 2 70 217 215 74 125 377 750 1020 1048 967 763 736 749 509 489 315
0 0 0 0 0 0 0 0 0 0 0 0 0 0 0 0 0 0 0 0 0 0 0 0 0 0 0 0 0 0 0 0 13 85 179 79 58 364 457 824 1040 1015 874 652 728 560 487 423 189

GFSSGP_con_mlcape_075.txt.gz
CAPE
0 0 0 0 0 0 0 0 0 0 0 0 0 0 0 0 0 0 0 0 0 0 406 921 670 489 168 73 58 133 466 764 985 950 640 620 735 683 593 520 227 94 52 4 0 0 0 0 0
0 0 0 0 0 0 0 0 0 0 0 0 0 0 0 0 0 0 0 0 0 0 286 858 921 675 325 142 88 53 80 169 235 281 358 459 429 412 425 113 23 51 0 0 0 0 0 0 0
0 0 0 0 0 0 0 0 0 0 0 0 0 0 0 0 0 0 2 0 0 0 199 630 798 719 668 242 142 64 17 3 1 3 12 59 61 43 16 3 19 14 0 0 0 0 0 0 0
0 0 0 0 0 0 0 0 0 0 0 0 0 0 0 0 1 114 6 0 0 0 190 442 536 756 733 390 228 135 63 10 0 0 0 0 0 0 0 4 0 0 0 0 0 0 0 0 0
0 0 0 0 0 0 0 0 0 0 0 0 0 0 0 0 53 94 30 0 0 0 130 438 442 756 705 566 287 257 180 70 2 0 0 0 0 0 0 0 0 0 0 0 0 0 0 0 0
0 0 0 0 0 0 0 0 0 0 0 0 0 0 0 0 55 60 27 0 0 0 159 310 511 769 795 633 304 360 311 174 66 7 0 6 25 12 0 0 0 0 0 0 0 0 0 0 0
0 0 0 0 0 0 0 0 0 0 0 0 0 0 0 0 65 40 10 0 0 48 136 466 387 580 901 958 365 427 512 353 215 93 37 79 104 105 37 0 0 0 0 0 0 0 0 0 0
0 0 0 0 0 0 0 0 0 0 0 0 0 0 0 0 116 66 24 12 0 21 90 308 517 512 692 842 718 360 518 525 435 308 294 246 309 315 204 76 13 6 10 3 0 0 0 0 0
0 0 0 0 0 0 0 0 0 0 0 0 0 0 0 0 143 95 67 8 0 2 110 246 412 551 574 623 827 515 495 557 555 529 547 507 562 705 564 309 251 122 21 0 0 0 1 0 0
0 0 0 0 0 0 0 0 0 0 0 0 0 0 0 0 3 0 79 20 0 0 24 223 406 556 606 525 691 709 614 593 660 733 874 802 781 797 646 528 355 288 169 28 0 2 5 8 0
0 0 0 0 0 0 0 0 0 0 0 0 0 0 0 0 0 0 1 71 0 0 0 78 373 418 385 295 409 539 542 577 716 720 881 945 724 479 552 423 483 420 343 168 64 25 4 0 0
0 0 0 0 0 0 0 0 0 0 0 0 0 0 0 0 0 0 0 0 57 1 0 1 148 198 257 276 221 220 175 237 183 283 580 463 176 196 240 223 202 364 201 139 79 9 13 27 1
0 0 0 0 0 0 0 0 0 0 0 0 0 0 0 0 0 0 0 0 0 35 5 0 2 17 174 251 133 39 11 0 1 32 231 287 105 65 63 47 47 34 85 49 36 7 16 18 11
0 0 0 0 0 0 0 0 0 0 0 0 0 0 0 0 0 0 0 0 0 0 0 66 0 0 0 16 36 127 6 0 14 18 11 69 7 0 0 0 0 0 0 2 0 6 0 0 0
0 0 0 0 0 0 0 0 0 0 0 0 0 0 0 0 0 0 0 0 0 0 0 0 67 25 0 0 0 7 0 0 0 0 3 0 0 0 0 0 0 0 0 0 0 0 8 0 0
0 0 0 0 0 0 0 0 0 0 0 0 0 0 0 0 0 0 0 0 0 0 0 0 0 17 79 5 0 0 0 0 0 0 0 0 0 0 0 0 0 0 0 0 0 10 16 12 8
0 0 0 0 0 0 0 0 0 0 0 0 0 0 0 0 0 0 0 0 0 0 0 0 0 0 0 102 14 5 0 0 0 0 0 0 0 0 0 0 0 0 0 6 54 75 60 95 58
0 0 0 0 0 0 0 0 0 0 0 0 0 0 0 0 0 0 0 0 0 0 0 0 0 0 38 425 243 26 2 1 0 0 0 0 0 0 0 0 0 42 51 119 149 197 162 169 130
0 0 0 0 0 0 0 0 0 0 0 0 0 0 0 0 0 0 0 0 0 0 0 0 0 0 0 58 411 345 306 129 9 0 0 0 0 0 0 0 30 198 215 334 290 267 283 232 148
0 0 0 0 0 0 0 0 0 0 0 0 0 0 0 0 0 0 0 0 0 0 0 0 0 0 0 0 237 341 546 474 373 276 83 135 104 22 36 72 331 346 400 423 379 319 382 367 182
0 0 0 0 0 0 0 0 0 0 0 0 0 0 0 0 0 0 0 0 0 0 0 0 0 0 0 0 0 407 582 636 657 656 641 460 208 98 102 230 493 589 553 492 471 450 510 607 238
0 0 0 0 0 0 0 0 0 0 0 0 0 0 0 0 0 0 0 0 0 0 0 0 0 0 0 0 0 0 0 125 462 737 1000 738 390 278 398 563 745 895 616 631 579 547 582 587 584
0 0 0 0 0 0 0 0 0 0 0 0 0 0 0 0 0 0 0 0 0 0 0 0 0 0 0 0 0 0 0 30 434 648 757 860 769 473 789 1026 1089 903 842 788 720 649 595 493 682
0 0 0 0 0 0 0 0 0 0 0 0 0 0 0 0 0 0 0 0 0 0 0 0 0 0 0 0 0 0 0 0 6 387 525 558 820 1062 1208 1351 1107 1109 922 813 900 862 666 586 666
0 0 0 0 0 0 0 0 0 0 0 0 0 0 0 0 0 0 0 0 0 0 0 0 0 0 0 0 0 0 0 0 0 2 200 450 690 915 1083 1108 917 861 754 853 1112 1011 820 789 847
0 0 0 0 0 0 0 0 0 0 0 0 0 0 0 0 0 0 0 0 0 0 0 0 0 0 0 0 0 0 0 0 0 0 66 316 503 877 1078 944 852 823 721 1063 1164 1138 1150 1045 941
0 0 0 0 0 0 0 0 0 0 0 0 0 0 0 0 0 0 0 0 0 0 0 0 0 0 0 0 0 0 0 0 0 0 11 133 505 911 958 841 589 490 909 1328 1445 1409 1337 1163 948
0 0 0 0 0 0 0 0 0 0 0 0 0 0 0 0 0 0 0 0 0 0 0 0 0 0 0 0 0 0 0 0 0 0 0 75 389 621 620 578 544 626 1318 1513 1569 1532 1438 1132 681
0 0 0 0 0 0 0 0 0 0 0 0 0 0 0 0 0 0 0 0 0 0 0 0 0 0 0 0 0 0 0 0 0 0 0 90 419 567 694 576 584 884 1483 1670 1526 1391 1174 905 625
0 0 0 0 0 0 2 0 0 0 0 0 0 0 0 11 2 0 0 0 0 0 0 0 0 0 0 0 0 0 0 0 0 0 0 244 387 620 806 787 796 1215 1701 1664 1458 1359 886 657 550

GFSSGP_con_mlcape_078.txt.gz
CAPE
0 0 0 0 0 0 0 0 0 0 0 0 0 0 0 0 0 25 130 61 0 0 527 420 137 100 767 1046 1042 927 908 870 716 624 502 470 476 583 462 333 312 259 49 22 0 0 0 0 0
0 0 0 0 0 0 0 0 0 0 0 0 0 0 0 0 0 0 0 47 0 36 555 332 200 112 405 963 935 917 939 974 911 842 621 548 498 506 309 262 166 34 4 0 0 0 0 0 0
0 0 0 0 0 0 0 0 0 0 0 0 0 0 0 0 0 0 0 57 0 79 464 442 211 150 194 591 790 842 870 916 969 860 524 416 424 400 291 168 27 17 0 0 0 0 0 0 0
0 0 0 0 0 0 0 0 0 0 0 0 0 0 0 0 0 15 165 105 0 70 269 943 209 184 183 240 330 563 723 812 791 554 317 219 276 246 141 0 0 0 0 0 0 0 0 0 0
0 0 0 0 0 0 0 0 0 0 0 0 0 0 0 0 0 85 147 152 0 30 161 1270 394 271 292 310 242 207 354 465 364 243 174 90 113 80 0 0 0 0 0 0 0 0 0 0 0
0 0 0 0 0 0 0 0 0 0 0 0 0 0 0 0 0 52 162 144 27 0 142 903 874 543 432 506 321 243 190 192 173 172 100 34 38 24 0 0 0 0 0 0 0 0 0 0 0
0 0 0 0 0 0 0 0 0 0 0 0 0 0 0 0 0 35 151 104 23 3 147 675 859 866 516 525 613 399 289 240 226 225 165 74 68 38 49 24 0 0 0 0 0 0 0 0 0
0 0 0 0 0 0 0 0 0 0 0 0 0 0 0 0 0 0 166 100 18 46 126 375 468 501 553 613 727 716 632 450 362 344 304 226 164 128 118 101 24 0 0 0 0 0 0 0 0
0 0 0 0 0 0 0 0 0 0 0 0 0 0 0 0 0 0 16 174 39 52 98 246 256 302 302 308 636 767 727 787 640 558 576 430 171 369 227 116 132 23 25 42 19 2 0 0 0
0 0 0 0 0 0 0 0 0 0 0 0 0 0 0 0 0 0 0 135 63 29 27 149 210 224 234 184 342 712 564 505 483 427 539 477 201 262 276 223 174 224 107 73 63 25 10 6 0
0 0 0 0 0 0 0 0 0 0 0 0 0 0 0 0 0 0 0 1 167 26 20 113 392 459 354 203 314 467 341 355 388 436 559 642 314 401 515 318 513 317 241 129 81 38 2 0 0
0 0 0 0 0 0 0 0 0 0 0 0 1 0 0 0 0 0 0 0 5 106 50 73 334 734 811 370 327 318 258 274 288 396 789 762 705 556 381 160 137 248 179 214 90 27 14 3 0
0 0 0 0 0 0 0 0 0 0 0 0 0 0 0 0 0 0 0 0 0 0 102 69 142 486 728 627 319 272 261 198 244 341 647 704 502 341 264 158 108 75 107 59 86 13 0 13 10
0 0 0 0 0 0 0 0 0 0 0 0 0 0 0 0 0 0 0 0 0 0 0 2 183 283 435 220 254 302 352 186 205 123 182 628 436 295 212 200 123 42 18 4 1 15 19 31 24
0 0 0 0 0 0 0 0 0 0 0 0 0 0 0 0 0 0 0 0 0 0 0 0 219 462 490 294 428 191 143 172 130 84 143 260 476 276 253 63 55 4 2 20 6 40 90 61 91
0 0 0 0 0 0 0 0 0 0 0 0 0 0 0 0 0 0 0 0 0 0 0 0 0 15 572 714 389 279 194 68 65 48 48 213 320 273 221 28 13 0 10 44 34 111 166 232 263
0 0 0 0 0 0 0 0 0 0 0 0 0 0 0 0 0 0 0 0 0 0 0 0 0 0 20 728 560 555 415 264 80 32 0 54 160 219 95 0 0 0 1 21 103 217 322 472 579
0 0 0 0 0 0 0 0 0 0 0 0 0 0 0 0 0 0 0 0 0 0 0 0 0 0 0 116 988 450 412 402 251 37 20 34 106 113 84 3 3 1 0 1 210 430 634 672 887
0 0 0 0 0 0 0 0 0 0 0 0 0 0 0 0 0 0 0 0 0 0 0 0 0 0 0 0 0 74 604 510 412 449 190 37 113 147 110 19 1 0 0 4 573 853 930 1062 1031
0 0 0 0 0 0 0 0 0 0 0 0 0 0 0 0 0 0 0 0 0 0 0 0 0 0 0 0 0 0 0 67 898 663 721 331 168 164 171 63 108 82 30 367 943 1181 1089 1170 1265
0 0 0 0 0 0 0 0 0 0 0 0 0 0 0 0 0 0 0 0 0 0 0 0 0 0 0 0 0 0 0 11 232 438 902 1019 550 484 404 337 298 613 694 946 1325 1542 1311 1278 1375
0 0 0 0 0 0 0 0 0 0 0 0 0 0 0 0 0 0 0 0 0 0 0 0 0 0 0 0 0 0 0 0 0 55 581 1399 1381 1004 781 972 1130 927 1163 1225 1565 1607 1439 1643 1529
0 0 0 0 0 0 0 0 0 0 0 0 0 0 0 0 0 0 0 0 0 0 0 0 0 0 0 0 0 0 0 0 0 21 167 1481 2019 1708 1350 1309 1072 1241 1583 1730 1679 1581 1658 1655 1608
0 0 0 0 0 0 0 0 0 0 0 0 0 0 0 0 0 0 0 0 0 0 0 0 0 0 0 0 0 0 0 0 0 7 214 444 1406 1928 1727 1425 1531 1867 2052 1928 1847 1879 1847 1834 1643
0 1 0 0 0 0 0 0 0 0 0 0 0 0 0 0 0 0 0 0 0 0 0 0 0 0 0 0 0 0 0 0 2 0 0 211 754 1026 1804 1922 1803 2189 2421 2271 2051 2000 1960 1891 1426
18 12 5 1 0 1 0 0 0 0 0 0 0 0 0 0 0 0 0 0 0 0 0 0 0 0 0 0 0 0 0 0 0 0 0 12 306 818 1255 2507 2449 2542 2426 2296 2122 1979 1940 1577 1561
8 1 6 1 1 0 0 0 0 0 0 0 0 0 0 0 0 0 0 0 0 0 0 0 0 0 0 0 0 0 0 0 0 0 0 54 267 661 1128 2125 2422 2451 2206 2019 2091 1920 1902 1923 2011
0 7 9 3 0 0 0 0 0 0 0 0 0 1 0 0 0 0 0 0 0 0 0 0 0 0 0 0 0 0 0 0 0 0 0 1 219 646 651 1976 2253 2236 2043 2027 2062 2108 2305 2241 2176
9 1 6 9 24 16 0 3 0 0 0 0 0 0 1 0 0 0 0 0 0 0 0 0 0 0 0 0 0 0 0 0 0 0 0 0 208 511 571 1453 2020 2060 1830 2039 2338 2401 2371 2249 2005
2 0 31 14 8 5 11 0 0 0 0 0 0 0 0 0 0 0 0 0 0 0 0 0 0 0 0 0 0 0 0 0 0 0 0 11 100 391 307 1187 1687 1559 1700 2274 2558 2475 2101 2024 1886

GFSSGP_con_mlcape_081.txt.gz
CAPE
0 0 0 0 0 0 0 0 0 0 0 0 0 0 0 0 0 0 21 37 0 250 102 189 111 147 589 1337 1175 803 593 402 269 260 359 363 368 323 266 257 293 375 101 27 0 0 0 0 0
0 0 0 0 0 0 0 0 0 0 0 0 0 0 0 0 0 0 0 27 0 308 223 78 104 245 374 1220 1306 960 722 653 438 454 414 399 408 341 261 178 270 135 53 4 0 0 0 0 0
0 0 0 0 0 0 0 0 0 0 0 0 0 0 0 0 0 0 0 83 17 193 389 121 129 162 200 912 1483 1103 898 822 621 613 489 497 452 349 246 197 100 44 0 0 0 0 0 0 0
0 0 0 0 0 0 0 3 0 0 0 0 0 0 0 0 0 0 73 158 150 80 481 388 157 100 123 520 1115 1216 1111 1091 969 883 656 596 534 376 259 159 51 25 0 0 0 0 0 0 0
0 0 0 0 0 0 0 0 6 0 0 0 0 0 0 0 0 0 157 197 163 57 359 813 151 197 134 207 790 1074 1210 1255 1234 1196 973 777 566 295 184 99 19 21 0 0 0 0 0 0 0
0 0 0 0 0 0 0 0 0 0 0 0 0 0 0 0 0 0 150 212 187 44 266 1285 262 362 181 120 392 753 1054 1236 1258 1347 1162 879 566 223 119 30 9 2 0 0 0 0 0 0 0
0 0 0 0 0 0 0 0 0 0 0 0 0 0 0 3 0 0 13 175 204 67 241 1609 455 658 388 226 130 287 626 871 1005 1017 818 688 452 223 86 11 15 2 5 9 0 0 0 0 0
0 0 0 0 0 0 0 0 0 0 0 0 0 0 0 4 0 0 0 213 108 104 206 1091 421 460 530 571 273 214 273 412 513 554 446 388 306 199 125 69 40 16 0 13 0 0 0 0 0
0 0 0 0 0 0 3 0 0 0 0 0 1 0 0 0 0 0 0 95 179 83 205 455 373 352 311 244 612 392 365 374 375 438 496 334 90 207 163 90 103 16 7 7 3 0 0 0 0
0 0 0 0 0 0 9 8 0 0 0 0 0 0 0 0 0 0 0 0 295 113 161 246 304 291 270 172 376 415 359 317 248 177 268 329 84 118 193 142 78 153 90 34 49 28 2 0 0
0 0 0 0 0 0 1 8 28 1 1 0 5 1 0 0 0 0 0 0 40 178 107 173 325 390 293 185 234 504 200 246 286 281 354 510 175 174 263 257 418 413 287 136 90 60 4 0 0
0 0 0 0 0 0 0 0 0 33 0 0 0 0 0 0 0 0 0 0 1 216 73 113 305 496 514 285 182 332 229 263 251 338 784 724 699 475 443 387 254 577 331 341 146 183 156 59 6
0 0 0 0 0 0 0 0 0 0 31 0 0 0 0 1 0 0 0 0 1 54 220 106 208 761 1205 1246 762 389 472 274 290 307 649 731 723 688 672 576 197 125 179 185 278 180 123 75 71
0 0 0 0 0 0 0 0 0 0 0 0 0 0 0 0 0 0 0 0 0 30 0 25 232 457 1042 1203 1222 844 674 371 340 307 432 1142 977 887 544 461 259 134 59 37 44 114 147 125 113
0 0 0 0 0 0 0 0 0 0 0 0 0 0 0 0 0 0 0 0 0 7 0 8 332 547 863 885 906 870 505 403 245 215 443 614 1188 905 765 305 257 100 57 26 37 89 138 209 226
0 0 0 0 0 0 0 0 0 0 0 0 0 0 0 0 0 0 0 0 0 0 25 0 0 236 1085 1037 776 950 511 236 202 101 192 309 617 872 729 336 120 66 27 35 86 93 206 281 383
0 0 0 0 0 0 0 0 0 0 0 0 0 0 0 0 0 0 0 0 0 0 0 0 4 0 146 957 1043 1017 675 596 319 167 118 163 348 481 525 317 89 165 25 69 74 75 361 478 679
0 0 0 0 0 0 0 0 0 0 0 0 0 0 0 0 0 0 0 0 0 0 0 0 0 0 0 45 948 928 779 827 768 555 333 205 199 367 607 292 161 183 81 106 74 270 618 787 782
0 0 0 0 0 0 0 0 0 0 0 0 0 0 0 0 0 0 0 0 0 0 0 0 0 0 0 0 0 58 548 886 805 788 791 552 258 384 602 395 220 226 58 28 297 614 1034 1168 1247
0 0 0 0 0 0 0 0 0 0 0 0 0 0 0 0 0 0 0 0 0 0 0 0 0 0 0 0 0 0 0 18 67 887 973 1042 772 409 430 532 355 195 65 352 542 966 1297 1557 1308
0 0 0 0 0 0 0 0 0 0 0 0 0 0 0 0 0 0 0 0 0 0 0 0 0 0 0 0 0 0 0 3 2 120 544 1224 1397 1072 791 686 608 381 477 237 840 1699 1805 1278 1140
0 0 0 0 0 0 0 0 0 0 0 0 0 0 0 0 0 0 0 0 0 0 0 0 0 0 0 0 0 0 0 0 3 83 112 133 797 1712 1465 1046 1100 1038 1082 529 1687 2331 2213 2035 924
0 0 0 0 0 0 0 0 0 0 0 0 0 0 0 0 0 0 0 0 0 0 0 0 0 0 0 0 0 0 0 0 0 0 3 14 0 679 2174 1853 1630 1556 1641 1665 1834 2514 2504 2138 1461
0 0 0 0 0 0 0 0 0 0 0 0 0 0 0 0 0 0 0 0 0 0 0 0 0 0 0 0 0 0 0 0 5 12 0 0 0 0 521 1730 2175 2046 2405 1991 2565 2911 2893 2143 2082
2 8 5 19 16 0 0 0 0 0 0 0 0 0 0 0 0 0 0 0 0 0 0 0 0 0 0 0 0 0 0 0 0 0 0 4 159 0 0 214 1859 2219 2394 2634 3059 2967 2819 2752 2213
9 16 45 26 42 35 0 0 5 0 0 0 0 0 0 0 0 0 0 0 0 0 0 0 0 0 0 0 0 0 0 0 0 0 0 0 1 189 689 242 1988 2396 2464 3019 3252 3019 2927 2712 2435
13 18 29 23 31 25 0 0 0 0 0 0 0 0 0 0 0 0 0 0 1 2 0 0 0 0 0 0 0 0 0 0 0 0 0 8 6 23 269 1126 2540 3004 3097 3205 3467 2821 2958 2724 2614
5 8 15 30 13 12 2 0 0 0 0 0 0 0 0 0 0 0 0 0 0 4 2 0 0 0 0 0 0 0 0 0 0 0 0 0 0 145 395 853 1363 3087 3407 3452 3330 2877 2885 2638 2333
26 19 17 15 23 37 18 10 6 0 2 0 0 0 5 3 7 1 0 0 2 1 2 3 0 0 0 0 0 0 0 0 0 0 0 0 22 62 14 806 1597 2660 3154 3359 3192 2870 2491 2474 2581
10 29 17 9 22 22 22 1 4 0 1 0 0 0 13 29 25 13 0 0 10 15 8 5 2 0 0 0 0 0 0 0 0 0 0 0 5 101 253 683 348 2336 2859 3058 3005 2587 2147 2530 2853

GFSSGP_con_mlcape_084.txt.gz
CAPE
0 0 0 0 0 0 0 0 0 0 0 0 0 0 0 0 0 63 21 25 634 133 130 298 384 445 621 1025 836 529 176 18 4 5 136 136 189 276 246 131 194 183 39 0 0 0 0 0 0
0 0 0 0 0 0 0 0 0 0 0 0 0 0 0 0 0 0 7 19 506 241 113 258 523 467 333 791 1101 796 366 171 115 116 300 235 290 261 122 93 156 62 12 0 0 0 0 0 0
0 0 0 0 0 0 0 9 28 2 0 0 0 0 0 0 0 0 0 60 269 473 151 350 371 578 157 549 1111 1145 645 422 293 322 414 353 377 286 80 104 99 48 29 0 0 0 0 0 0
0 0 0 0 0 0 0 0 33 28 0 0 0 0 0 0 0 0 0 129 91 752 224 606 191 579 229 246 821 1250 997 768 558 557 568 510 519 333 130 100 50 31 10 0 0 0 0 0 0
0 0 0 0 0 0 1 0 22 40 12 0 0 0 0 0 0 0 0 168 162 246 421 583 131 667 651 189 603 1099 1195 1085 879 800 706 649 631 436 172 89 0 8 0 0 0 0 0 0 0
0 0 0 0 0 0 0 0 43 3 0 1 0 0 0 1 0 0 0 226 242 148 656 565 192 411 852 470 501 1047 1236 1350 1288 1121 922 767 689 496 180 79 0 0 0 0 0 0 0 0 0
0 0 0 0 0 0 0 0 0 0 3 7 0 2 0 0 0 0 0 176 208 212 1067 825 299 331 759 834 412 725 1078 1311 1385 1313 1220 873 684 420 146 66 0 0 0 0 0 0 0 0 0
0 0 0 0 0 0 0 0 0 0 0 0 0 0 0 0 0 0 0 32 151 164 1541 1345 411 249 529 774 759 495 664 772 1006 1152 1109 879 620 359 155 50 0 9 0 0 0 0 0 0 0
0 0 0 0 0 0 0 0 0 0 0 0 0 0 0 0 0 0 0 0 233 109 1368 1439 410 354 450 443 797 492 362 359 529 615 615 480 387 288 138 29 36 9 0 0 0 0 0 0 0
0 0 0 0 0 0 0 0 2 0 0 0 0 0 0 7 0 0 0 0 22 205 248 1129 369 376 382 235 738 443 449 298 216 203 300 170 135 151 209 156 55 60 50 26 4 3 0 0 0
0 0 0 0 0 0 0 0 0 4 0 0 0 0 4 29 2 0 0 0 3 85 195 699 435 433 377 228 835 485 547 431 329 215 278 477 179 158 231 293 224 182 161 128 112 36 0 0 0
0 0 0 0 0 0 0 0 0 7 3 2 0 0 1 0 0 0 0 0 0 23 232 347 700 631 424 310 846 801 309 415 434 404 458 709 485 404 305 398 474 508 715 423 193 165 159 63 7
0 0 0 0 0 0 0 0 0 0 0 5 2 0 0 0 0 0 0 0 0 10 102 168 502 913 1218 1370 1434 1209 342 390 403 564 577 726 1315 556 893 489 773 798 791 649 496 305 282 243 195
0 0 0 0 0 0 0 0 0 0 0 0 7 0 0 0 0 0 0 0 0 24 17 28 318 444 868 965 1387 1180 1128 658 455 465 835 968 921 1336 727 1048 649 425 257 203 423 339 238 231 158
0 0 0 0 0 0 0 0 0 0 0 0 0 0 3 0 0 0 0 0 0 0 3 38 508 424 576 973 1393 1262 1062 632 774 530 909 1128 1185 1268 1261 998 667 474 312 177 80 55 163 250 275
0 0 0 0 0 0 0 0 0 0 0 0 0 0 0 0 0 0 0 0 0 0 0 0 9 721 578 983 819 980 717 695 589 335 458 1271 1388 1112 1092 979 696 519 338 243 85 93 117 170 251
0 0 0 0 0 0 0 0 0 0 0 0 0 0 0 0 0 0 0 0 0 0 0 3 4 635 934 1316 1353 861 1116 882 383 345 348 508 750 1319 943 1095 654 561 245 149 147 138 164 241 430
0 0 0 0 0 0 0 0 0 0 0 0 0 0 0 0 0 0 0 0 0 0 0 0 27 93 1136 639 989 1311 896 802 988 715 426 356 579 669 1140 777 1018 494 370 129 159 178 262 272 824
0 0 0 0 0 0 0 0 0 0 0 0 0 0 0 0 0 0 0 0 0 0 0 20 1 17 81 51 8 19 83 994 772 958 818 619 498 259 694 1020 496 746 531 206 127 167 129 760 1178
0 0 0 0 0 0 0 0 0 0 0 0 0 0 0 0 0 0 0 0 0 0 0 0 4 7 13 7 3 7 2 0 26 539 981 857 837 427 551 605 739 563 304 236 320 322 206 693 1134
0 0 0 0 0 0 0 0 0 0 0 0 0 0 0 0 0 0 0 0 0 0 0 0 0 0 0 2 0 0 0 0 0 0 0 431 1531 820 470 510 705 576 396 179 358 762 581 760 1996
0 0 0 0 0 0 0 0 0 0 0 0 0 0 0 0 0 0 0 0 0 0 0 0 0 0 0 0 0 0 0 0 0 0 0 9 722 1397 1322 597 805 615 735 504 342 818 828 1517 1118
0 0 0 0 0 0 0 1 0 0 0 0 0 0 0 0 0 0 0 0 0 0 0 0 0 0 0 0 0 0 0 11 0 0 0 0 143 307 1852 1794 1328 1321 994 713 1407 852 1560 2214 2243
0 0 0 0 0 1 0 3 0 0 0 0 0 0 0 0 0 0 0 0 0 0 0 0 0 0 0 0 0 0 0 0 0 0 0 0 15 33 31 718 1919 1567 1418 1629 1454 1256 1566 2676 1928
0 0 0 3 17 6 1 24 25 0 0 0 1 0 0 0 0 0 1 7 0 0 0 0 0 0 2 0 0 0 0 0 4 0 0 0 0 16 219 386 2254 2058 1965 1912 2320 1870 1899 2087 2019
0 2 12 2 6 55 24 1 0 0 0 0 0 0 0 0 0 0 0 15 10 9 9 0 0 0 0 0 0 0 0 1 9 0 1 0 0 0 5 196 93 780 1964 1850 1864 2049 2254 1714 2135
17 27 14 20 22 8 2 0 0 0 0 0 0 0 0 0 0 0 5 1 0 0 9 15 2 0 18 0 0 0 0 0 0 3 6 14 73 20 19 2 158 736 786 788 38 7 217 1782 1619
10 8 6 18 8 19 2 10 34 13 22 0 0 0 0 0 0 0 8 4 2 0 0 28 17 14 0 8 10 0 0 0 0 0 1 0 0 3 0 13 107 94 2004 1878 1051 569 1381 2054 1709
40 51 12 9 29 18 0 0 13 40 29 0 0 0 0 0 0 0 1 13 13 1 4 28 50 36 27 15 3 0 0 0 0 0 0 1 9 28 7 0 0 63 1015 2509 2674 2660 2464 2520 2598
32 22 32 62 30 21 49 0 58 0 2 10 0 0 0 0 0 2 13 10 5 0 10 22 39 29 35 7 0 0 6 1 6 0 0 0 0 43 68 29 2 0 193 1623 2770 2717 2852 2782 3032

GFSSGP_con_mlcape_087.txt.gz
CAPE
0 0 0 0 0 0 0 0 0 0 0 0 0 0 0 2 22 0 50 205 22 0 202 770 1144 920 732 437 288 110 0 0 0 0 0 120 158 91 37 20 11 0 0 0 0 0 0 0 0
0 0 0 0 0 0 0 0 3 0 0 0 0 0 0 0 0 0 0 302 13 0 28 330 1019 929 644 433 355 254 32 4 18 52 32 80 85 27 0 0 0 0 0 0 0 0 0 0 0
0 0 0 0 0 0 0 0 2 10 0 0 0 0 0 0 0 0 6 249 233 0 0 82 733 1018 719 536 488 474 217 96 87 169 166 172 85 3 0 0 0 0 0 0 0 0 0 0 0
0 0 0 0 0 0 0 0 0 32 1 0 0 0 0 0 0 0 7 182 309 31 11 113 439 957 853 638 661 698 483 421 308 340 364 339 263 33 8 11 0 0 0 0 0 0 0 0 0
0 0 0 0 0 0 0 0 0 4 7 0 0 0 0 0 0 0 28 49 308 223 69 91 247 845 1172 634 707 843 674 652 522 487 520 493 281 81 37 23 0 0 0 0 0 0 0 0 0
0 0 0 0 0 0 0 0 0 0 2 5 0 0 0 0 0 0 0 42 63 325 215 91 128 640 1216 1111 801 945 904 846 738 691 645 578 395 240 92 52 0 0 0 0 0 0 0 0 0
0 0 0 0 0 0 0 0 0 0 0 0 0 0 0 0 0 0 0 45 68 314 367 153 74 413 1048 1437 920 936 978 983 1007 903 808 694 591 381 174 79 6 0 0 0 0 0 0 0 0
0 0 0 0 0 0 0 0 0 6 10 0 0 0 0 0 0 0 0 0 376 579 571 177 70 164 761 1184 1249 940 951 1016 956 979 998 844 602 423 208 88 20 0 0 0 0 0 0 0 0
0 0 0 0 0 0 0 0 0 0 0 0 0 0 0 0 0 0 0 0 574 884 636 412 125 67 265 755 1265 1064 996 1015 1027 969 913 791 440 263 127 60 2 0 0 0 0 0 0 0 0
0 0 0 0 0 0 0 0 0 0 0 0 0 0 0 0 0 0 0 0 20 1164 1118 472 214 68 95 348 668 902 905 850 685 714 635 333 153 98 43 26 0 0 0 0 0 0 0 0 0
0 0 0 0 0 0 0 0 0 0 0 0 0 0 0 0 0 0 0 0 0 5 598 630 348 160 134 323 529 332 371 277 307 270 192 106 46 27 164 169 217 168 162 133 104 13 0 0 0
0 0 0 0 0 0 0 0 0 0 0 0 0 0 0 0 0 0 0 0 0 33 499 471 448 291 178 412 504 302 163 108 124 175 180 77 13 5 67 216 239 250 193 228 206 140 43 11 24
0 0 0 0 0 0 0 0 0 0 0 1 3 0 0 0 0 0 0 0 0 0 271 792 642 521 649 627 818 468 310 246 125 141 258 315 177 91 216 186 343 306 351 549 417 245 165 128 146
0 0 0 0 0 0 0 0 0 0 0 0 0 1 0 0 0 0 0 0 0 10 107 223 969 977 879 1029 1227 1113 975 372 338 308 240 342 558 523 248 643 550 723 762 810 661 360 279 255 217
0 0 0 0 0 0 0 0 0 0 0 0 0 0 0 0 0 0 0 0 0 0 20 192 486 493 394 776 1317 1119 734 975 602 536 511 516 437 773 1051 569 724 483 386 268 280 404 424 427 325
0 0 0 0 0 0 0 0 0 0 0 0 0 0 0 0 0 0 0 0 0 0 0 0 322 232 282 573 742 909 895 632 559 557 882 830 882 693 728 1138 942 583 313 296 154 64 32 73 82
0 0 0 0 0 0 0 0 0 0 0 0 0 0 0 0 0 0 0 0 0 0 0 0 98 286 426 372 487 343 607 802 621 430 340 1002 1169 1235 1042 879 980 701 612 375 228 153 84 78 37
0 0 0 0 0 0 0 0 0 0 0 0 0 0 0 0 0 0 0 0 0 0 0 0 106 573 357 318 312 566 649 367 481 526 279 232 842 1433 1083 904 916 725 532 399 178 119 140 125 47
0 0 0 0 0 0 0 0 0 0 0 0 0 0 0 0 0 0 0 0 0 0 0 0 31 606 487 355 172 0 2 916 890 777 853 564 421 739 1246 920 680 730 816 443 217 155 155 141 152
0 0 0 0 0 0 0 0 0 0 0 0 0 0 0 0 0 0 0 0 0 0 0 0 30 146 427 400 313 227 19 30 841 891 1206 1068 795 574 421 549 547 535 357 404 369 308 155 134 266
0 0 0 0 0 0 0 0 0 0 0 0 0 0 0 0 0 0 0 0 0 0 0 0 0 20 1 21 15 23 52 26 29 265 272 940 1148 756 626 560 399 412 510 370 240 245 157 30 213
0 0 0 0 0 0 0 0 0 0 0 0 0 0 0 0 0 0 0 0 0 0 0 0 0 0 0 3 1 0 3 7 0 0 0 0 0 237 986 542 514 455 472 419 295 256 196 309 142
0 0 0 0 0 0 0 0 0 0 0 0 0 0 0 0 0 0 0 0 0 0 0 0 0 0 0 0 0 0 0 4 59 1 0 0 1 144 1242 824 655 766 645 548 550 427 397 678 529
0 0 0 0 0 0 0 0 0 0 0 0 0 0 0 0 0 0 0 0 0 0 0 0 0 0 0 0 0 0 0 0 0 0 2 3 3 4 0 251 1065 808 952 840 731 749 866 1047 1205
0 0 0 0 0 0 0 0 0 0 0 0 0 0 0 0 0 0 0 0 0 0 0 0 0 0 0 0 0 0 0 0 0 0 0 0 0 0 0 42 18 46 302 1013 1174 924 954 1093 1113
0 0 0 0 0 0 0 0 0 0 15 0 0 0 0 0 0 0 0 0 0 0 0 0 0 0 0 0 0 0 0 0 0 0 8 4 0 0 0 0 80 123 418 955 1299 1570 1478 1401 1376
0 0 1 1 0 0 0 0 0 9 19 4 0 0 0 0 0 0 0 0 0 0 0 0 0 0 0 9 9 0 0 0 0 0 0 0 17 68 98 44 9 0 44 405 1430 1257 1628 1932 1633
0 0 0 1 1 0 0 0 0 2 16 70 0 0 0 0 0 0 0 0 0 0 0 2 3 0 0 4 0 0 0 0 0 0 0 0 0 4 7 2 5 4 3 98 267 938 941 1207 1583
0 1 0 1 1 12 0 0 30 44 1 0 5 0 0 0 0 0 0 0 0 0 0 0 4 1 2 10 4 0 0 0 0 0 0 0 0 0 7 22 15 0 0 0 24 630 584 275 765
0 2 0 1 0 0 0 0 0 23 9 0 0 0 0 0 0 0 0 0 0 0 0 0 0 15 13 17 15 9 1 0 0 0 0 0 0 0 0 4 33 22 7 0 0 4 1345 1286 1795

GFSSGP_con_mlcape_090.txt.gz
CAPE
0 0 0 0 0 0 0 0 0 0 0 0 0 0 10 13 8 4 117 31 22 34 617 887 897 795 178 14 0 0 0 0 0 0 0 0 4 0 0 0 0 0 0 0 0 0 0 0 0
0 0 0 0 0 0 0 0 0 0 0 0 0 0 0 0 0 55 94 133 10 79 410 681 889 894 368 124 3 0 0 0 0 0 32 50 24 9 0 0 0 0 0 0 0 0 0 0 0
0 0 0 0 0 0 0 0 0 0 0 0 0 0 0 0 0 6 60 10 0 42 407 626 793 937 582 209 70 41 25 21 0 0 41 93 35 0 0 0 0 0 0 0 0 0 0 0 0
0 0 0 0 0 0 0 0 0 0 0 0 0 0 0 0 0 13 55 15 0 25 151 944 572 870 742 364 162 89 82 101 128 79 77 49 29 0 0 0 0 0 0 0 0 0 0 0 0
0 0 0 0 0 0 0 0 0 0 0 0 0 0 0 0 0 10 75 28 0 3 123 698 707 784 933 643 392 195 180 152 289 264 201 194 87 25 12 0 0 0 0 0 0 0 0 0 0
0 0 0 0 0 0 0 0 0 0 5 0 0 0 0 0 0 0 27 112 5 0 105 640 710 741 1005 922 676 403 321 284 326 444 379 311 181 68 39 10 0 0 0 0 0 0 0 0 0
0 0 0 0 0 0 0 0 0 0 0 0 0 0 0 0 0 0 0 30 131 20 85 401 758 789 1042 1140 888 654 492 446 393 432 459 391 298 160 62 36 0 0 0 0 0 0 0 0 0
0 0 0 0 0 0 0 0 0 0 0 0 0 0 0 0 0 0 0 77 117 264 135 252 612 828 792 1231 1137 886 726 652 543 449 475 397 328 205 89 47 19 0 0 0 0 0 0 0 0
0 0 0 0 0 0 0 0 0 0 0 0 0 0 0 0 0 0 0 352 405 529 329 201 455 596 498 1019 1326 1223 1087 969 889 804 621 546 301 213 103 47 19 0 0 0 0 0 0 0 0
0 0 0 0 0 0 0 0 0 0 0 0 2 0 0 0 0 0 0 94 778 609 435 203 268 537 424 628 1083 1321 1385 1337 1154 1058 970 597 272 106 55 38 12 0 0 0 0 0 0 0 0
0 0 0 0 0 0 0 0 0 0 0 0 0 0 0 0 0 0 0 0 110 832 610 382 146 350 539 348 513 839 1138 1037 974 868 810 590 306 123 65 11 96 63 99 108 106 70 57 0 0
0 0 0 0 0 0 0 0 0 0 0 0 0 0 0 0 0 0 0 0 44 263 788 656 352 216 347 627 373 372 491 503 501 625 575 352 96 16 11 12 94 185 202 209 160 151 122 57 4
0 0 0 0 0 0 0 0 0 0 0 0 0 0 0 0 0 0 0 0 77 118 500 812 518 241 231 515 298 251 146 124 69 159 237 150 11 0 0 4 102 199 250 264 226 266 218 152 98
0 0 0 0 0 0 0 0 0 0 0 0 0 0 0 0 0 0 0 0 1 219 581 900 682 468 408 666 627 459 342 247 131 64 125 183 33 0 0 21 128 253 355 347 363 451 431 277 195
0 0 0 0 0 0 0 0 0 0 0 0 0 0 0 0 0 0 0 0 0 53 843 914 759 750 1061 948 1090 976 769 506 424 297 199 239 224 97 56 94 327 495 589 595 611 551 445 437 332
0 0 0 0 0 0 0 0 0 0 0 0 0 0 0 0 0 0 0 0 0 0 270 1028 1095 989 1197 1779 1816 1341 1095 765 611 500 510 472 402 432 433 470 348 421 569 455 370 244 168 197 231
0 0 0 0 0 0 0 0 0 0 0 0 0 0 0 0 0 0 0 0 0 0 4 465 988 745 327 756 878 989 1046 787 716 594 603 857 754 625 557 890 980 914 781 576 375 276 203 134 82
0 0 0 0 0 0 0 0 0 0 0 0 0 0 0 0 0 0 0 0 0 0 0 121 608 592 315 404 627 569 738 762 752 596 353 358 937 1207 907 748 815 852 814 686 453 382 226 150 86
0 0 0 0 0 0 0 0 0 0 0 0 0 0 0 0 0 0 0 0 0 0 0 0 229 789 972 963 642 447 185 308 440 195 233 166 285 768 1458 1252 1167 938 746 556 455 363 268 179 164
0 0 0 0 0 0 0 0 0 0 0 0 0 0 0 0 0 0 0 0 0 0 0 1 1 352 800 670 517 228 118 324 489 846 740 903 854 816 893 1314 1249 834 684 594 556 412 283 207 206
0 0 0 0 0 0 0 0 0 0 0 0 0 0 0 0 0 0 0 0 0 0 0 0 21 26 428 371 243 196 158 143 125 233 410 911 1103 882 828 795 814 547 518 436 390 337 262 250 226
0 0 0 0 0 0 0 0 0 0 0 0 0 0 0 0 0 0 0 0 0 0 0 0 0 0 10 142 225 142 100 94 17 19 55 214 185 107 372 648 539 618 524 472 427 365 311 244 181
0 0 0 0 0 0 0 0 0 0 0 0 0 0 0 0 0 0 0 0 1 0 0 0 0 0 0 0 0 0 32 0 5 1 0 5 6 6 32 89 384 669 592 483 522 457 402 356 312
0 0 0 0 0 0 0 0 0 0 0 0 0 0 0 0 0 0 0 1 0 0 0 0 0 0 0 0 0 0 0 0 0 0 0 0 4 9 59 10 131 494 652 702 675 706 577 528 533
0 0 0 0 0 0 0 0 0 0 0 0 0 0 0 0 0 0 0 42 0 0 0 0 0 0 0 0 0 0 0 0 0 0 0 0 0 0 61 121 99 174 443 515 529 452 322 398 733
0 0 0 0 0 0 0 0 0 0 0 0 0 0 0 0 0 1 15 42 12 0 0 0 0 0 0 0 0 0 0 0 0 0 0 0 0 0 3 6 2 3 34 60 215 456 536 559 872
0 0 0 0 0 0 0 0 0 0 0 0 0 0 0 4 0 0 0 0 0 0 0 0 0 0 0 0 0 0 0 0 0 0 0 0 0 0 5 24 137 129 119 46 62 254 412 894 647
0 0 0 0 0 0 0 0 0 0 0 0 0 0 0 0 0 0 0 0 0 0 0 0 0 0 0 0 0 0 0 0 0 0 0 0 0 0 0 0 8 11 29 29 64 74 313 464 929
0 0 0 0 0 4 2 0 0 0 0 0 0 0 0 0 0 0 0 2 0 1 2 0 0 0 0 0 0 0 0 0 0 0 0 0 0 0 0 0 0 12 50 28 32 0 0 34 429
0 0 0 0 0 2 0 0 0 0 0 0 0 0 0 0 0 0 0 0 0 0 0 0 0 0 0 0 0 0 0 0 0 0 0 0 0 0 0 0 0 0 79 138 90 48 15 26 36

GFSSGP_con_mlcape_093.txt.gz
CAPE
0 0 0 0 0 0 0 0 0 0 0 0 0 0 0 0 9 8 42 74 33 84 538 816 588 112 19 0 0 0 0 0 4 36 72 109 101 52 9 0 0 0 0 0 0 0 0 0 0
0 0 0 0 0 0 0 0 0 0 0 0 0 0 0 0 7 53 98 33 58 54 427 838 621 168 47 0 0 0 0 0 16 57 48 38 9 0 0 0 0 0 0 0 0 0 0 0 0
0 0 0 0 0 0 0 0 0 0 0 0 0 0 0 0 0 8 23 48 50 41 310 808 776 193 68 17 0 0 0 0 42 48 21 16 0 0 0 0 0 0 0 0 0 0 0 0 0
0 0 0 0 0 0 0 0 0 0 0 0 0 0 0 0 0 0 54 89 20 59 515 949 1013 331 100 38 10 0 17 0 20 71 84 61 6 0 0 0 0 0 0 0 0 0 0 0 0
0 0 0 0 0 0 0 0 0 0 0 0 0 0 0 0 0 3 12 10 0 18 456 1172 1047 592 188 95 78 55 61 24 16 36 69 51 15 0 7 0 0 0 0 0 0 0 0 0 0
0 0 0 0 0 0 0 0 0 0 0 0 0 0 0 0 0 0 0 0 1 11 398 1040 1218 832 364 212 149 147 151 138 66 31 90 66 24 7 17 4 0 0 0 0 0 0 0 0 0
0 0 0 0 0 0 0 0 0 0 0 0 0 0 0 0 0 11 100 11 0 98 701 1099 1387 1106 661 406 252 254 237 222 154 79 44 78 29 21 19 14 0 0 0 0 0 0 0 0 0
0 0 0 0 0 0 0 0 0 0 0 0 0 0 0 0 0 0 74 114 11 93 479 913 1201 1318 1024 807 531 359 345 302 254 157 83 47 46 21 21 11 0 0 0 0 0 0 0 0 0
0 0 0 0 0 0 0 0 0 0 0 0 0 0 0 0 4 77 133 187 214 157 312 715 899 1165 1132 1006 941 632 555 536 501 447 265 163 86 59 32 21 0 0 0 0 0 0 0 0 0
0 0 0 0 0 0 0 0 0 0 0 0 0 0 0 0 0 21 77 123 293 339 159 533 706 788 938 981 1303 1021 896 929 823 796 630 319 178 82 39 27 13 0 0 0 0 0 0 0 0
0 0 0 0 0 0 0 0 0 0 0 0 0 0 0 0 0 4 72 40 70 563 516 364 476 711 794 959 1324 1115 1202 1080 1022 917 846 538 316 222 140 37 53 26 7 0 30 66 66 20 0
0 0 0 0 0 0 0 0 0 0 0 0 0 0 0 0 0 0 36 165 364 672 728 467 437 404 524 774 828 958 1157 977 849 934 877 620 422 210 88 11 0 18 53 86 110 124 141 121 77
0 0 0 0 0 0 0 0 0 0 0 0 0 0 0 0 0 0 0 57 313 462 729 591 385 436 438 583 580 659 817 820 806 758 832 662 418 254 75 2 0 29 155 212 221 224 193 221 174
0 0 0 0 0 0 0 0 0 0 0 0 0 0 0 0 0 0 0 32 156 386 734 784 652 426 408 374 363 366 454 536 583 511 459 536 322 152 34 0 0 7 142 226 257 302 303 345 303
0 0 0 0 0 0 0 0 0 0 0 0 0 0 0 0 0 0 0 0 28 120 472 830 972 673 438 518 365 303 278 351 368 277 259 306 265 79 8 0 0 0 135 228 374 422 450 503 335
0 0 0 0 0 0 0 0 0 0 0 0 0 0 0 0 0 0 0 0 11 134 406 859 1195 858 633 606 581 563 487 112 202 423 256 210 189 222 95 54 40 86 276 487 533 546 469 332 290
0 0 0 0 0 0 0 0 0 0 0 0 0 0 0 0 0 0 0 0 0 130 469 831 1204 1033 869 786 833 999 990 772 630 520 563 576 501 451 384 333 376 428 475 407 514 450 291 233 190
0 0 0 0 0 0 0 0 0 0 0 0 0 0 0 0 0 0 0 0 0 5 555 890 1178 1251 1292 1523 1412 1425 1329 1114 765 383 340 597 911 946 791 708 598 695 995 960 753 624 394 298 239
0 0 0 0 0 0 0 0 0 0 0 0 0 0 0 0 0 0 0 0 0 0 75 863 1094 1229 1413 1570 1668 1525 1487 1122 917 840 808 665 650 616 647 640 930 898 732 824 766 631 510 362 235
0 0 0 0 0 0 0 0 0 0 0 0 0 0 0 0 0 0 0 0 0 0 29 215 1132 1287 1232 1045 918 786 895 1207 1047 894 754 542 305 145 227 325 443 514 601 839 839 625 489 337 221
0 0 0 0 0 0 0 0 0 0 0 0 0 0 0 0 0 0 0 0 0 0 0 35 337 978 995 892 614 288 204 229 668 747 1011 911 619 286 87 14 83 207 609 461 568 612 501 431 272
0 0 0 0 0 0 0 0 0 0 0 0 0 0 0 0 0 0 0 0 0 0 0 9 122 500 923 931 868 682 457 301 107 76 60 316 1061 803 223 8 94 421 751 850 678 538 460 359 330
0 0 0 0 0 0 0 0 0 0 0 0 0 0 0 0 0 0 0 0 0 0 0 101 155 206 429 663 641 515 366 204 94 39 52 36 0 37 176 562 683 459 582 275 212 184 437 370 366
0 0 0 0 0 0 0 0 0 0 0 0 0 0 0 0 0 0 0 0 0 0 0 77 59 9 26 75 127 196 256 194 171 90 13 10 10 9 9 50 214 407 108 9 241 388 374 207 260
0 0 0 0 0 0 0 0 0 0 0 0 0 0 0 0 0 0 0 0 0 0 47 37 18 0 0 0 0 0 0 0 0 0 0 0 0 0 0 14 41 108 348 378 212 162 112 167 204
0 0 0 0 0 0 0 0 0 0 0 0 0 0 0 0 0 0 0 0 1 0 2 2 0 0 0 0 0 0 0 0 0 0 0 0 0 0 0 0 0 0 0 39 368 265 235 199 204
0 0 0 0 0 0 0 0 0 0 0 0 0 0 0 0 0 0 0 12 37 5 3 0 2 0 0 0 0 0 0 0 0 0 0 0 0 0 0 0 0 0 80 143 153 89 114 127 231
0 0 0 0 0 0 0 0 0 0 0 0 0 0 0 0 0 0 0 54 61 3 0 0 0 0 0 0 0 0 0 0 0 0 0 0 0 0 0 0 0 0 2 0 10 22 66 90 84
0 0 0 0 0 0 0 0 0 0 0 0 0 0 0 0 0 0 0 0 0 0 0 0 0 0 0 0 0 0 0 0 0 0 0 0 0 0 0 0 0 0 0 4 6 40 66 47 23
0 0 0 0 0 0 0 0 0 0 0 0 0 0 0 0 0 0 0 0 0 0 0 0 0 0 0 0 0 0 0 0 2 0 0 0 0 0 0 0 0 0 0 0 0 104 169 99 95

GFSSGP_con_mlcape_096.txt.gz
CAPE
0 0 0 0 0 0 0 0 0 0 0 0 0 0 0 0 0 0 16 20 12 37 904 899 311 175 33 0 0 87 369 619 640 494 391 220 103 53 117 107 23 0 0 0 0 0 0 0 0
0 0 0 0 0 0 0 0 0 0 0 0 0 0 0 0 0 11 71 35 58 53 730 781 341 165 72 0 0 3 109 264 342 310 201 60 35 40 24 0 0 0 0 0 0 0 0 0 0
0 0 0 0 0 0 0 0 0 0 0 0 0 0 0 0 0 8 18 228 186 103 694 738 412 162 64 27 5 0 4 47 39 35 48 57 45 10 0 0 0 0 0 0 0 0 0 0 0
0 0 0 0 0 0 0 0 0 0 0 0 0 0 0 0 0 0 72 87 128 129 652 952 473 182 65 45 31 22 46 102 101 115 128 54 21 0 0 0 0 0 0 0 0 0 0 0 0
0 0 0 0 0 0 0 0 0 0 0 0 0 0 0 0 0 31 110 146 32 106 490 1061 748 262 109 32 36 40 107 187 211 137 64 15 0 0 0 0 0 0 0 0 0 0 0 0 0
0 0 0 0 0 0 0 0 0 0 0 0 0 0 0 0 0 8 114 119 163 130 590 1169 1088 523 199 103 66 97 124 222 158 95 22 0 0 0 0 0 0 0 0 0 0 0 0 0 0
0 0 0 0 0 0 0 0 0 0 0 0 0 0 0 0 0 5 58 57 87 151 463 923 1251 822 415 203 147 149 128 91 104 57 1 0 0 0 0 0 0 0 0 0 0 0 0 0 0
0 0 0 0 0 0 0 0 0 0 0 0 0 0 0 0 0 43 36 7 29 153 447 814 1197 1093 596 381 272 209 189 132 46 36 12 0 0 0 0 0 0 0 0 0 0 0 0 0 0
0 0 0 0 0 0 0 0 0 0 0 0 0 0 0 0 5 108 132 86 68 135 534 897 1013 1086 880 562 442 373 290 282 252 184 167 122 64 19 11 5 0 0 0 0 0 0 0 0 0
0 0 0 0 0 0 0 0 0 0 0 0 0 0 0 0 47 151 159 83 151 102 306 708 952 1020 892 834 691 515 493 616 523 403 310 215 176 112 75 69 44 35 28 21 7 0 0 0 0
0 0 0 0 0 0 0 0 0 0 0 0 0 0 0 0 1 122 78 95 96 305 375 596 830 1020 907 953 841 834 706 712 624 555 455 360 248 236 259 143 144 104 97 59 62 31 55 40 18
0 0 0 0 0 0 0 0 0 0 0 0 0 0 0 0 0 5 75 114 223 446 446 644 886 828 949 1017 821 932 881 847 697 759 728 453 262 165 148 163 111 80 50 19 58 97 159 143 141
0 0 0 0 0 0 0 0 0 0 0 0 0 0 0 0 0 0 25 205 325 432 677 665 629 597 568 739 808 919 858 922 855 849 840 697 489 318 199 141 94 54 33 113 164 227 271 251 225
0 0 0 0 0 0 0 0 0 0 0 0 0 0 0 0 0 0 0 227 428 564 711 869 761 670 657 616 657 634 751 937 993 960 970 987 801 523 366 244 71 18 48 103 188 273 338 363 292
0 0 0 0 0 0 0 0 0 0 0 0 0 0 0 0 0 0 0 29 142 349 694 716 859 803 646 692 777 673 805 884 731 708 913 1000 887 649 451 290 133 37 10 52 175 282 389 434 440
0 0 0 0 0 0 0 0 0 0 0 0 0 0 0 0 0 0 0 0 90 272 547 595 912 834 719 634 660 718 681 659 557 43 65 652 731 612 407 248 98 90 74 82 273 453 559 574 445
0 0 0 0 0 0 0 0 0 0 0 0 0 0 0 0 0 0 0 0 8 132 371 505 812 878 1021 842 804 688 606 604 625 513 226 205 419 392 335 251 208 162 273 373 500 451 422 411 335
0 0 0 0 0 0 0 0 0 0 0 0 0 0 0 0 0 0 0 0 0 0 142 623 627 939 1238 1007 956 1001 909 628 559 473 439 528 632 631 554 536 533 661 727 764 804 794 503 388 337
0 0 0 0 0 0 0 0 0 0 0 0 0 0 0 0 0 0 0 0 0 0 0 455 722 924 1402 1285 1224 1149 1014 983 944 815 665 911 762 816 906 1048 989 972 1006 1021 894 703 578 518 372
0 0 0 0 0 0 0 0 0 0 0 0 0 0 0 0 0 0 0 0 0 0 0 0 810 1080 1422 1533 1263 1409 1348 1439 1366 1283 1156 861 607 1027 1022 887 523 782 788 667 518 430 317 333 339
0 0 0 0 0 0 0 0 0 0 0 0 0 0 0 0 0 0 0 0 0 0 0 0 81 1247 1443 1508 1336 1016 991 1128 1496 1369 1363 1203 1072 985 820 91 1 350 717 331 302 187 158 447 343
0 0 0 0 0 0 0 0 0 0 0 0 0 0 0 0 0 0 0 0 0 0 0 0 0 579 1442 1423 1665 1638 1475 1175 1111 1416 1279 1313 1171 919 601 314 218 278 383 296 196 173 203 156 311
0 0 0 0 0 0 0 0 0 0 0 0 0 0 0 0 0 0 0 0 0 0 0 0 0 15 975 1343 1471 1294 920 597 446 723 851 852 964 1158 1030 863 615 408 390 713 421 192 246 420 305
0 0 0 0 0 0 0 0 0 0 0 0 0 0 0 0 0 0 0 0 0 0 0 0 0 0 267 1136 1122 1088 883 624 514 320 216 94 48 63 246 253 427 696 747 287 250 275 145 126 339
0 0 0 0 0 0 0 0 0 0 0 0 0 0 0 0 0 0 0 0 0 0 0 0 0 0 121 755 1032 1084 1133 876 753 451 247 66 13 22 67 69 64 125 274 492 342 181 129 67 84
0 0 0 0 0 0 0 0 0 0 0 0 0 0 0 0 0 0 0 0 0 0 0 0 0 0 66 397 572 501 290 74 8 0 0 0 0 0 0 1 2 0 12 59 207 513 434 412 247
0 0 0 0 0 0 0 0 0 0 0 0 0 0 0 0 0 0 0 0 0 0 0 0 2 53 45 11 0 0 0 0 0 0 0 0 0 0 0 0 0 0 27 129 116 118 189 414 511
0 0 0 0 0 0 0 0 0 0 0 0 0 0 0 0 0 0 0 0 0 0 0 0 0 0 0 0 0 0 0 0 0 0 0 0 0 0 0 0 0 0 0 0 13 45 87 105 146
0 0 0 0 0 0 0 0 0 0 0 0 0 0 0 0 0 0 0 0 0 0 0 0 0 0 0 0 0 0 0 0 0 0 0 0 0 0 0 0 0 0 0 0 0 0 11 25 52
0 0 0 0 0 0 0 0 0 0 0 0 0 0 0 0 0 0 2 0 0 0 0 0 3 7 0 0 0 0 0 0 0 0 0 0 0 0 0 0 0 0 0 0 0 0 1 60 53

GFSSGP_con_mlcape_102.txt.gz
CAPE
0 0 0 0 0 0 0 1 0 0 0 0 0 0 13 12 32 267 471 32 6 299 1075 538 471 617 844 1148 1235 1037 716 550 65 88 24 0 0 0 88 102 135 120 0 0 0 0 0 0 0
0 0 0 0 0 0 1 0 0 0 0 0 0 0 1 39 39 483 371 6 100 491 922 429 405 517 845 1238 1417 1297 836 675 184 110 32 14 0 21 23 35 76 25 0 0 0 0 0 0 0
0 0 0 0 0 0 14 0 0 0 0 0 0 0 0 2 1 254 524 58 307 611 723 506 271 363 697 1184 1437 1340 963 744 355 210 205 83 54 64 62 59 30 0 0 0 0 0 0 0 0
0 0 0 0 0 0 0 0 0 0 0 0 0 0 0 0 0 32 415 239 622 557 554 911 219 238 524 990 1263 1113 944 854 578 421 442 191 85 87 51 27 0 0 0 0 0 0 0 0 0
0 0 0 0 0 0 0 0 0 0 0 0 0 0 0 0 108 280 632 593 601 427 495 1267 309 125 229 603 964 967 870 821 825 721 490 201 77 43 24 0 0 0 0 0 0 0 0 0 0
0 0 0 0 0 0 0 0 0 0 0 0 0 0 0 0 94 570 855 753 432 366 536 1099 438 135 114 236 576 761 821 788 705 653 416 157 93 27 0 0 0 0 0 0 0 0 0 0 0
0 0 0 0 0 0 0 0 0 0 0 0 0 0 0 0 0 581 874 841 447 398 607 1133 563 310 107 77 130 342 543 624 631 490 232 172 183 68 0 0 0 0 0 0 0 0 0 0 0
0 0 0 0 0 0 0 0 0 0 0 0 0 0 0 0 0 81 899 968 635 469 497 1171 776 435 313 222 105 82 162 301 285 224 202 203 192 161 55 15 2 0 0 0 0 0 0 0 0
0 0 0 0 0 0 0 0 0 0 0 0 0 0 0 0 0 60 603 845 720 411 366 807 900 605 427 396 389 168 127 151 250 282 322 247 49 52 82 0 112 26 35 1 0 0 0 0 0
0 0 0 0 0 0 0 0 0 0 0 0 0 0 0 0 0 24 387 546 612 477 364 620 985 898 621 382 517 278 196 174 247 285 379 239 31 43 32 110 90 119 142 76 18 0 0 0 39
0 0 0 0 0 0 0 0 0 0 0 0 0 0 0 0 0 5 112 345 480 567 586 703 1175 1396 1048 606 582 385 270 194 312 382 418 311 130 284 231 154 197 103 143 52 117 118 190 375 505
0 0 0 0 0 0 0 0 0 0 0 0 0 0 0 0 0 0 5 100 508 601 725 917 1346 1636 1593 883 713 574 396 353 324 300 479 395 430 428 234 142 159 363 238 191 221 128 457 945 1029
0 0 0 0 0 0 0 0 0 0 0 0 0 0 0 0 0 0 0 0 326 772 918 1147 1408 1816 1896 1624 980 906 767 636 615 634 776 614 508 469 496 403 356 263 201 215 170 355 813 1055 1158
0 0 0 0 0 0 0 0 0 0 0 0 0 0 0 0 0 0 0 0 18 810 1077 1417 1751 2040 2063 2071 1720 1488 1241 932 976 836 864 1183 942 792 686 794 737 549 353 232 199 293 546 764 1061
0 0 0 0 0 0 0 0 0 0 0 0 0 0 0 0 0 0 0 0 0 50 852 1423 1907 2122 2286 2225 2118 2143 1643 1374 1222 1033 1298 1672 1518 1422 1323 1055 1037 941 918 717 463 382 408 702 925
0 0 0 0 0 0 0 0 0 0 0 0 0 0 0 0 0 0 0 0 0 57 664 1510 1651 2078 2498 2413 2264 2069 1744 1708 1563 1556 1530 1931 1679 1673 1745 1304 1308 1236 1139 819 406 269 256 602 888
0 0 0 0 0 0 0 0 0 0 0 0 0 0 0 0 0 0 0 0 0 0 256 1588 2142 2188 2443 2629 2427 2299 2052 1998 1717 1856 1802 1746 1395 1693 2157 1266 1592 1638 1135 777 479 425 717 1000 1537
0 0 0 0 0 0 0 0 0 0 0 0 0 0 0 0 0 0 0 0 0 0 0 154 1182 2224 2646 2756 2680 2368 2126 2036 1834 1752 1602 1731 1975 1864 2076 1709 1820 1566 1013 697 616 711 1598 1785 1569
0 0 0 0 0 0 0 0 0 0 0 0 0 0 0 0 0 0 0 0 0 0 0 0 9 1327 2480 2485 2496 2364 2147 2081 2010 1923 1735 1469 1127 1250 1750 1551 1486 1478 852 824 1048 1724 2133 1703 1312
0 0 0 0 0 0 0 0 0 0 0 0 0 0 0 0 0 0 0 0 0 0 0 0 0 37 1473 2110 2176 2007 1878 1966 2224 2236 2176 1911 1680 1503 1357 1356 1184 1681 1070 1634 2280 2192 1551 1358 1358
0 0 0 0 0 0 0 0 0 0 0 0 0 0 0 0 0 0 0 0 0 0 0 0 0 51 362 1060 1589 2161 2198 2540 2506 2591 2533 2376 2114 1956 1696 1829 2184 2295 2052 2311 2341 1677 863 566 475
0 0 0 0 0 0 0 0 0 0 0 0 0 0 0 0 0 0 0 0 0 0 0 0 0 0 44 622 1146 1848 2173 1868 2064 2508 2640 2586 2262 2016 2081 2232 2465 2715 2535 2197 1945 1869 1153 724 327
0 0 0 0 0 0 0 0 0 0 0 0 0 0 0 0 0 0 0 0 0 0 0 0 0 0 50 125 956 1221 1924 1444 1642 1927 2393 2745 2729 2348 2323 2615 2790 2898 2778 2200 1757 1350 1377 618 352
0 0 0 0 0 0 0 0 0 0 0 0 0 0 0 0 0 0 0 0 0 0 0 0 0 0 0 114 396 1249 1237 1656 1429 1734 2292 2764 3342 3415 3271 3107 3160 3031 2397 1850 1916 2177 2127 1622 896
0 0 0 0 0 0 0 0 0 0 0 0 0 0 0 0 0 0 0 0 0 0 0 0 0 0 0 0 41 252 1104 1955 2558 2460 2210 2853 2948 2857 3177 3332 3140 3038 2988 2713 2395 2217 2071 2117 1894
0 2 0 0 1 5 0 0 0 0 0 0 0 0 0 0 0 0 0 0 0 0 0 0 0 0 6 30 43 81 127 641 1580 2144 2207 2490 2527 2511 2782 3386 3249 3257 2953 2925 2726 2572 2271 2159 2121
0 0 0 0 2 0 0 0 0 0 0 0 0 0 0 0 0 0 0 0 0 0 0 0 0 0 36 89 138 145 180 370 1030 1916 2462 2675 2579 2198 2089 2222 2161 2199 2142 2083 2292 2361 2218 2047 1821
0 0 1 4 5 2 0 1 9 0 0 4 0 0 0 0 0 0 0 0 0 0 0 0 0 0 2 27 68 221 486 716 1330 1693 2235 2030 1753 1496 727 1274 1403 1449 1393 1411 1462 1445 1442 1640 1674
0 3 10 10 16 12 10 5 0 0 3 0 0 0 0 0 0 0 0 0 0 0 0 0 0 0 0 0 63 123 310 509 948 1225 1459 933 589 339 54 83 25 230 369 515 738 838 580 732 1244
8 9 6 3 10 20 18 1 0 6 2 0 0 0 0 0 0 0 0 4 6 1 0 0 0 0 0 0 8 111 192 183 188 281 409 529 611 514 366 312 210 127 173 324 551 579 332 458 633

GFSSGP_con_mlcape_105.txt.gz
CAPE
0 0 0 0 0 0 0 0 48 0 0 0 0 0 2 71 240 791 607 4 23 769 763 654 679 922 1124 1035 937 601 448 64 21 51 16 4 25 94 184 324 469 274 31 0 0 0 0 0 0
0 0 0 0 0 0 10 29 18 10 5 0 0 0 0 83 326 562 183 1 94 891 961 727 618 752 974 1028 1121 938 662 260 23 42 0 0 10 37 145 241 213 34 0 0 0 0 0 0 0
0 0 0 0 0 0 5 21 15 0 0 0 0 0 0 42 49 622 344 72 218 631 762 1051 511 723 869 1108 1283 1174 815 573 120 90 0 16 9 25 81 60 48 0 0 0 0 0 0 0 0
0 0 0 0 0 0 2 0 0 0 0 0 0 0 0 0 3 235 159 201 448 383 438 1147 459 596 712 935 1175 1423 1046 760 300 146 63 82 48 43 28 17 0 0 0 0 0 0 0 0 0
0 0 0 0 0 0 0 0 0 0 0 0 0 0 0 0 26 297 271 333 594 346 278 1245 525 605 690 883 1189 1390 1196 887 489 264 235 280 141 64 34 0 0 0 0 0 0 0 0 0 0
0 0 0 0 0 0 0 0 0 0 0 0 0 0 1 0 31 184 381 440 607 434 424 1306 450 500 615 895 1187 1358 1085 873 609 351 441 422 255 132 82 5 0 0 0 0 0 0 0 0 0
0 0 0 0 0 0 0 0 0 0 0 0 0 0 0 0 3 315 457 508 450 536 604 1110 402 497 510 710 958 1101 993 871 717 584 601 428 164 94 40 3 0 0 0 0 0 0 0 0 0
0 0 0 0 0 0 0 0 0 0 0 0 0 0 0 0 0 178 332 354 322 496 708 1050 477 248 236 501 703 806 899 879 828 706 590 383 204 123 18 0 0 0 0 0 0 0 0 0 0
0 0 0 0 0 0 0 0 0 0 0 0 0 0 0 0 0 0 182 314 250 330 577 1189 673 422 215 164 401 449 631 762 763 711 563 240 95 117 72 0 23 0 0 0 0 0 0 0 0
0 0 0 0 0 0 0 0 0 0 0 0 0 0 0 0 0 0 109 247 293 279 306 983 1066 815 539 276 523 182 199 296 404 392 471 191 62 26 1 11 6 31 0 0 0 0 0 0 6
0 0 0 0 0 0 0 0 0 0 0 0 0 0 0 0 0 0 31 166 227 265 263 494 1357 1312 883 484 633 401 179 132 141 205 434 360 78 29 14 212 147 63 2 6 10 100 88 208 566
0 0 0 0 0 0 0 0 0 0 0 0 0 0 0 0 0 0 0 71 226 248 373 502 1266 1680 1493 838 604 614 185 173 153 260 697 692 353 218 299 118 218 161 120 110 135 85 161 766 1129
0 0 0 0 0 0 0 0 0 0 0 0 0 0 0 0 0 0 0 0 52 321 286 616 1082 1982 2180 1913 1007 867 474 307 246 339 639 614 428 423 513 326 157 267 241 235 226 127 445 963 1279
0 0 0 0 0 0 0 0 0 0 0 0 0 0 0 0 0 0 0 0 0 3 657 783 1126 2195 2452 2386 1979 1352 1214 535 505 438 519 838 666 747 534 542 499 358 296 227 214 211 523 1049 924
0 0 0 0 0 0 0 0 0 0 0 0 0 0 0 0 0 0 0 0 0 0 385 1057 1392 1987 2796 2754 2583 2207 1430 1159 817 814 977 1386 1293 1189 876 728 699 476 470 459 350 251 520 420 408
0 0 0 0 0 0 0 0 0 0 0 0 0 0 0 0 0 0 0 0 0 0 0 327 894 1384 2648 2938 2887 2434 1999 1766 1318 1189 664 1554 1780 1545 1532 1177 973 917 883 867 689 494 290 294 377
0 0 0 0 0 0 0 0 0 0 0 0 0 0 0 0 0 0 0 0 0 0 0 232 966 1356 1984 3179 3153 2977 2611 2297 2005 1628 1354 2061 2248 1934 2018 1613 1298 1343 1430 1357 1103 644 385 381 693
0 0 0 0 0 0 0 0 0 0 0 0 0 0 0 0 0 0 0 0 0 0 0 0 391 2046 2420 2933 3378 2969 2720 2585 2420 2133 2102 2379 2214 1672 2288 1790 1829 2163 1760 1483 1151 849 621 793 1311
0 0 0 0 0 0 0 0 0 0 0 0 0 0 0 0 0 0 0 0 0 0 0 0 13 257 2125 2551 2449 2572 2485 2417 2357 2459 2510 2624 2482 2232 2409 1845 2085 2460 2196 1611 1351 1095 1135 1292 1900
0 0 0 0 0 0 0 0 0 0 0 0 0 0 0 0 0 0 0 0 0 0 0 0 0 50 426 1107 2242 2340 2336 2055 2141 2323 2556 2579 2590 2780 2835 2505 2091 2293 2053 1810 1600 1557 1335 1764 2116
0 0 0 0 0 0 0 0 0 0 0 0 0 0 0 0 0 0 0 0 0 0 0 0 0 0 242 445 1078 2503 2467 2408 1907 1786 2199 2776 2866 2710 2265 2613 2423 2172 2127 1646 1911 2030 2274 1878 1963
0 0 0 0 0 0 0 0 0 0 0 0 0 0 0 0 0 0 0 0 0 0 0 0 0 0 5 356 305 539 1379 1643 1410 1400 1565 2441 3272 3156 2701 2465 2642 2140 2076 1779 2391 2730 2702 2082 1439
0 0 0 0 0 0 0 0 0 0 0 0 0 0 0 0 0 0 0 0 0 0 0 0 0 0 0 83 429 351 578 523 992 1439 1595 2007 2832 3427 3142 2866 2366 2570 3022 2715 2932 2995 2826 2134 1784
0 0 0 0 0 0 0 0 0 0 0 0 0 0 0 0 0 0 0 0 0 0 0 0 0 0 0 29 113 551 889 1198 1071 983 1371 1718 2462 2923 3105 2539 2667 3131 3385 3226 2959 2815 2446 2571 1890
0 0 0 0 0 0 0 0 0 3 0 0 0 0 0 0 0 0 0 0 0 0 0 0 0 0 0 1 73 130 373 882 1664 1608 1172 924 1750 2148 2842 2704 2328 2999 3363 3251 3004 2653 2538 2519 2492
0 0 0 0 0 3 0 0 12 1 0 0 0 0 0 0 0 0 0 0 0 0 0 0 0 0 0 1 56 141 203 235 249 668 1053 1496 984 1111 1267 1995 2473 2372 2556 3191 2990 2576 2868 2866 2787
0 0 0 0 1 10 1 1 3 0 2 0 0 1 0 0 0 0 0 0 1 1 0 0 0 0 0 0 29 132 350 466 404 533 867 1380 1824 1493 2302 1685 1475 790 926 2345 2679 2878 2707 2537 2427
0 0 0 0 12 8 11 14 24 0 1 0 0 3 6 0 0 0 0 0 2 2 1 1 0 0 0 0 0 34 112 390 640 950 1167 1396 2102 2111 2164 985 505 72 1109 1558 2037 2309 2344 2129 2004
1 0 3 5 12 19 18 11 0 1 0 9 8 0 1 0 11 3 0 0 0 0 0 0 3 2 0 3 0 0 64 189 355 934 1160 1660 2179 1862 1751 1524 1102 436 1438 1096 1142 1408 1508 1325 1713
7 9 11 13 6 18 19 8 13 3 2 12 8 0 0 5 4 4 0 0 0 0 14 20 21 20 25 10 0 0 56 190 192 350 715 1182 1493 1577 1120 488 388 34 12 2 18 25 49 402 773

GFSSGP_con_mlcape_111.txt.gz
CAPE
0 0 0 0 0 0 0 0 0 0 2 0 0 0 359 583 885 328 517 888 422 731 1623 1307 842 571 243 31 54 16 0 18 2 0 1 0 106 203 216 253 175 50 0 0 0 0 0 0 0
0 0 0 0 0 0 0 0 15 0 1 0 0 0 323 607 517 524 742 871 160 565 1345 1385 952 602 359 116 182 55 1 29 13 0 0 14 74 144 224 236 89 0 0 0 0 0 0 0 0
0 0 0 0 0 0 0 0 0 0 0 0 0 0 23 166 58 167 661 802 235 467 1173 1445 1089 775 508 223 201 141 36 37 44 14 12 23 47 66 152 115 0 0 0 0 0 0 0 0 0
0 0 0 0 0 0 0 0 24 1 0 0 0 0 0 474 162 567 715 710 71 544 1064 1483 1276 1029 719 399 281 238 105 35 61 20 11 37 90 86 98 17 0 0 0 0 0 0 0 0 0
0 0 0 0 0 0 0 0 2 2 0 0 0 1 20 269 110 640 755 781 428 759 993 1129 1201 1127 976 744 563 508 363 89 105 72 22 41 22 19 0 0 0 0 0 0 0 0 0 0 0
0 0 0 0 0 0 0 0 9 0 0 0 0 31 40 136 85 148 628 698 714 843 859 668 900 987 1088 1013 845 757 675 386 123 140 97 76 50 26 4 0 0 0 0 0 0 0 0 0 0
0 0 0 0 0 0 0 0 0 0 0 0 0 0 2 102 168 276 337 625 1034 1095 546 430 746 914 944 918 893 855 843 722 425 210 158 166 112 49 0 0 0 0 0 0 0 0 0 0 0
0 0 0 0 0 0 0 0 0 0 0 0 0 0 0 0 24 215 422 732 999 1190 795 303 478 836 964 1128 1114 1059 1017 922 709 380 241 285 147 63 9 0 0 0 0 0 0 0 0 0 0
0 0 0 0 0 0 0 0 0 0 0 0 0 0 0 0 0 0 258 660 1125 1396 1114 450 284 460 727 908 1227 1285 1235 1082 871 573 412 457 255 117 29 0 0 0 0 0 0 0 0 0 0
0 0 0 0 0 0 0 0 0 0 0 0 0 0 0 0 0 0 4 298 781 1055 1197 627 161 241 345 832 989 1196 1359 1304 1106 842 636 443 253 99 29 0 0 0 0 0 0 0 0 0 0
0 0 0 0 0 0 0 0 0 0 0 0 0 0 0 0 0 0 0 7 316 749 850 549 186 167 150 402 746 736 1066 1169 1100 963 824 533 307 281 98 6 1 9 2 0 0 0 0 0 0
0 0 0 0 0 0 0 0 0 0 0 0 0 0 0 0 0 0 0 0 4 363 887 490 484 440 250 236 509 388 302 603 887 1070 997 689 383 168 171 81 27 3 7 0 0 0 0 0 1
0 0 0 0 0 0 0 0 0 0 0 0 0 0 0 0 0 0 0 0 0 528 1094 1004 695 661 592 634 751 427 311 313 351 608 1088 899 380 177 196 172 51 36 15 0 0 0 2 85 139
0 0 0 0 0 0 0 0 0 0 0 0 0 0 0 0 0 0 0 0 0 8 612 1069 772 892 788 847 1273 842 443 354 238 273 354 904 480 261 173 186 143 139 156 84 0 0 58 354 432
0 0 0 0 0 0 0 0 0 0 0 0 0 0 0 0 0 0 0 0 0 15 385 903 727 140 0 260 1371 1737 901 452 324 277 308 429 708 354 387 294 301 369 325 223 143 160 177 299 770
0 0 0 0 0 0 0 0 0 0 0 0 0 0 0 0 0 0 0 0 0 0 272 435 182 7 3 1749 2240 1927 2166 1032 456 317 377 535 511 695 364 490 373 358 529 485 400 395 352 365 276
0 0 0 0 0 0 0 0 0 0 0 0 0 0 0 0 0 0 0 0 0 0 101 336 190 72 50 244 785 2489 2075 2044 1340 660 537 739 700 767 740 502 672 467 426 487 602 572 516 474 636
0 0 0 0 0 0 0 0 0 0 0 0 0 0 0 0 0 0 0 0 0 0 0 0 0 0 813 1866 2347 2811 2481 2207 2258 1975 1364 998 1011 860 1005 839 850 1001 760 571 579 585 531 511 598
0 0 0 0 0 0 0 0 0 0 0 0 0 0 0 0 0 0 0 0 0 0 0 0 0 0 0 25 2081 2146 2489 2314 2340 2338 2113 1747 1400 1224 982 1121 1365 1202 1477 1293 929 795 688 610 664
0 0 0 0 0 0 0 0 0 0 0 0 0 0 0 0 0 0 0 0 0 0 0 0 0 0 0 0 0 1417 2089 2185 2322 2398 2490 2109 1505 1508 1596 1315 1266 2005 1795 1436 1599 1529 1449 1207 1054
0 0 0 0 0 0 0 0 0 0 0 0 0 0 0 0 0 0 0 0 0 0 0 0 0 0 0 0 0 0 0 157 1434 2052 2063 2243 1823 1561 1154 1750 1867 1542 1825 1929 1791 1916 1695 1659 1214
0 0 0 0 0 0 0 0 0 0 0 0 0 0 0 0 0 0 0 0 0 0 0 0 0 17 0 0 2 0 0 0 77 121 730 1440 1702 607 71 23 882 1390 1629 1594 1575 2049 1923 1477 1195
0 0 0 0 0 0 0 0 0 0 0 0 0 0 0 0 0 0 0 0 0 0 0 0 0 0 0 0 0 0 0 0 0 0 54 276 1125 409 3 0 497 258 18 1053 1549 1794 1885 1457 1110
0 0 0 0 0 0 0 0 0 0 0 0 2 0 0 0 0 0 0 0 0 0 0 0 0 0 0 0 0 0 29 15 0 0 0 0 4 423 1042 1212 1017 177 85 1368 1266 966 941 1037 1053
0 0 0 0 0 0 0 0 0 0 0 0 0 0 0 0 0 0 0 0 0 0 0 0 0 0 0 0 0 0 0 1 24 8 0 0 0 0 0 348 805 1194 1053 614 245 177 143 385 510
0 0 0 0 0 0 0 0 0 0 6 0 0 0 0 0 0 0 0 0 0 0 0 0 0 0 0 0 0 0 0 0 0 0 0 0 0 0 6 61 216 653 619 639 676 322 72 0 0
0 0 0 0 0 0 0 0 0 0 1 0 0 0 0 0 0 0 0 0 0 0 0 0 0 0 0 0 0 0 0 0 0 0 0 100 41 63 124 135 262 456 342 561 441 125 8 0 0
0 0 0 0 0 0 0 0 13 0 0 0 0 0 0 0 0 0 0 0 0 0 0 0 0 0 0 0 0 0 0 0 0 0 0 0 0 51 95 233 359 479 527 636 346 151 67 0 0
0 0 2 1 0 1 0 0 3 1 0 0 0 0 0 0 0 0 0 0 0 0 0 0 0 0 0 0 0 0 0 0 0 0 0 0 0 0 8 160 353 576 654 422 165 30 0 3 0
0 0 10 3 0 0 8 0 0 1 0 0 0 0 0 0 0 0 0 0 0 0 0 0 0 0 0 0 0 0 0 0 0 0 0 0 0 0 0 0 12 142 397 295 91 1 1 33 6

GFSSGP_con_mlcape_114.txt.gz
CAPE
0 0 0 0 0 0 0 0 0 0 0 0 2 175 403 761 541 359 431 593 763 877 1249 1231 609 47 7 0 0 0 11 0 0 0 10 68 125 160 80 39 30 9 0 0 0 0 0 0 0
0 0 0 0 0 0 0 0 0 2 0 0 150 373 251 343 410 682 804 927 622 791 1058 1044 655 79 18 11 2 12 26 7 12 13 45 116 160 203 197 89 15 0 0 0 0 0 0 0 0
0 0 0 0 0 0 0 0 0 0 0 0 0 0 170 331 513 588 886 809 1002 887 990 947 692 124 27 46 0 0 54 15 3 9 26 73 135 154 127 18 0 0 0 0 0 0 0 0 0
0 0 0 0 0 0 0 0 0 0 0 0 0 61 48 149 296 620 684 544 588 832 1036 1144 739 351 60 89 64 26 62 37 0 11 28 37 20 5 0 0 0 0 0 0 0 0 0 0 0
0 0 0 0 0 0 0 0 0 0 0 0 0 2 305 321 472 816 421 223 97 643 985 1163 901 631 269 186 172 67 51 63 39 19 12 27 23 8 0 0 0 0 0 0 0 0 0 0 0
0 0 0 0 0 0 0 0 0 0 0 0 1 23 53 523 561 786 395 98 199 315 840 1098 1019 853 550 372 326 294 105 81 70 42 39 39 23 0 0 0 0 0 0 0 0 0 0 0 0
0 0 0 0 0 0 0 0 0 0 0 0 0 32 4 227 629 785 695 246 199 345 533 900 1146 1060 821 630 509 485 407 184 149 88 74 59 38 18 0 0 0 0 0 0 0 0 0 0 0
0 0 0 0 0 0 0 0 0 0 0 0 0 5 28 0 406 798 755 744 536 421 409 542 811 1100 1023 969 831 731 657 472 203 136 101 94 55 9 0 0 0 0 0 0 0 0 0 0 0
0 0 0 0 0 0 0 0 0 0 0 0 0 0 0 0 9 581 923 1042 1004 607 201 323 463 653 809 894 1024 1034 996 820 556 281 187 199 140 60 19 0 0 0 0 0 0 0 0 0 0
0 0 0 0 0 0 0 0 0 0 0 0 0 0 0 0 0 169 867 958 926 878 309 273 304 365 562 884 1085 1213 1268 1271 1026 706 424 260 190 87 43 17 0 0 0 0 0 0 0 0 0
0 0 0 0 0 0 0 0 0 0 0 0 0 0 0 0 0 0 49 820 970 1096 693 339 178 207 269 524 713 949 1226 1268 1091 884 533 271 254 193 122 29 14 3 2 0 0 0 0 0 0
0 0 0 0 0 0 0 0 0 0 0 0 0 0 0 0 0 0 0 0 872 1199 1041 550 185 144 141 221 203 256 722 858 953 979 810 419 250 200 135 44 0 0 0 0 0 0 0 0 0
0 0 0 0 0 0 0 0 0 0 0 0 0 0 0 0 0 0 0 0 73 922 868 581 151 16 105 174 359 399 355 522 522 785 908 711 432 289 237 119 62 0 0 0 0 0 0 0 0
0 0 0 0 0 0 0 0 0 0 0 0 0 0 0 0 0 0 0 0 0 349 625 676 217 169 156 200 500 481 419 362 422 490 731 817 623 436 297 199 180 93 37 19 7 0 0 0 6
0 0 0 0 0 0 0 0 0 0 0 0 0 0 0 0 0 0 0 0 0 41 433 959 695 604 548 438 675 586 448 413 414 396 483 602 630 431 406 313 217 245 160 126 136 89 2 0 139
0 0 0 0 0 0 0 0 0 0 0 0 0 0 0 0 0 0 0 0 0 23 383 757 904 644 426 784 1317 1138 778 513 537 491 343 399 621 577 333 308 361 389 321 257 292 358 200 111 219
0 0 0 0 0 0 0 0 0 0 0 0 0 0 0 0 0 0 0 0 0 0 389 570 594 605 555 88 848 1842 1875 1169 870 513 387 362 438 635 548 337 385 555 553 558 619 541 472 434 542
0 0 0 0 0 0 0 0 0 0 0 0 0 0 0 0 0 0 0 0 0 0 165 591 762 664 326 176 251 1080 1067 1862 2026 1233 573 495 481 496 645 664 608 603 612 615 652 748 710 811 824
0 0 0 0 0 0 0 0 0 0 0 0 0 0 0 0 0 0 0 0 0 0 126 475 360 1 359 602 1140 966 1573 1819 1826 2083 1972 1633 963 688 704 809 898 807 627 671 605 560 598 733 685
0 0 0 0 0 0 0 0 0 0 0 0 0 0 0 0 0 0 0 0 0 0 11 18 0 0 0 0 436 1657 1753 1626 1543 1476 1499 1604 1501 1514 1034 910 1035 1242 1102 984 851 814 774 731 612
0 0 0 0 0 0 0 0 0 0 0 0 0 0 0 0 0 0 0 0 0 0 0 0 0 0 0 0 0 0 0 48 71 20 107 470 974 1341 1305 1222 980 993 979 785 963 1017 848 777 798
0 0 0 0 0 0 0 0 0 0 0 0 0 0 0 0 0 0 0 0 0 0 0 0 0 0 2 59 0 0 0 0 0 0 0 0 51 218 931 1208 1001 494 9 21 422 1099 1020 789 925
0 0 0 0 0 0 0 0 0 0 0 0 0 0 0 0 0 0 0 0 0 0 0 0 0 0 0 0 0 0 0 0 0 0 0 0 14 188 166 418 509 415 139 214 244 266 578 732 659
0 0 0 0 0 0 0 0 0 0 0 0 0 0 0 0 0 0 0 0 0 0 0 0 0 0 0 0 0 0 0 0 0 0 0 0 0 0 88 244 134 73 8 0 0 0 73 465 505
0 0 0 0 0 0 0 0 0 0 0 0 0 0 0 0 0 0 0 0 0 0 0 0 0 0 0 0 0 0 0 0 0 0 0 0 0 0 43 71 121 125 167 198 80 0 29 121 78
0 0 0 0 0 0 0 0 0 0 0 0 0 0 0 0 0 0 0 0 0 0 0 0 0 0 0 0 0 0 0 0 0 0 0 0 0 0 0 69 118 178 268 243 287 152 90 350 218
0 0 0 0 0 0 0 0 0 1 0 0 0 0 0 0 0 0 0 0 0 0 0 0 0 0 0 0 0 0 0 0 0 0 0 0 0 0 0 0 0 64 165 269 327 276 178 326 156
0 0 0 0 0 0 0 0 0 0 0 0 0 0 0 0 0 0 0 0 0 0 0 0 0 0 0 0 0 0 0 0 0 0 0 0 0 0 0 0 0 0 75 232 280 430 447 204 90
0 0 0 0 1 0 0 0 0 2 0 0 0 0 0 0 0 0 0 0 0 0 0 0 0 0 0 0 0 0 0 0 0 0 0 0 0 0 0 0 0 0 0 9 124 190 291 192 129
0 0 0 0 0 4 7 0 0 1 0 0 0 0 0 0 0 0 0 0 0 0 0 0 0 0 0 0 0 0 0 0 0 0 0 0 0 0 0 0 0 0 0 0 0 51 127 119 78

GFSSGP_con_mlcape_117.txt.gz
CAPE
0 0 0 0 0 0 0 0 0 0 0 1 10 79 223 346 308 134 342 586 457 711 942 981 422 20 0 0 2 23 28 32 23 4 0 33 147 206 189 119 49 96 57 0 0 0 0 0 0
0 0 0 0 0 0 0 0 0 0 0 22 356 358 254 203 370 490 349 1007 728 712 813 730 363 36 0 0 0 0 0 0 0 0 0 17 9 9 4 0 0 5 0 0 0 0 0 0 0
0 0 0 0 0 0 0 0 0 0 0 0 3 41 257 322 542 460 706 1061 921 799 840 632 208 40 0 0 0 0 0 0 0 12 35 81 131 106 34 4 0 0 0 0 0 0 0 0 0
0 0 0 0 0 0 0 0 0 0 0 0 40 64 165 286 569 715 1170 1075 634 701 790 752 205 58 9 0 0 0 0 0 0 0 25 54 68 71 56 11 0 0 0 0 0 0 0 0 0
0 0 0 0 0 0 0 0 0 0 0 0 12 141 214 361 599 898 920 837 373 721 788 723 271 85 63 2 0 0 0 0 0 0 0 26 34 24 0 0 0 0 0 0 0 0 0 0 0
0 0 0 0 0 0 0 0 0 0 0 52 19 152 159 658 580 603 370 302 555 578 896 727 425 153 159 108 2 0 27 0 0 4 7 9 0 0 0 0 0 0 0 0 0 0 0 0 0
0 0 0 0 0 0 0 0 0 0 0 0 13 40 142 617 713 399 147 305 508 707 698 699 660 451 240 184 132 36 39 50 22 7 13 17 5 5 0 0 0 0 0 0 0 0 0 0 0
0 0 0 0 0 0 0 0 0 0 0 0 7 9 110 348 780 411 304 452 380 624 616 587 622 658 422 355 325 282 111 78 87 47 35 30 35 26 21 7 3 0 0 0 0 0 0 0 0
0 0 0 0 0 0 0 0 0 0 0 0 0 0 7 40 690 621 411 451 370 444 649 746 706 770 638 554 599 602 543 333 186 165 124 105 87 77 48 24 1 1 0 0 0 0 0 0 0
0 0 0 0 0 0 0 0 0 0 0 0 0 0 0 320 737 786 671 447 209 129 329 699 767 712 707 774 860 887 871 918 664 454 341 218 144 110 103 99 71 20 7 1 0 0 0 0 0
0 0 0 0 0 0 0 0 0 0 0 0 0 0 0 3 421 821 851 788 621 435 292 537 712 686 657 770 787 866 1053 1070 950 707 412 275 232 237 248 135 84 42 21 6 3 1 0 0 0
0 0 0 0 0 0 0 0 0 0 0 0 0 0 0 0 0 22 487 779 940 882 450 374 543 502 561 733 655 580 766 791 839 960 764 384 226 213 255 223 109 62 32 0 0 0 0 0 0
0 0 0 0 0 0 0 0 0 0 0 0 0 0 0 0 0 0 0 0 191 899 933 495 404 348 413 623 626 527 589 696 788 808 888 704 356 279 310 317 247 127 77 13 0 0 0 0 0
0 0 0 0 0 0 0 0 0 0 0 0 0 0 0 0 0 0 0 0 0 67 708 853 477 281 223 326 457 401 501 658 606 657 846 945 686 472 388 411 382 338 209 143 9 0 0 0 0
0 0 0 0 0 0 0 0 0 0 0 0 0 0 0 0 0 0 0 0 0 1 153 746 806 388 107 163 373 359 350 423 549 570 770 919 956 743 643 508 483 459 347 288 186 72 21 25 22
0 0 0 0 0 0 0 0 0 0 0 0 0 0 0 0 0 0 0 0 0 0 44 349 798 415 143 148 272 454 511 481 506 462 580 742 923 855 610 511 486 444 361 312 293 214 133 165 192
0 0 0 0 0 0 0 0 0 0 0 0 0 0 0 0 0 0 0 0 0 0 0 217 660 492 271 495 613 752 758 651 638 481 432 517 697 839 661 504 493 473 416 343 293 277 243 307 427
0 0 0 0 0 0 0 0 0 0 0 0 0 0 0 0 0 0 0 0 0 0 0 298 705 707 529 455 537 1144 1687 1775 1123 733 566 464 446 554 671 691 553 461 427 429 444 407 362 417 497
0 0 0 0 0 0 0 0 0 0 0 0 0 0 0 0 0 0 0 0 0 0 46 295 490 568 580 556 569 362 621 1477 1276 2028 1569 1078 919 864 778 708 677 537 495 445 418 528 531 597 514
0 0 0 0 0 0 0 0 0 0 0 0 0 0 0 0 0 0 0 0 0 0 0 94 447 586 628 488 854 704 607 898 1596 1241 724 828 1119 1140 1123 986 850 724 606 687 618 484 426 388 442
0 0 0 0 0 0 0 0 0 0 0 0 0 0 0 0 0 0 0 0 0 0 0 36 309 708 402 39 295 908 905 577 516 213 64 47 50 190 414 774 1029 999 804 688 621 286 263 395 550
0 0 0 0 0 0 0 0 0 0 0 0 0 0 0 0 0 0 0 0 0 0 0 27 262 95 0 0 0 0 0 0 4 0 10 7 19 6 6 161 461 703 814 698 567 395 0 8 339
0 0 0 0 0 0 0 0 0 0 0 0 0 0 0 0 0 0 0 0 0 0 0 0 0 0 0 0 0 0 0 0 1 0 0 1 0 22 8 0 43 236 365 268 327 326 72 333 545
0 0 0 0 0 0 0 0 0 0 0 0 0 0 0 0 0 0 0 0 0 0 0 0 0 1 0 0 0 0 0 0 0 0 0 0 0 0 0 0 0 0 0 0 0 62 72 117 135
0 0 0 0 0 0 0 0 0 0 0 0 0 0 0 0 0 0 0 0 0 0 0 0 0 0 0 0 0 0 0 0 0 0 0 0 0 0 0 0 0 0 0 6 3 0 11 0 36
0 0 0 0 0 0 0 0 0 0 0 0 0 0 0 0 0 0 0 0 0 0 0 0 0 0 0 0 0 0 0 0 0 0 0 0 0 0 0 0 0 0 0 0 7 53 66 54 43
0 0 0 0 0 0 0 0 0 0 0 0 0 0 0 0 0 0 0 0 0 0 0 0 0 0 0 0 0 0 0 0 0 0 0 0 0 0 0 0 0 0 0 0 0 11 21 69 122
0 0 0 0 0 0 0 0 0 0 0 0 0 0 0 0 0 0 0 0 0 0 0 0 0 0 0 0 0 0 0 0 0 0 0 0 0 0 0 0 0 0 0 0 0 0 11 49 103
0 0 0 0 0 0 0 0 0 0 0 0 0 0 0 0 0 2 0 0 0 0 0 0 0 0 0 0 0 0 0 0 0 0 0 0 0 0 0 0 0 0 0 0 0 0 0 0 12
0 0 0 0 0 0 1 0 0 0 0 0 0 0 0 0 0 0 0 0 0 0 0 0 0 0 0 0 0 0 0 0 0 0 0 0 0 0 0 0 0 0 0 0 0 0 0 0 0

GFSSGP_con_mlcape_120.txt.gz
CAPE
0 0 0 0 0 0 0 0 0 0 0 0 1 6 28 125 201 76 316 547 551 578 901 946 394 128 114 62 40 9 0 101 481 559 539 375 226 201 221 251 125 58 1 0 0 0 0 0 0
0 0 0 0 0 0 0 0 0 0 0 0 2 347 207 173 430 444 350 675 597 675 889 528 164 82 112 37 43 31 14 0 0 17 50 71 122 204 245 177 128 125 35 0 0 0 0 0 0
0 0 0 0 0 0 0 0 0 0 0 0 0 38 192 222 550 252 415 643 646 714 808 398 98 49 49 13 13 7 31 23 0 0 10 42 83 93 72 40 70 39 0 0 0 0 0 4 2
0 0 0 0 0 0 0 0 0 0 0 0 0 57 181 393 334 561 879 858 617 662 665 537 110 22 9 0 0 0 0 14 0 0 0 0 0 0 0 1 0 0 0 0 0 0 0 2 12
0 0 0 0 0 0 0 0 0 0 0 0 2 69 247 543 611 973 891 895 423 562 640 707 174 23 5 0 0 0 0 0 5 22 46 76 84 31 16 19 0 0 0 0 0 0 0 0 0
0 0 0 0 0 0 0 0 0 0 0 0 17 132 244 667 757 1052 1126 748 573 456 637 591 260 61 0 0 0 0 0 0 0 4 39 66 77 76 62 19 1 0 0 0 0 0 0 0 0
0 0 0 0 0 0 0 0 0 0 0 0 51 133 174 587 839 1023 864 790 654 677 627 421 252 102 12 0 0 2 0 0 0 0 1 13 20 37 41 12 3 0 0 0 0 0 0 0 0
0 0 0 0 0 0 0 0 0 0 0 0 0 54 32 407 708 544 592 562 648 754 665 486 278 183 156 135 27 20 20 5 0 5 11 26 33 48 62 36 13 9 0 0 0 0 0 0 0
0 0 0 0 0 0 0 0 0 0 0 0 0 0 0 645 519 281 276 373 427 557 658 645 391 179 151 206 255 131 53 61 68 62 62 61 57 66 64 76 50 50 20 0 0 0 0 0 0
0 0 0 0 0 0 0 0 0 0 0 0 0 0 218 665 622 293 184 124 152 189 475 669 585 492 270 302 384 519 453 452 312 230 188 126 92 79 105 109 112 57 38 30 9 5 1 0 0
0 0 0 0 0 0 0 0 0 0 0 0 0 0 23 498 726 516 338 205 112 185 416 702 702 702 637 536 558 715 706 766 575 338 251 198 167 182 209 160 114 98 81 69 29 16 7 0 0
0 0 0 0 0 0 0 0 0 0 0 0 0 0 0 61 547 745 677 475 207 151 234 582 748 726 720 791 784 761 688 838 786 773 594 332 206 163 209 223 191 136 69 40 22 0 0 0 0
0 0 0 0 0 0 0 0 0 0 0 0 0 0 0 0 0 0 225 630 660 528 283 223 583 663 712 812 872 802 747 710 942 780 895 749 379 237 218 252 286 271 185 102 45 4 0 0 0
0 0 0 0 0 0 0 0 0 0 0 0 0 0 0 0 0 0 0 0 17 274 683 627 413 514 663 674 811 729 726 680 848 765 808 897 684 448 326 325 343 365 343 291 218 108 39 0 0
0 0 0 0 0 0 0 0 0 0 0 0 0 0 0 0 0 0 0 0 0 0 33 222 733 504 442 463 573 615 691 685 693 696 746 813 831 683 598 519 496 460 460 435 370 286 173 79 33
0 0 0 0 0 0 0 0 0 0 0 0 0 0 0 0 0 0 0 0 0 0 0 134 649 600 425 397 428 540 524 537 668 654 770 709 953 873 743 697 645 569 498 438 407 370 307 209 174
0 0 0 0 0 0 0 0 0 0 0 0 0 0 0 0 0 0 0 0 0 0 0 0 333 618 676 344 323 379 421 475 527 603 608 723 813 836 796 721 707 613 506 457 407 333 251 243 252
0 0 0 0 0 0 0 0 0 0 0 0 0 0 0 0 0 0 0 0 0 0 0 0 124 350 628 521 364 360 416 530 583 634 664 726 680 743 845 838 744 585 525 516 441 363 290 276 363
0 0 0 0 0 0 0 0 0 0 0 0 0 0 0 0 0 0 0 0 0 0 0 0 50 252 457 546 336 552 1029 1284 1307 961 882 736 730 779 710 739 831 669 606 627 628 572 474 414 341
0 0 0 0 0 0 0 0 0 0 0 0 0 0 0 0 0 0 0 0 0 0 0 0 9 253 623 604 466 548 771 1074 1422 1520 1562 1226 945 885 905 864 961 940 826 729 645 386 474 442 360
0 0 0 0 0 0 0 0 0 0 0 0 0 0 0 0 0 0 0 0 0 0 0 0 18 225 577 503 643 520 397 436 593 502 264 36 83 196 217 292 446 684 955 1034 917 797 637 319 133
0 0 0 0 0 0 0 0 0 0 0 0 0 0 0 0 0 0 0 0 0 0 0 0 104 299 360 288 377 727 656 577 155 1 4 25 22 18 32 99 326 539 686 736 836 796 634 412 251
0 0 0 0 0 0 0 0 0 0 0 0 0 0 0 0 0 0 0 0 0 0 0 0 41 182 113 3 0 10 29 0 2 5 1 0 4 8 10 28 39 32 43 107 146 179 364 376 191
0 0 0 0 0 0 0 0 0 0 0 0 0 0 0 0 0 0 0 0 0 0 0 0 18 20 0 0 4 4 0 0 0 0 0 0 0 0 0 0 0 5 18 7 0 22 13 48 131
0 0 0 0 0 0 0 0 0 0 0 0 0 0 0 0 0 0 0 0 0 0 0 0 0 0 0 0 0 0 0 0 0 0 0 0 0 0 0 0 0 0 0 0 0 0 0 0 0
0 0 0 0 0 0 0 0 0 0 0 0 0 0 0 0 0 0 0 0 0 0 0 0 0 0 0 0 0 0 0 0 0 0 0 0 0 0 0 0 0 0 0 0 0 0 0 0 0
0 0 0 0 0 0 0 0 0 0 0 0 0 0 0 0 0 0 0 0 0 0 0 0 0 0 0 0 0 0 0 0 0 0 0 0 0 0 0 0 0 0 0 0 0 0 0 0 5
0 0 0 0 0 0 0 0 0 0 0 0 0 0 0 0 0 0 0 0 0 0 0 0 0 0 0 0 0 0 0 0 0 0 0 0 0 0 0 0 0 0 0 0 0 0 0 0 0
0 0 0 0 0 0 0 0 0 0 0 0 0 0 0 0 0 0 0 0 0 0 0 0 0 0 0 0 0 0 0 0 0 0 0 0 0 0 0 0 0 0 0 0 0 0 0 0 0
0 0 0 0 0 0 0 0 0 0 0 0 0 0 0 0 0 0 0 0 0 0 0 0 0 0 0 0 0 0 0 0 0 0 0 0 0 0 0 0 0 0 0 0 0 0 0 0 0

GFSSGP_con_mlcape_123.txt.gz
CAPE
0 0 0 0 0 0 0 0 0 0 0 0 0 0 34 105 171 182 529 1013 895 1101 1260 884 480 388 323 419 659 673 710 703 658 548 490 281 207 204 173 246 280 198 31 0 0 0 0 0 0
0 0 0 0 0 0 0 0 0 0 0 0 0 159 371 286 596 681 556 922 943 1144 1185 835 352 359 303 188 268 576 686 695 663 657 561 363 201 114 124 127 42 23 0 0 0 0 0 12 10
0 0 0 0 0 0 0 0 0 0 0 0 0 74 306 312 697 436 636 1004 1018 1137 1253 920 376 260 194 75 42 101 435 585 605 599 457 220 87 53 45 11 13 40 19 0 0 0 1 45 33
0 0 0 0 0 0 0 0 0 0 0 0 0 134 325 724 435 607 995 1057 1029 1134 1172 845 315 249 184 101 49 0 0 10 72 111 60 45 49 42 22 16 29 35 0 0 0 0 26 75 75
0 0 0 0 0 0 0 0 0 0 0 0 0 150 419 917 1108 1335 818 965 907 1094 999 894 286 215 137 102 68 17 1 0 0 0 5 22 15 0 2 32 39 15 0 0 0 0 18 61 88
0 0 0 0 0 0 0 0 0 0 0 0 1 275 494 1011 1150 1380 1090 1025 966 998 997 846 354 178 92 106 51 13 7 0 0 0 4 12 12 17 34 45 32 6 0 0 0 0 0 0 3
0 0 0 0 0 0 0 0 0 0 0 0 4 229 337 964 1317 1683 1382 1215 1078 1101 1083 800 413 261 122 80 25 2 0 0 0 0 22 65 60 59 69 36 10 1 0 0 0 0 0 0 0
0 0 0 0 0 0 0 0 0 0 0 0 0 288 278 786 1404 1424 1426 1185 1016 1061 1001 808 558 326 234 253 57 1 0 0 0 0 0 2 36 57 43 24 16 18 0 0 0 0 0 0 0
0 0 0 0 0 0 0 0 0 0 0 0 0 0 0 936 1075 1006 995 999 883 983 1091 904 515 494 430 268 312 71 24 4 0 4 6 11 43 90 131 96 50 28 7 0 0 0 0 0 0
0 0 0 0 0 0 0 0 0 0 0 0 0 62 551 848 786 665 586 411 459 622 943 1045 822 553 533 458 510 386 377 246 160 140 166 92 147 136 111 110 55 28 42 38 14 8 1 1 1
0 0 0 0 0 0 0 0 0 0 0 0 0 1 786 975 772 567 490 416 362 585 844 1100 1258 1050 628 408 768 786 547 598 647 581 519 455 305 279 206 248 205 256 156 88 62 90 61 27 15
0 0 0 0 0 0 0 0 0 0 0 0 0 0 215 795 972 728 547 426 353 327 587 1032 1276 1272 1150 773 788 853 823 934 799 726 792 641 470 393 382 401 397 366 243 189 186 92 80 51 26
0 0 0 0 0 0 0 0 0 0 0 0 0 0 0 0 205 731 936 851 674 504 424 598 1091 1240 1287 1275 1156 1097 1068 986 996 1112 1076 887 625 529 454 444 556 574 520 393 320 197 159 84 39
0 0 0 0 0 0 0 0 0 0 0 0 0 0 0 0 0 0 47 249 726 879 708 674 811 1109 1149 1078 1414 1212 1337 1194 1107 1231 1120 958 995 926 644 626 578 598 634 614 600 552 477 379 291
0 0 0 0 0 0 0 0 0 0 0 0 0 0 0 0 0 0 0 0 0 51 821 955 941 1139 1302 1242 1401 1352 1418 1284 1146 1186 1186 953 803 887 784 809 820 757 798 814 762 741 698 641 601
0 0 0 0 0 0 0 0 0 0 0 0 0 0 0 0 0 0 0 0 0 0 0 378 794 1103 1164 1217 1413 1406 1328 1299 1219 1188 1076 1013 701 925 1198 1021 1002 1059 1020 906 900 830 743 678 611
0 0 0 0 0 0 0 0 0 0 0 0 0 0 0 0 0 0 0 0 0 0 0 0 99 483 1074 1192 1157 1316 1271 1183 1170 1287 1132 1147 1221 1244 1406 1364 1164 1402 1125 976 898 844 733 721 707
0 0 0 0 0 0 0 0 0 0 0 0 0 0 0 0 0 0 0 0 0 0 0 0 31 549 972 1157 982 1022 1025 1054 1027 953 954 1181 1354 1419 1391 1346 1411 1460 1163 1093 1094 1006 1020 833 856
0 0 0 0 0 0 0 0 0 0 0 0 0 0 0 0 0 0 0 0 0 0 0 0 0 229 603 733 965 1056 1028 906 867 945 1041 1068 1132 1140 1271 1453 1517 1409 1187 1253 1283 1229 1162 1139 1004
0 0 0 0 0 0 0 0 0 0 0 0 0 0 0 0 0 0 0 0 0 0 0 0 20 176 356 863 1137 1196 1126 1240 1354 1619 1477 1301 1231 1127 1180 1277 1357 1464 1477 1507 1439 1309 1221 1108 1072
0 0 0 0 0 0 0 0 0 0 0 0 0 0 0 0 0 0 0 0 0 0 0 0 0 278 619 858 944 626 712 866 1340 1772 1884 1552 1313 1109 1045 902 890 967 1068 1129 1428 1473 1257 1301 1487
0 0 0 0 0 0 0 0 0 0 0 0 0 0 0 0 0 0 0 0 0 0 0 0 77 258 520 626 848 875 935 935 873 957 440 185 227 196 237 333 484 635 811 589 849 1219 1067 1140 1173
0 0 0 0 0 0 0 0 0 0 0 0 0 0 0 0 0 0 0 0 0 0 0 0 3 187 311 452 727 915 831 640 371 218 89 143 131 144 139 161 249 224 330 365 445 562 650 677 836
0 0 0 0 0 0 0 0 0 0 0 0 0 0 0 0 0 0 0 0 0 0 0 0 17 121 120 103 78 160 224 167 75 32 42 21 40 62 58 89 62 59 30 22 59 209 250 241 281
0 0 0 0 0 0 0 0 0 0 0 0 0 0 0 0 0 0 0 0 0 0 0 5 35 20 15 21 25 18 12 7 0 0 0 0 1 5 2 5 0 0 0 0 0 0 6 89 83
0 0 0 0 0 0 0 0 0 0 0 0 0 0 0 0 0 0 0 0 0 0 0 0 0 0 0 0 0 0 0 0 0 0 0 0 0 0 0 0 0 0 0 0 0 0 0 1 6
0 0 0 0 0 0 0 0 0 0 0 0 0 0 0 0 0 0 0 0 0 0 0 0 0 0 0 0 0 0 0 0 0 0 0 0 0 0 0 0 0 0 0 0 0 0 0 0 0
0 0 0 0 0 0 0 0 0 0 0 0 0 0 0 0 0 0 0 0 0 0 0 0 0 0 0 0 0 0 0 0 0 0 0 0 0 0 0 0 0 0 0 0 0 0 0 0 0
0 0 0 0 0 0 0 0 0 0 0 0 0 0 0 0 0 0 0 0 0 0 0 0 0 0 0 0 0 0 0 0 0 0 0 0 0 0 0 0 0 0 0 0 0 0 0 0 0
0 0 0 0 0 0 0 0 0 0 0 0 0 0 0 0 0 0 0 0 0 0 0 0 0 0 0 0 0 0 0 0 0 0 0 0 0 0 0 0 0 0 0 0 0 0 0 0 0